ftp/pub/palmer/observations_modified/2019/May/original_files/AR190525_BASE.txt

Download

Sample DateTime	Unit Id	WS Avg 2min	WD Avg 2min	WGS 10min	WGD 10min	Air Temp	Rel Humidity	Dew Point	Pyranometer	Quantum	Air Pressure	Snow Level	Rainfall	PW Current	Visibility	CBase 1	CBase 2	CBase 3	Vert Vis
2019/05/25 00:00:00	BASE	7.02	227	10.39	224	-5.7	86	-7.6	0	0	981.2	NA	0.0000		9999	1770	0	0	0
2019/05/25 00:01:00	BASE	6.55	226	9.62	223	-5.7	86	-7.6	0	0	981.2	NA	0.0000		9999	1670	0	0	0
2019/05/25 00:02:00	BASE	5.48	233	9.62	223	-5.6	86	-7.6	0	0	981.2	NA	0.0000		9999	1670	0	0	0
2019/05/25 00:03:00	BASE	4.72	238	8.08	228	-5.6	86	-7.6	0	0	981.2	NA	0.0000		9999	1710	0	0	0
2019/05/25 00:04:00	BASE	4.06	235	8.08	228	-5.6	86	-7.6	0	0	981.2	NA	0.0000		9999	1740	0	0	0
2019/05/25 00:05:00	BASE	3.80	231	8.08	228	-5.6	86	-7.5	0	0	981.1	NA	0.0000		9999	1710	2300	0	0
2019/05/25 00:06:00	BASE	4.16	227	8.08	228	-5.6	87	-7.5	0	0	981.0	NA	0.0000		9999	1710	0	0	0
2019/05/25 00:07:00	BASE	4.72	222	8.08	228	-5.6	87	-7.5	0	0	981.0	NA	0.0000		9999	1710	0	0	0
2019/05/25 00:08:00	BASE	5.32	221	8.08	228	-5.6	87	-7.4	0	0	981.0	NA	0.0000		9999	1670	0	0	0
2019/05/25 00:09:00	BASE	6.10	217	8.08	228	-5.6	87	-7.4	0	0	981.0	NA	0.0000		9999	1670	2360	0	0
2019/05/25 00:10:00	BASE	6.25	215	7.10	209	-5.6	87	-7.4	0	0	981.0	NA	0.0000		9999	2170	0	0	0
2019/05/25 00:11:00	BASE	5.79	222	7.10	209	-5.6	87	-7.4	0	0	981.0	NA	0.0000		9999	1740	0	0	0
2019/05/25 00:12:00	BASE	5.82	222	7.10	209	-5.6	87	-7.4	0	0	981.0	NA	0.0000		9999	1740	0	0	0
2019/05/25 00:13:00	BASE	6.42	214	7.92	211	-5.5	87	-7.3	0	0	981.0	NA	0.0000		9999	1710	0	0	0
2019/05/25 00:14:00	BASE	7.27	217	8.85	228	-5.5	87	-7.3	0	0	981.0	NA	0.0000		9999	2000	0	0	0
2019/05/25 00:15:00	BASE	7.25	224	8.85	228	-5.4	87	-7.3	0	0	981.0	NA	0.0000		9999	2170	0	0	0
2019/05/25 00:16:00	BASE	6.65	224	8.85	228	-5.4	87	-7.2	0	0	981.0	NA	0.0000		9999	2000	0	0	0
2019/05/25 00:17:00	BASE	6.86	225	8.85	228	-5.4	87	-7.2	0	0	981.0	NA	0.0000		9999	1970	0	0	0
2019/05/25 00:18:01	BASE	7.21	225	8.85	228	-5.4	87	-7.3	0	0	981.0	NA	0.0000		9999	1970	0	0	0
2019/05/25 00:19:00	BASE	6.87	223	8.85	228	-5.4	87	-7.3	0	0	981.0	NA	0.0000		9999	1840	0	0	0
2019/05/25 00:20:00	BASE	6.44	225	8.85	228	-5.5	86	-7.4	0	0	981.0	NA	0.0000		9999	2000	0	0	0
2019/05/25 00:21:00	BASE	6.10	227	8.85	228	-5.5	86	-7.4	0	0	981.0	NA	0.0000		9999	1740	0	0	0
2019/05/25 00:22:00	BASE	6.02	228	8.85	228	-5.4	86	-7.4	0	0	981.0	NA	0.0000		9999	1740	0	0	0
2019/05/25 00:23:00	BASE	5.86	227	8.85	228	-5.4	86	-7.4	0	0	981.0	NA	0.0000		9999	1740	0	0	0
2019/05/25 00:24:00	BASE	6.07	224	8.39	221	-5.4	86	-7.3	0	0	981.0	NA	0.0000		9999	1670	0	0	0
2019/05/25 00:25:00	BASE	7.68	215	9.52	212	-5.4	86	-7.3	0	0	981.0	NA	0.0000		9999	1640	0	0	0
2019/05/25 00:26:00	BASE	8.46	210	9.52	212	-5.4	87	-7.3	0	0	981.0	NA	0.0000		9999	1840	0	0	0
2019/05/25 00:27:00	BASE	8.16	217	9.52	212	-5.4	87	-7.3	0	0	981.0	NA	0.0000		9999	1970	0	0	0
2019/05/25 00:28:00	BASE	8.07	225	9.52	212	-5.5	87	-7.3	0	0	981.0	NA	0.0000		9999	1800	0	0	0
2019/05/25 00:29:00	BASE	7.15	221	9.52	212	-5.5	87	-7.3	0	0	981.0	NA	0.0000		9999	1940	2560	0	0
2019/05/25 00:30:00	BASE	6.39	218	9.52	212	-5.5	87	-7.3	0	0	981.0	NA	0.0000		9999	2170	5480	0	0
2019/05/25 00:31:00	BASE	6.94	222	9.52	212	-5.5	87	-7.3	0	0	981.0	NA	0.0000		9999	2200	0	0	0
2019/05/25 00:32:00	BASE	7.50	228	9.52	212	-5.5	87	-7.4	0	0	981.0	NA	0.0000		9999	2460	5410	0	0
2019/05/25 00:33:00	BASE	7.09	233	9.52	212	-5.5	87	-7.4	0	0	981.0	NA	0.0000		9999	2100	2620	0	0
2019/05/25 00:34:00	BASE	5.98	230	9.52	212	-5.6	86	-7.5	0	0	981.0	NA	0.0000		9999	2260	0	0	0
2019/05/25 00:35:00	BASE	5.54	227	9.36	212	-5.6	86	-7.6	0	0	981.0	NA	0.0000		9999	2070	0	0	0
2019/05/25 00:36:00	BASE	5.21	226	9.21	220	-5.7	86	-7.6	0	0	981.0	NA	0.0000		9999	1900	0	0	0
2019/05/25 00:37:00	BASE	4.35	222	9.11	226	-5.7	86	-7.7	0	0	980.9	NA	0.0000		9999	1900	2620	5410	0
2019/05/25 00:38:00	BASE	4.16	224	8.28	231	-5.7	86	-7.7	0	0	980.9	NA	0.0000		9999	5380	0	0	0
2019/05/25 00:39:00	BASE	5.50	231	8.28	231	-5.7	86	-7.7	0	0	980.9	NA	0.0000		9999	5350	0	0	0
2019/05/25 00:40:00	BASE	6.02	233	8.28	231	-5.7	85	-7.8	0	0	980.9	NA	0.0000		9999	2230	5380	0	0
2019/05/25 00:41:00	BASE	5.26	232	8.28	231	-5.7	85	-7.8	0	0	980.9	NA	0.0000		9999	2030	5350	0	0
2019/05/25 00:42:00	BASE	5.01	235	7.67	230	-5.8	85	-7.9	0	0	980.9	NA	0.0000		9999	5320	0	0	0
2019/05/25 00:43:00	BASE	4.40	228	7.67	230	-5.8	84	-8.0	0	0	980.9	NA	0.0000		9999	5350	0	0	0
2019/05/25 00:44:00	BASE	4.05	232	7.67	230	-5.8	84	-8.1	0	0	980.9	NA	0.0000		9999	2530	5380	0	0
2019/05/25 00:45:00	BASE	4.87	247	7.67	230	-5.9	84	-8.1	0	0	980.9	NA	0.0000		9999	2260	5450	0	0
2019/05/25 00:46:00	BASE	5.59	247	7.67	230	-5.9	84	-8.2	0	0	980.9	NA	0.0000		9999	2070	2590	0	0
2019/05/25 00:47:00	BASE	6.17	246	8.49	244	-5.9	84	-8.2	0	0	980.9	NA	0.0000		9999	2070	0	0	0
2019/05/25 00:48:00	BASE	6.16	227	8.49	244	-5.9	84	-8.2	0	0	980.9	NA	0.0000		9999	2000	0	0	0
2019/05/25 00:49:00	BASE	4.92	218	8.49	244	-5.9	84	-8.2	0	0	980.9	NA	0.0000		9999	2030	0	0	0
2019/05/25 00:50:00	BASE	4.17	230	8.49	244	-5.8	83	-8.2	0	0	980.9	NA	0.0000		9999	2130	0	0	0
2019/05/25 00:51:00	BASE	3.82	229	8.49	244	-5.8	83	-8.2	0	0	980.9	NA	0.0000		9999	2100	5510	0	0
2019/05/25 00:52:00	BASE	4.46	217	8.49	244	-5.8	83	-8.2	0	0	980.9	NA	0.0000		9999	2100	5580	0	0
2019/05/25 00:53:00	BASE	5.22	211	8.49	244	-5.8	83	-8.2	0	0	980.8	NA	0.0000		9999	2030	0	0	0
2019/05/25 00:54:00	BASE	4.98	229	8.49	244	-5.8	83	-8.2	0	0	980.8	NA	0.0000		9999	2030	2490	5350	0
2019/05/25 00:55:00	BASE	4.77	245	8.49	244	-5.8	83	-8.2	0	0	980.8	NA	0.0000		9999	2430	0	0	0
2019/05/25 00:56:00	BASE	3.99	247	8.49	244	-5.8	83	-8.2	0	0	980.8	NA	0.0000		9999	2100	0	0	0
2019/05/25 00:57:00	BASE	2.94	249	7.92	223	-5.8	83	-8.2	0	0	980.8	NA	0.0000		9999	2070	0	0	0
2019/05/25 00:58:00	BASE	2.52	245	6.33	228	-5.8	83	-8.2	0	0	980.8	NA	0.0000		9999	1970	0	0	0
2019/05/25 00:59:00	BASE	2.83	244	6.33	228	-5.8	83	-8.2	0	0	980.8	NA	0.0000		9999	2000	0	0	0
2019/05/25 01:00:00	BASE	3.10	246	6.33	228	-5.8	83	-8.3	0	0	980.8	NA	0.0000		9999	1970	0	0	0
2019/05/25 01:01:00	BASE	3.72	250	6.33	228	-5.8	82	-8.3	0	0	980.8	NA	0.0000		9999	2230	0	0	0
2019/05/25 01:02:00	BASE	4.63	253	6.33	228	-5.8	82	-8.3	0	0	980.8	NA	0.0000		9999	2130	5580	0	0
2019/05/25 01:03:00	BASE	4.70	249	5.61	232	-5.8	83	-8.3	0	0	980.8	NA	0.0000		9999	2200	5580	0	0
2019/05/25 01:04:00	BASE	5.00	240	6.07	236	-5.9	83	-8.3	0	0	980.7	NA	0.0000		9999	2170	0	0	0
2019/05/25 01:05:00	BASE	5.18	228	6.07	236	-5.9	83	-8.3	0	0	980.7	NA	0.0000		9999	2030	0	0	0
2019/05/25 01:06:00	BASE	4.34	224	6.07	236	-5.8	83	-8.3	0	0	980.7	NA	0.0000		9999	1970	0	0	0
2019/05/25 01:07:00	BASE	3.76	233	6.07	236	-5.8	83	-8.2	0	0	980.7	NA	0.0000		9999	2130	0	0	0
2019/05/25 01:08:00	BASE	4.44	245	6.07	252	-5.8	83	-8.2	0	0	980.7	NA	0.0000		9999	2000	0	0	0
2019/05/25 01:09:00	BASE	5.14	248	6.07	252	-5.7	83	-8.2	0	0	980.7	NA	0.0000		9999	2100	0	0	0
2019/05/25 01:10:00	BASE	5.39	244	6.12	245	-5.7	83	-8.1	0	0	980.7	NA	0.0000		9999	2030	0	0	0
2019/05/25 01:11:00	BASE	6.28	243	8.03	241	-5.7	83	-8.1	0	0	980.7	NA	0.0000		9999	2170	5450	0	0
2019/05/25 01:12:00	BASE	6.03	239	8.03	241	-5.7	83	-8.1	0	0	980.7	NA	0.0000		9999	2100	0	0	0
2019/05/25 01:13:00	BASE	5.06	237	8.03	241	-5.7	83	-8.1	0	0	980.7	NA	0.0000		9999	2000	0	0	0
2019/05/25 01:14:00	BASE	5.77	235	8.69	237	-5.7	83	-8.1	0	0	980.7	NA	0.0000		9999	1970	0	0	0
2019/05/25 01:15:00	BASE	6.62	237	8.69	237	-5.6	82	-8.2	0	0	980.7	NA	0.0000		9999	2100	5380	0	0
2019/05/25 01:16:00	BASE	6.54	245	8.69	237	-5.7	82	-8.2	0	0	980.7	NA	0.0000		9999	2100	5280	0	0
2019/05/25 01:17:00	BASE	6.54	247	8.69	237	-5.7	82	-8.2	0	0	980.7	NA	0.0000		9999	2620	5250	0	0
2019/05/25 01:18:00	BASE	6.39	237	8.69	237	-5.7	82	-8.2	0	0	980.7	NA	0.0000		9999	2430	0	0	0
2019/05/25 01:19:00	BASE	5.88	232	8.69	237	-5.7	82	-8.3	0	0	980.7	NA	0.0000		9999	2360	0	0	0
2019/05/25 01:20:00	BASE	6.17	243	9.11	252	-5.7	82	-8.3	0	0	980.7	NA	0.0000		9999	2130	0	0	0
2019/05/25 01:21:00	BASE	6.66	256	9.11	252	-5.7	82	-8.3	0	0	980.7	NA	0.0000		9999	2030	0	0	0
2019/05/25 01:22:00	BASE	6.41	254	9.11	252	-5.7	82	-8.3	0	0	980.7	NA	0.0000		9999	2260	0	0	0
2019/05/25 01:23:00	BASE	6.54	248	9.11	252	-5.7	82	-8.2	0	0	980.7	NA	0.0000		9999	2460	5150	0	0
2019/05/25 01:24:00	BASE	6.15	249	9.11	252	-5.6	82	-8.2	0	0	980.7	NA	0.0000		9999	2030	0	0	0
2019/05/25 01:25:00	BASE	5.44	248	9.11	252	-5.6	82	-8.2	0	0	980.7	NA	0.0000		9999	1970	0	0	0
2019/05/25 01:26:00	BASE	5.38	246	9.11	252	-5.6	82	-8.2	0	0	980.7	NA	0.0000		9999	1940	0	0	0
2019/05/25 01:27:00	BASE	5.86	239	9.11	252	-5.6	82	-8.2	0	0	980.7	NA	0.0000		9999	1940	0	0	0
2019/05/25 01:28:00	BASE	5.58	232	9.11	252	-5.6	82	-8.2	0	0	980.7	NA	0.0000		9999	2000	0	0	0
2019/05/25 01:29:00	BASE	5.21	229	9.11	252	-5.6	82	-8.1	0	0	980.7	NA	0.0000		9999	1940	0	0	0
2019/05/25 01:30:00	BASE	6.37	227	8.75	213	-5.5	82	-8.1	0	0	980.7	NA	0.0000		9999	1970	0	0	0
2019/05/25 01:31:00	BASE	6.74	219	8.75	213	-5.5	83	-8.0	0	0	980.6	NA	0.0000		9999	1870	5350	0	0
2019/05/25 01:32:00	BASE	6.28	215	8.75	213	-5.5	83	-7.9	0	0	980.6	NA	0.0000		9999	2230	0	0	0
2019/05/25 01:33:00	BASE	6.27	214	8.75	213	-5.4	83	-7.9	0	0	980.6	NA	0.0000		9999	2030	0	0	0
2019/05/25 01:34:00	BASE	6.11	217	8.75	213	-5.4	83	-7.9	0	0	980.6	NA	0.0000		9999	2030	0	0	0
2019/05/25 01:35:00	BASE	6.50	225	8.75	213	-5.5	83	-7.9	0	0	980.6	NA	0.0000		9999	1970	0	0	0
2019/05/25 01:36:00	BASE	6.37	229	8.75	213	-5.5	83	-7.9	0	0	980.6	NA	0.0000		9999	2130	0	0	0
2019/05/25 01:37:00	BASE	5.67	230	8.75	213	-5.4	83	-7.9	0	0	980.5	NA	0.0000		9999	1970	0	0	0
2019/05/25 01:38:00	BASE	6.75	229	8.75	213	-5.4	83	-7.9	0	0	980.5	NA	0.0000		9999	2030	5380	0	0
2019/05/25 01:39:00	BASE	6.94	231	8.75	213	-5.4	83	-7.9	0	0	980.4	NA	0.0000		9999	2360	0	0	0
2019/05/25 01:40:00	BASE	6.28	243	8.39	240	-5.4	83	-7.9	0	0	980.4	NA	0.0000		9999	2330	0	0	0
2019/05/25 01:41:00	BASE	6.48	251	8.39	240	-5.4	82	-7.9	0	0	980.4	NA	0.0000		9999	2330	0	0	0
2019/05/25 01:42:00	BASE	6.26	241	8.39	240	-5.4	82	-8.0	0	0	980.4	NA	0.0000		9999	2260	0	0	0
2019/05/25 01:43:00	BASE	5.66	226	8.39	240	-5.4	82	-8.0	0	0	980.4	NA	0.0000		9999	2130	0	0	0
2019/05/25 01:44:00	BASE	5.59	215	8.39	240	-5.4	82	-8.0	0	0	980.4	NA	0.0000		9999	2070	0	0	0
2019/05/25 01:45:00	BASE	5.32	218	8.39	240	-5.4	82	-8.0	0	0	980.4	NA	0.0000		9999	2070	0	0	0
2019/05/25 01:46:00	BASE	4.55	223	8.39	240	-5.4	82	-8.0	0	0	980.4	NA	0.0000		9999	2130	0	0	0
2019/05/25 01:47:00	BASE	5.08	217	8.39	240	-5.4	82	-8.0	0	0	980.4	NA	0.0000		9999	2130	0	0	0
2019/05/25 01:48:00	BASE	5.58	215	7.67	256	-5.4	82	-7.9	0	0	980.4	NA	0.0000		9999	2170	0	0	0
2019/05/25 01:49:00	BASE	4.95	212	7.67	256	-5.4	83	-7.9	0	0	980.4	NA	0.0000		9999	2130	0	0	0
2019/05/25 01:50:00	BASE	5.21	210	7.67	256	-5.4	83	-7.9	0	0	980.4	NA	0.0000		9999	2170	0	0	0
2019/05/25 01:51:00	BASE	5.22	207	7.67	256	-5.4	83	-7.9	0	0	980.4	NA	0.0000		9999	2100	0	0	0
2019/05/25 01:52:00	BASE	4.32	208	6.74	213	-5.4	83	-7.9	0	0	980.4	NA	0.0000		9999	2100	0	0	0
2019/05/25 01:53:00	BASE	3.66	215	6.74	213	-5.4	82	-7.9	0	0	980.4	NA	0.0000		9999	2100	0	0	0
2019/05/25 01:54:00	BASE	3.35	219	6.74	213	-5.4	82	-8.0	0	0	980.4	NA	0.0000		9999	2070	0	0	0
2019/05/25 01:55:00	BASE	3.38	220	6.74	213	-5.4	82	-8.0	0	0	980.4	NA	0.0000		9999	2000	0	0	0
2019/05/25 01:56:00	BASE	3.18	223	6.74	213	-5.4	82	-8.0	0	0	980.4	NA	0.0000		9999	2000	0	0	0
2019/05/25 01:57:00	BASE	3.07	230	6.74	213	-5.4	82	-8.0	0	0	980.4	NA	0.0000		9999	2070	0	0	0
2019/05/25 01:58:00	BASE	2.93	235	6.74	213	-5.4	82	-8.0	0	0	980.4	NA	0.0000		9999	2070	0	0	0
2019/05/25 01:59:00	BASE	3.24	240	6.74	213	-5.4	82	-8.0	0	0	980.4	NA	0.0000		9999	1900	0	0	0
2019/05/25 02:00:00	BASE	4.39	241	6.64	222	-5.4	82	-8.0	0	0	980.4	NA	0.0000		9999	1940	0	0	0
2019/05/25 02:01:00	BASE	5.55	234	7.20	223	-5.4	82	-8.0	0	0	980.4	NA	0.0000		9999	1940	2690	5380	0
2019/05/25 02:02:00	BASE	5.08	232	7.20	223	-5.3	82	-7.9	0	0	980.4	NA	0.0000		9999	2300	5410	0	0
2019/05/25 02:03:00	BASE	4.34	240	7.20	223	-5.3	82	-7.9	0	0	980.4	NA	0.0000		9999	2260	0	0	0
2019/05/25 02:04:00	BASE	5.04	240	7.20	223	-5.3	83	-7.8	0	0	980.3	NA	0.0000		9999	2300	0	0	0
2019/05/25 02:05:00	BASE	5.21	248	7.20	223	-5.4	83	-7.8	0	0	980.3	NA	0.0000		9999	2330	0	0	0
2019/05/25 02:06:00	BASE	4.61	262	7.20	223	-5.4	83	-7.8	0	0	980.3	NA	0.0000		9999	2170	0	0	0
2019/05/25 02:07:00	BASE	4.90	255	8.39	239	-5.4	83	-7.9	0	0	980.3	NA	0.0000		9999	2100	0	0	0
2019/05/25 02:08:00	BASE	7.28	240	10.65	226	-5.4	83	-7.9	0	0	980.3	NA	0.0000		9999	2130	0	0	0
2019/05/25 02:09:00	BASE	9.06	230	10.65	228	-5.4	82	-7.9	0	0	980.3	NA	0.0000		9999	2130	0	0	0
2019/05/25 02:10:00	BASE	9.87	231	11.57	234	-5.4	82	-7.9	0	0	980.3	NA	0.0000		9999	2200	0	0	0
2019/05/25 02:11:00	BASE	10.40	231	11.57	234	-5.4	82	-8.0	0	0	980.3	NA	0.0000		9999	2330	0	0	0
2019/05/25 02:12:00	BASE	9.37	228	11.57	234	-5.4	82	-8.0	0	0	980.3	NA	0.0000		9999	2400	0	0	0
2019/05/25 02:13:00	BASE	7.68	226	11.57	234	-5.4	82	-8.0	0	0	980.3	NA	0.0000		9999	2460	0	0	0
2019/05/25 02:14:00	BASE	5.90	226	11.57	234	-5.4	81	-8.1	0	0	980.3	NA	0.0000		9999	2430	0	0	0
2019/05/25 02:15:00	BASE	4.61	228	11.57	234	-5.4	81	-8.2	0	0	980.3	NA	0.0000		9999	2260	0	0	0
2019/05/25 02:16:00	BASE	4.30	239	11.57	234	-5.4	80	-8.3	0	0	980.3	NA	0.0000		9999	2300	0	0	0
2019/05/25 02:17:00	BASE	5.01	244	11.57	234	-5.4	80	-8.3	0	0	980.3	NA	0.0000		9999	2200	0	0	0
2019/05/25 02:18:00	BASE	6.53	239	11.57	234	-5.4	80	-8.3	0	0	980.3	NA	0.0000		9999	2230	0	0	0
2019/05/25 02:19:00	BASE	6.68	240	11.57	234	-5.4	80	-8.3	0	0	980.3	NA	0.0000		9999	2170	0	0	0
2019/05/25 02:20:00	BASE	5.36	241	11.47	230	-5.4	80	-8.3	0	0	980.3	NA	0.0000		9999	2300	0	0	0
2019/05/25 02:21:00	BASE	5.19	247	9.77	229	-5.4	80	-8.3	0	0	980.3	NA	0.0000		9999	2200	0	0	0
2019/05/25 02:22:00	BASE	6.57	246	9.05	243	-5.4	80	-8.3	0	0	980.3	NA	0.0000		9999	2170	0	0	0
2019/05/25 02:23:00	BASE	7.54	241	10.19	231	-5.3	80	-8.3	0	0	980.2	NA	0.0000		9999	2130	0	0	0
2019/05/25 02:24:00	BASE	8.87	234	11.68	222	-5.3	80	-8.2	0	0	980.2	NA	0.0000		9999	2070	0	0	0
2019/05/25 02:25:00	BASE	9.60	226	11.68	222	-5.3	80	-8.2	0	0	980.2	NA	0.0000		9999	2030	0	0	0
2019/05/25 02:26:00	BASE	8.71	225	11.68	222	-5.2	80	-8.2	0	0	980.2	NA	0.0000		9999	2000	0	0	0
2019/05/25 02:27:00	BASE	7.86	222	11.68	222	-5.2	80	-8.2	0	0	980.2	NA	0.0000		9999	2070	0	0	0
2019/05/25 02:28:00	BASE	7.15	217	11.68	222	-5.2	80	-8.2	0	0	980.2	NA	0.0000		9999	2130	0	0	0
2019/05/25 02:29:00	BASE	7.32	224	11.68	222	-5.2	80	-8.1	0	0	980.2	NA	0.0000		9999	2100	0	0	0
2019/05/25 02:30:00	BASE	8.52	228	11.68	222	-5.3	80	-8.1	0	0	980.2	NA	0.0000		9999	2130	0	0	0
2019/05/25 02:31:00	BASE	11.14	227	13.84	228	-5.2	81	-8.1	0	0	980.1	NA	0.0000		9999	2030	0	0	0
2019/05/25 02:32:00	BASE	12.43	226	13.84	228	-5.2	81	-8.0	0	0	980.1	NA	0.0000		9999	2130	0	0	0
2019/05/25 02:33:00	BASE	11.72	223	13.84	228	-5.2	81	-8.0	0	0	980.1	NA	0.0000		9999	2200	0	0	0
2019/05/25 02:34:00	BASE	11.41	225	13.84	228	-5.2	81	-8.0	0	0	980.1	NA	0.0000		9999	2170	0	0	0
2019/05/25 02:35:00	BASE	11.01	229	13.84	228	-5.3	81	-8.1	0	0	980.1	NA	0.0000		9999	2170	0	0	0
2019/05/25 02:36:00	BASE	9.13	234	13.84	228	-5.3	80	-8.1	0	0	980.1	NA	0.0000		9999	2230	0	0	0
2019/05/25 02:37:00	BASE	7.84	239	13.84	228	-5.3	80	-8.2	0	0	980.1	NA	0.0000		9999	2460	0	0	0
2019/05/25 02:38:00	BASE	7.88	242	13.84	228	-5.3	80	-8.3	0	0	980.2	NA	0.0000		9999	2300	0	0	0
2019/05/25 02:39:00	BASE	7.33	243	13.84	228	-5.4	80	-8.3	0	0	980.1	NA	0.0000		9999	1940	2720	0	0
2019/05/25 02:40:00	BASE	7.13	245	13.84	228	-5.4	80	-8.3	0	0	980.1	NA	0.0000		9999	2170	0	0	0
2019/05/25 02:41:00	BASE	7.64	249	13.43	226	-5.4	80	-8.3	0	0	980.1	NA	0.0000		9999	2260	0	0	0
2019/05/25 02:42:00	BASE	8.02	252	13.43	226	-5.4	80	-8.3	0	0	980.1	NA	0.0000		9999	2300	0	0	0
2019/05/25 02:43:00	BASE	8.70	250	12.55	228	-5.3	80	-8.2	0	0	980.1	NA	0.0000		9999	2130	0	0	0
2019/05/25 02:44:00	BASE	9.17	246	11.88	235	-5.3	80	-8.2	0	0	980.1	NA	0.0000		9999	2170	0	0	0
2019/05/25 02:45:00	BASE	7.90	239	10.08	241	-5.3	80	-8.2	0	0	980.1	NA	0.0000		9999	2170	0	0	0
2019/05/25 02:46:00	BASE	6.02	237	10.08	241	-5.3	80	-8.2	0	0	980.0	NA	0.0000		9999	2260	0	0	0
2019/05/25 02:47:00	BASE	5.61	227	10.08	241	-5.3	80	-8.3	0	0	979.9	NA	0.0000		9999	2260	0	0	0
2019/05/25 02:48:00	BASE	6.02	208	10.08	241	-5.3	80	-8.3	0	0	979.9	NA	0.0000		9999	2260	0	0	0
2019/05/25 02:49:00	BASE	6.51	206	10.08	241	-5.3	79	-8.3	0	0	979.9	NA	0.0000		9999	2330	0	0	0
2019/05/25 02:50:00	BASE	6.79	213	10.08	241	-5.3	79	-8.3	0	0	979.9	NA	0.0000		9999	2260	0	0	0
2019/05/25 02:51:00	BASE	6.33	214	10.08	241	-5.3	79	-8.4	0	0	979.9	NA	0.0000		9999	2330	0	0	0
2019/05/25 02:52:00	BASE	6.03	208	10.08	241	-5.3	79	-8.4	0	0	980.0	NA	0.0000		9999	2260	0	0	0
2019/05/25 02:53:00	BASE	5.32	211	9.98	241	-5.3	79	-8.4	0	0	980.1	NA	0.0000		9999	2330	0	0	0
2019/05/25 02:54:00	BASE	4.48	212	9.16	230	-5.3	79	-8.4	0	0	980.1	NA	0.0000		9999	2260	0	0	0
2019/05/25 02:55:00	BASE	4.05	208	7.82	222	-5.3	79	-8.5	0	0	980.1	NA	0.0000		9999	2070	0	0	0
2019/05/25 02:56:00	BASE	4.03	210	7.82	222	-5.4	79	-8.5	0	0	980.0	NA	0.0000		9999	2000	0	0	0
2019/05/25 02:57:00	BASE	4.74	207	7.82	222	-5.4	78	-8.5	0	0	979.9	NA	0.0000		9999	2070	0	0	0
2019/05/25 02:58:00	BASE	5.58	194	7.82	222	-5.3	78	-8.5	0	0	979.9	NA	0.0000		9999	2070	0	0	0
2019/05/25 02:59:00	BASE	5.86	181	7.82	222	-5.3	78	-8.6	0	0	979.9	NA	0.0000		9999	2030	0	0	0
2019/05/25 03:00:00	BASE	5.97	175	7.31	185	-5.3	78	-8.5	0	0	979.9	NA	0.0000		9999	2070	0	0	0
2019/05/25 03:01:00	BASE	5.92	185	7.31	185	-5.3	78	-8.5	0	0	979.9	NA	0.0000		9999	2030	0	0	0
2019/05/25 03:02:00	BASE	5.87	201	7.31	185	-5.3	79	-8.4	0	0	979.9	NA	0.0000		9999	2100	0	0	0
2019/05/25 03:03:00	BASE	5.82	213	7.31	185	-5.3	79	-8.3	0	0	979.9	NA	0.0000		9999	2030	0	0	0
2019/05/25 03:04:00	BASE	5.52	226	7.31	185	-5.3	79	-8.3	0	0	979.9	NA	0.0000		9999	2070	0	0	0
2019/05/25 03:05:00	BASE	5.31	217	7.46	204	-5.2	80	-8.2	0	0	979.9	NA	0.0000		9999	2000	0	0	0
2019/05/25 03:06:00	BASE	6.19	203	8.18	206	-5.2	80	-8.1	0	0	979.9	NA	0.0000		9999	2000	0	0	0
2019/05/25 03:07:00	BASE	6.45	209	8.18	206	-5.2	81	-8.0	0	0	979.9	NA	0.0000		9999	2230	0	0	0
2019/05/25 03:08:00	BASE	5.40	212	8.18	206	-5.3	81	-8.0	0	0	979.9	NA	0.0000		9999	2000	0	0	0
2019/05/25 03:09:00	BASE	5.01	213	8.18	206	-5.3	81	-8.0	0	0	979.9	NA	0.0000		9999	2000	0	0	0
2019/05/25 03:10:00	BASE	4.66	222	8.18	206	-5.3	81	-8.0	0	0	979.9	NA	0.0000		9999	2070	0	0	0
2019/05/25 03:11:00	BASE	4.24	226	8.18	206	-5.3	81	-8.0	0	0	979.9	NA	0.0000		9999	2070	0	0	0
2019/05/25 03:12:00	BASE	3.95	205	8.18	206	-5.3	81	-8.1	0	0	979.9	NA	0.0000		9999	2070	0	0	0
2019/05/25 03:13:00	BASE	4.16	179	8.18	206	-5.3	81	-8.1	0	0	979.8	NA	0.0000		9999	2170	0	0	0
2019/05/25 03:14:00	BASE	5.08	185	8.18	206	-5.4	81	-8.1	0	0	979.8	NA	0.0000		9999	2230	0	0	0
2019/05/25 03:15:00	BASE	5.66	210	8.18	206	-5.4	81	-8.1	0	0	979.8	NA	0.0000		9999	2170	0	0	0
2019/05/25 03:16:00	BASE	5.30	221	7.10	222	-5.3	81	-8.1	0	0	979.8	NA	0.0000		9999	2170	0	0	0
2019/05/25 03:17:00	BASE	5.11	219	7.72	208	-5.3	81	-8.1	0	0	979.7	NA	0.0000		9999	2130	0	0	0
2019/05/25 03:18:00	BASE	5.87	209	7.72	208	-5.3	81	-8.1	0	0	979.7	NA	0.0000		9999	2100	0	0	0
2019/05/25 03:19:00	BASE	6.18	202	7.72	208	-5.3	81	-8.0	0	0	979.7	NA	0.0000		9999	2170	0	0	0
2019/05/25 03:20:00	BASE	6.47	202	7.82	204	-5.3	81	-8.0	0	0	979.6	NA	0.0000		9999	1940	0	0	0
2019/05/25 03:21:00	BASE	7.18	200	7.92	193	-5.3	81	-8.0	0	0	979.6	NA	0.0000		9999	2030	0	0	0
2019/05/25 03:22:00	BASE	7.51	196	8.28	196	-5.3	81	-8.0	0	0	979.6	NA	0.0000		9999	1970	0	0	0
2019/05/25 03:23:00	BASE	6.83	194	8.28	196	-5.3	81	-8.0	0	0	979.6	NA	0.0000		9999	2030	0	0	0
2019/05/25 03:24:00	BASE	6.36	198	8.59	204	-5.3	81	-8.1	0	0	979.6	NA	0.0000		9999	2000	0	0	0
2019/05/25 03:25:00	BASE	6.73	201	8.59	204	-5.3	81	-8.1	0	0	979.6	NA	0.0000		9999	1940	0	0	0
2019/05/25 03:26:00	BASE	5.74	196	8.59	204	-5.4	81	-8.1	0	0	979.5	NA	0.0000		9999	2000	0	0	0
2019/05/25 03:27:00	BASE	4.92	186	8.59	204	-5.4	81	-8.1	0	0	979.5	NA	0.0000		9999	2000	0	0	0
2019/05/25 03:28:00	BASE	5.54	189	8.59	204	-5.4	81	-8.1	0	0	979.5	NA	0.0000		9999	2230	0	0	0
2019/05/25 03:29:00	BASE	5.77	194	8.59	204	-5.4	81	-8.1	0	0	979.5	NA	0.0000		9999	2130	0	0	0
2019/05/25 03:30:00	BASE	4.94	193	8.59	204	-5.4	81	-8.1	0	0	979.5	NA	0.0000		9999	2030	0	0	0
2019/05/25 03:31:00	BASE	3.86	194	8.59	204	-5.4	81	-8.2	0	0	979.5	NA	0.0000		9999	2100	0	0	0
2019/05/25 03:32:00	BASE	3.29	189	8.59	204	-5.4	81	-8.2	0	0	979.5	NA	0.0000		9999	2070	0	0	0
2019/05/25 03:33:00	BASE	3.39	175	8.59	204	-5.4	81	-8.2	0	0	979.5	NA	0.0000		9999	2070	0	0	0
2019/05/25 03:34:00	BASE	3.71	180	8.33	210	-5.4	81	-8.2	0	0	979.5	NA	0.0000		9999	2000	0	0	0
2019/05/25 03:35:00	BASE	3.57	191	7.05	205	-5.4	81	-8.1	0	0	979.5	NA	0.0000		9999	2000	0	0	0
2019/05/25 03:36:00	BASE	4.22	195	7.05	205	-5.4	82	-8.1	0	0	979.5	NA	0.0000		9999	1970	0	0	0
2019/05/25 03:37:00	BASE	5.28	203	7.05	205	-5.4	82	-8.0	0	0	979.5	NA	0.0000		9999	2030	0	0	0
2019/05/25 03:38:00	BASE	5.92	207	6.89	205	-5.4	82	-8.0	0	0	979.5	NA	0.0000		9999	1970	0	0	0
2019/05/25 03:39:00	BASE	5.61	208	6.89	205	-5.4	82	-8.0	0	0	979.5	NA	0.0000		9999	1970	0	0	0
2019/05/25 03:40:00	BASE	4.77	207	6.89	205	-5.4	82	-8.0	0	0	979.5	NA	0.0000		9999	1970	0	0	0
2019/05/25 03:41:00	BASE	5.52	207	7.77	208	-5.4	82	-8.0	0	0	979.5	NA	0.0000		9999	1900	0	0	0
2019/05/25 03:42:00	BASE	6.36	203	7.77	208	-5.4	82	-8.0	0	0	979.5	NA	0.0000		9999	1940	0	0	0
2019/05/25 03:43:00	BASE	6.67	200	7.82	203	-5.4	82	-8.0	0	0	979.5	NA	0.0000		9999	1940	0	0	0
2019/05/25 03:44:00	BASE	6.00	198	7.82	203	-5.4	82	-8.0	0	0	979.5	NA	0.0000		9999	1970	0	0	0
2019/05/25 03:45:00	BASE	4.96	189	7.82	203	-5.4	82	-8.0	0	0	979.5	NA	0.0000		9999	1940	0	0	0
2019/05/25 03:46:00	BASE	5.07	182	7.82	203	-5.4	82	-8.0	0	0	979.5	NA	0.0000		9999	1940	0	0	0
2019/05/25 03:47:00	BASE	4.89	186	7.82	203	-5.4	82	-8.0	0	0	979.5	NA	0.0000		9999	1900	0	0	0
2019/05/25 03:48:00	BASE	3.98	186	7.82	203	-5.5	82	-8.0	0	0	979.5	NA	0.0000		9999	1900	0	0	0
2019/05/25 03:49:00	BASE	3.76	182	7.82	203	-5.5	82	-8.1	0	0	979.5	NA	0.0000		9999	1870	0	0	0
2019/05/25 03:50:00	BASE	4.72	182	7.82	203	-5.5	82	-8.1	0	0	979.5	NA	0.0000		9999	1940	0	0	0
2019/05/25 03:51:00	BASE	5.96	188	7.82	203	-5.5	82	-8.1	0	0	979.4	NA	0.0000		9999	1940	0	0	0
2019/05/25 03:52:00	BASE	6.25	197	7.82	203	-5.5	82	-8.1	0	0	979.5	NA	0.0000		9999	1900	0	0	0
2019/05/25 03:53:00	BASE	5.56	200	7.05	185	-5.5	82	-8.1	0	0	979.5	NA	0.0000		9999	1940	0	0	0
2019/05/25 03:54:00	BASE	4.91	201	7.05	185	-5.5	82	-8.1	0	0	979.5	NA	0.0000		9999	1940	0	0	0
2019/05/25 03:55:00	BASE	4.54	209	7.05	185	-5.5	82	-8.0	0	0	979.5	NA	0.0000		9999	1870	0	0	0
2019/05/25 03:56:00	BASE	3.99	218	7.05	185	-5.4	82	-8.0	0	0	979.5	NA	0.0000		9999	1900	0	0	0
2019/05/25 03:57:00	BASE	3.87	221	7.05	185	-5.4	82	-8.0	0	0	979.5	NA	0.0000		9999	1940	0	0	0
2019/05/25 03:58:00	BASE	4.66	229	7.05	185	-5.4	82	-8.0	0	0	979.4	NA	0.0000		9999	1940	0	0	0
2019/05/25 03:59:00	BASE	4.62	239	7.05	185	-5.4	82	-8.0	0	0	979.4	NA	0.0000		9999	1840	0	0	0
2019/05/25 04:00:00	BASE	4.03	234	7.05	185	-5.4	82	-8.0	0	0	979.4	NA	0.0000		9999	1870	0	0	0
2019/05/25 04:01:00	BASE	3.61	223	6.28	227	-5.4	82	-8.0	0	0	979.4	NA	0.0000		9999	1870	0	0	0
2019/05/25 04:02:00	BASE	2.96	223	6.28	227	-5.4	82	-8.0	0	0	979.4	NA	0.0000		9999	1900	0	0	0
2019/05/25 04:03:00	BASE	2.39	227	6.28	227	-5.4	82	-8.0	0	0	979.5	NA	0.0000		9999	1870	0	0	0
2019/05/25 04:04:00	BASE	2.10	229	6.28	227	-5.4	82	-8.0	0	0	979.4	NA	0.0000		9999	1840	0	0	0
2019/05/25 04:05:00	BASE	2.53	237	6.28	227	-5.4	82	-8.0	0	0	979.3	NA	0.0000		9999	1870	0	0	0
2019/05/25 04:07:00	BASE	3.15	242	6.28	227	-5.4	82	-8.0	0	0	979.3	NA	0.0000		9999	1840	0	0	0
2019/05/25 04:08:00	BASE	3.16	242	6.28	227	-5.4	82	-8.0	0	0	979.3	NA	0.0000		9999	1840	0	0	0
2019/05/25 04:09:00	BASE	3.38	240	5.25	234	-5.4	82	-7.9	0	0	979.3	NA	0.0000		9999	1900	0	0	0
2019/05/25 04:10:00	BASE	4.21	230	5.50	214	-5.4	83	-7.9	0	0	979.3	NA	0.0000		9999	1800	0	0	0
2019/05/25 04:11:00	BASE	4.08	214	5.50	214	-5.4	83	-7.9	0	0	979.3	NA	0.0000		9999	1870	0	0	0
2019/05/25 04:12:00	BASE	3.79	201	5.50	214	-5.4	83	-7.8	0	0	979.3	NA	0.0000		9999	1840	0	0	0
2019/05/25 04:13:00	BASE	3.86	193	5.50	214	-5.4	83	-7.8	0	0	979.3	NA	0.0000		9999	1870	0	0	0
2019/05/25 04:14:00	BASE	3.40	197	5.50	214	-5.4	83	-7.8	0	0	979.3	NA	0.0000		9999	1900	0	0	0
2019/05/25 04:15:00	BASE	2.90	205	5.50	214	-5.4	83	-7.8	0	0	979.3	NA	0.0000		9999	1800	0	0	0
2019/05/25 04:16:00	BASE	3.20	206	5.50	214	-5.4	83	-7.8	0	0	979.3	NA	0.0000		9999	1840	0	0	0
2019/05/25 04:17:00	BASE	4.40	214	5.56	220	-5.4	83	-7.8	0	0	979.2	NA	0.0000		9999	1870	0	0	0
2019/05/25 04:18:00	BASE	5.66	222	7.05	228	-5.4	83	-7.8	0	0	979.2	NA	0.0000		9999	1940	0	0	0
2019/05/25 04:19:00	BASE	6.37	216	7.36	222	-5.3	83	-7.8	0	0	979.2	NA	0.0000		9999	1840	0	0	0
2019/05/25 04:20:00	BASE	4.90	227	7.36	222	-5.3	83	-7.8	0	0	979.2	NA	0.0000		9999	1740	0	0	0
2019/05/25 04:21:00	BASE	2.11	258	7.36	222	-5.3	83	-7.7	0	0	979.2	NA	0.0000		9999	1840	0	0	0
2019/05/25 04:22:00	BASE	1.22	309	7.36	222	-5.3	83	-7.7	0	0	979.2	NA	0.0000		9999	1770	0	0	0
2019/05/25 04:23:00	BASE	1.62	336	7.36	222	-5.3	83	-7.7	0	0	979.2	NA	0.0000		9999	1740	0	0	0
2019/05/25 04:24:00	BASE	1.29	298	7.36	222	-5.3	83	-7.7	0	0	979.2	NA	0.0000		9999	1770	0	0	0
2019/05/25 04:25:00	BASE	1.81	271	7.36	222	-5.3	83	-7.7	0	0	979.2	NA	0.0000		9999	1840	0	0	0
2019/05/25 04:26:00	BASE	3.17	255	7.36	222	-5.3	83	-7.7	0	0	979.2	NA	0.0000		9999	1840	0	0	0
2019/05/25 04:27:00	BASE	4.10	236	7.36	222	-5.3	83	-7.7	0	0	979.2	NA	0.0000		9999	1840	0	0	0
2019/05/25 04:28:00	BASE	4.71	231	7.36	222	-5.3	83	-7.7	0	0	979.2	NA	0.0000		9999	1840	0	0	0
2019/05/25 04:29:00	BASE	4.65	232	6.94	235	-5.3	83	-7.7	0	0	979.2	NA	0.0000		9999	1840	0	0	0
2019/05/25 04:30:00	BASE	4.41	235	5.61	229	-5.3	83	-7.7	0	0	979.2	NA	0.0000		9999	1800	0	0	0
2019/05/25 04:31:00	BASE	4.96	238	6.02	246	-5.3	83	-7.7	0	0	979.2	NA	0.0000		9999	1770	0	0	0
2019/05/25 04:32:00	BASE	4.47	227	6.02	246	-5.3	83	-7.6	0	0	979.2	NA	0.0000		9999	1770	0	0	0
2019/05/25 04:33:00	BASE	4.23	214	6.02	246	-5.3	84	-7.6	0	0	979.2	NA	0.0000		9999	1740	0	0	0
2019/05/25 04:34:00	BASE	5.18	208	6.89	201	-5.3	84	-7.6	0	0	979.2	NA	0.0000		9999	1770	0	0	0
2019/05/25 04:35:00	BASE	5.92	199	7.15	187	-5.3	84	-7.5	0	0	979.2	NA	0.0000		9999	1770	0	0	0
2019/05/25 04:36:00	BASE	6.38	191	7.72	191	-5.3	84	-7.5	0	0	979.2	NA	0.0000		9999	1710	0	0	0
2019/05/25 04:37:00	BASE	5.95	186	7.72	191	-5.3	85	-7.5	0	0	979.2	NA	0.0000		9999	1670	0	0	0
2019/05/25 04:38:00	BASE	5.68	190	7.72	191	-5.4	85	-7.5	0	0	979.2	NA	0.0000		9999	1770	0	0	0
2019/05/25 04:39:00	BASE	5.50	194	7.72	191	-5.4	85	-7.5	0	0	979.2	NA	0.0000		9999	1900	0	0	0
2019/05/25 04:40:00	BASE	4.95	186	7.72	191	-5.5	85	-7.6	0	0	979.2	NA	0.0000		9999	1840	0	0	0
2019/05/25 04:41:00	BASE	4.86	178	7.72	191	-5.5	85	-7.6	0	0	979.2	NA	0.0000		9999	1740	0	0	0
2019/05/25 04:42:00	BASE	5.00	183	7.72	191	-5.5	85	-7.6	0	0	979.2	NA	0.0000		9999	1800	0	0	0
2019/05/25 04:43:00	BASE	4.76	187	7.72	191	-5.5	86	-7.6	0	0	979.2	NA	0.0000		9999	1710	0	0	0
2019/05/25 04:44:00	BASE	4.07	185	7.72	191	-5.6	86	-7.6	0	0	979.2	NA	0.0000		9999	1800	0	0	0
2019/05/25 04:45:00	BASE	3.02	184	7.72	191	-5.6	86	-7.5	0	0	979.2	NA	0.0000		9999	1800	0	0	0
2019/05/25 04:46:00	BASE	2.55	183	6.69	192	-5.6	86	-7.5	0	0	979.2	NA	0.0000		9999	1870	0	0	0
2019/05/25 04:47:00	BASE	2.65	186	6.69	192	-5.6	86	-7.5	0	0	979.2	NA	0.0000		9999	1800	0	0	0
2019/05/25 04:48:00	BASE	2.55	185	6.69	192	-5.6	86	-7.5	0	0	979.2	NA	0.0000		9999	1940	0	0	0
2019/05/25 04:49:00	BASE	2.63	184	6.69	192	-5.6	86	-7.5	0	0	979.2	NA	0.0000		9999	1800	0	0	0
2019/05/25 04:50:00	BASE	2.58	185	6.69	192	-5.6	86	-7.5	0	0	979.2	NA	0.0000		9999	1770	0	0	0
2019/05/25 04:51:00	BASE	2.27	180	6.69	192	-5.5	86	-7.5	0	0	979.2	NA	0.0000		9999	1770	0	0	0
2019/05/25 04:52:00	BASE	2.15	177	5.45	183	-5.5	86	-7.5	0	0	979.2	NA	0.0000		9999	1770	0	0	0
2019/05/25 04:53:00	BASE	3.47	183	5.92	183	-5.5	86	-7.5	0	0	979.2	NA	0.0000		9999	1840	0	0	0
2019/05/25 04:54:00	BASE	4.37	187	5.92	183	-5.5	86	-7.5	0	0	979.2	NA	0.0000		9999	1870	0	0	0
2019/05/25 04:55:00	BASE	4.46	188	6.12	193	-5.5	86	-7.5	0	0	979.2	NA	0.0000		9999	1840	0	0	0
2019/05/25 04:56:00	BASE	5.20	191	6.12	193	-5.5	86	-7.5	0	0	979.2	NA	0.0000		9999	1840	0	0	0
2019/05/25 04:57:00	BASE	5.44	205	6.33	228	-5.5	86	-7.4	0	0	979.2	NA	0.0000		9999	1770	0	0	0
2019/05/25 04:58:00	BASE	5.14	226	6.33	228	-5.5	86	-7.4	0	0	979.2	NA	0.0000		9999	1770	0	0	0
2019/05/25 04:59:00	BASE	3.88	239	6.33	228	-5.4	86	-7.4	0	0	979.2	NA	0.0000		9999	1800	0	0	0
2019/05/25 05:00:00	BASE	2.12	250	6.33	228	-5.4	86	-7.4	0	0	979.2	NA	0.0000		9999	1800	0	0	0
2019/05/25 05:01:00	BASE	2.33	249	6.33	228	-5.4	86	-7.4	0	0	979.2	NA	0.0000		9999	1770	0	0	0
2019/05/25 05:02:00	BASE	5.85	229	10.19	215	-5.4	86	-7.4	0	0	979.2	NA	0.0000		9999	2130	0	0	0
2019/05/25 05:03:01	BASE	8.18	234	10.19	215	-5.4	86	-7.4	0	0	979.2	NA	0.0000		9999	1840	0	0	0
2019/05/25 05:04:01	BASE	7.18	255	10.19	215	-5.4	86	-7.4	0	0	979.2	NA	0.0000		9999	1800	0	0	0
2019/05/25 05:05:01	BASE	6.01	259	10.19	215	-5.4	86	-7.4	0	0	979.2	NA	0.0000		9999	1870	0	0	0
2019/05/25 05:06:01	BASE	5.72	261	10.19	215	-5.4	86	-7.4	0	0	979.2	NA	0.0000		9999	1840	0	0	0
2019/05/25 05:07:01	BASE	5.99	250	10.19	215	-5.4	86	-7.4	0	0	979.2	NA	0.0000		9999	1740	0	0	0
2019/05/25 05:08:01	BASE	5.95	238	10.19	215	-5.4	85	-7.5	0	0	979.2	NA	0.0000		9999	1800	0	0	0
2019/05/25 05:09:01	BASE	6.17	233	10.19	215	-5.4	85	-7.5	0	0	979.2	NA	0.0000		9999	1800	0	0	0
2019/05/25 05:10:01	BASE	7.72	233	10.19	215	-5.4	85	-7.5	0	0	979.2	NA	0.0000		9999	1800	0	0	0
2019/05/25 05:11:01	BASE	9.57	234	11.63	235	-5.3	85	-7.5	0	0	979.2	NA	0.0000		9999	1770	0	0	0
2019/05/25 05:12:01	BASE	10.06	227	11.63	235	-5.3	85	-7.4	0	0	979.2	NA	0.0000		9999	1740	0	0	0
2019/05/25 05:13:01	BASE	10.18	224	11.63	235	-5.3	85	-7.4	0	0	979.2	NA	0.0000		9999	1770	0	0	0
2019/05/25 05:14:01	BASE	10.63	224	11.63	235	-5.3	85	-7.4	0	0	979.2	NA	0.0000		9999	1840	0	0	0
2019/05/25 05:15:01	BASE	10.65	223	11.63	235	-5.3	85	-7.4	0	0	979.2	NA	0.0000		9999	1940	0	0	0
2019/05/25 05:16:01	BASE	11.11	225	13.12	230	-5.3	85	-7.4	0	0	979.2	NA	0.0000		9999	1900	0	0	0
2019/05/25 05:17:01	BASE	11.07	226	13.12	230	-5.3	85	-7.4	0	0	979.2	NA	0.0000		9999	1900	0	0	0
2019/05/25 05:18:01	BASE	10.63	225	13.12	230	-5.3	85	-7.4	0	0	979.2	NA	0.0000		9999	1840	0	0	0
2019/05/25 05:19:01	BASE	11.20	230	13.27	234	-5.3	85	-7.4	0	0	979.2	NA	0.0000		9999	1800	0	0	0
2019/05/25 05:20:01	BASE	12.36	231	13.94	230	-5.3	85	-7.4	0	0	979.2	NA	0.0000		9999	1870	0	0	0
2019/05/25 05:21:01	BASE	12.55	227	13.94	230	-5.3	85	-7.5	0	0	979.3	NA	0.0000		9999	1870	0	0	0
2019/05/25 05:22:01	BASE	11.43	225	13.94	230	-5.4	85	-7.5	0	0	979.3	NA	0.0000		9999	1800	0	0	0
2019/05/25 05:23:01	BASE	10.75	225	13.94	230	-5.4	85	-7.5	0	0	979.3	NA	0.0000		9999	1840	0	0	0
2019/05/25 05:24:01	BASE	11.16	223	13.94	230	-5.4	85	-7.5	0	0	979.3	NA	0.0000		9999	1870	0	0	0
2019/05/25 05:25:01	BASE	11.46	222	13.94	230	-5.4	86	-7.5	0	0	979.4	NA	0.0000		9999	1770	0	0	0
2019/05/25 05:26:01	BASE	9.94	223	13.94	230	-5.5	86	-7.5	0	0	979.5	NA	0.0000		9999	1900	0	0	0
2019/05/25 05:27:01	BASE	8.16	221	13.94	230	-5.5	86	-7.5	0	0	979.5	NA	0.0000		9999	1840	0	0	0
2019/05/25 05:28:01	BASE	7.83	226	13.94	230	-5.5	85	-7.5	0	0	979.5	NA	0.0000		9999	1840	0	0	0
2019/05/25 05:29:01	BASE	8.50	232	13.94	230	-5.5	85	-7.6	0	0	979.5	NA	0.0000		9999	1940	0	0	0
2019/05/25 05:30:01	BASE	9.75	229	12.81	221	-5.4	85	-7.6	0	0	979.5	NA	0.0000		9999	2000	0	0	0
2019/05/25 05:31:01	BASE	10.33	229	12.35	222	-5.4	85	-7.6	0	0	979.5	NA	0.0000		9999	2070	0	0	0
2019/05/25 05:32:01	BASE	9.48	229	12.35	222	-5.4	85	-7.6	0	0	979.5	NA	0.0000		9999	2030	0	0	0
2019/05/25 05:33:01	BASE	9.02	229	12.09	224	-5.5	85	-7.6	0	0	979.5	NA	0.0000		9999	2000	0	0	0
2019/05/25 05:34:01	BASE	10.26	227	12.09	221	-5.5	85	-7.6	0	0	979.4	NA	0.0000		9999	1970	0	0	0
2019/05/25 05:35:01	BASE	11.71	222	13.12	218	-5.5	85	-7.7	0	0	979.4	NA	0.0000		9999	1840	0	0	0
2019/05/25 05:36:01	BASE	11.62	226	13.12	218	-5.5	84	-7.8	0	0	979.3	NA	0.0000		9999	1900	0	0	0
2019/05/25 05:37:01	BASE	10.58	227	13.12	218	-5.6	84	-7.8	0	0	979.4	NA	0.0000		9999	1900	0	0	0
2019/05/25 05:38:01	BASE	10.87	230	13.22	230	-5.6	84	-7.9	0	0	979.4	NA	0.0000		9999	1940	0	0	0
2019/05/25 05:39:01	BASE	11.35	238	13.22	230	-5.6	84	-7.9	0	0	979.4	NA	0.0000		9999	1800	0	0	0
2019/05/25 05:40:01	BASE	10.27	230	13.22	230	-5.6	84	-7.9	0	0	979.5	NA	0.0000		9999	1740	0	0	0
2019/05/25 05:41:01	BASE	8.50	218	13.22	230	-5.7	84	-8.0	0	0	979.5	NA	0.0000		9999	1940	0	0	0
2019/05/25 05:42:01	BASE	8.05	219	13.22	230	-5.7	84	-8.0	0	0	979.4	NA	0.0000		9999	1840	0	0	0
2019/05/25 05:43:01	BASE	8.37	226	13.22	230	-5.7	84	-8.0	0	0	979.3	NA	0.0000		9999	1940	0	0	0
2019/05/25 05:44:01	BASE	9.31	226	13.22	230	-5.7	84	-8.0	0	0	979.3	NA	0.0000		9999	1870	0	0	0
2019/05/25 05:45:01	BASE	10.53	225	13.22	230	-5.7	84	-8.0	0	0	979.3	NA	0.0000		9999	1900	0	0	0
2019/05/25 05:46:01	BASE	11.02	231	13.22	230	-5.6	84	-7.9	0	0	979.3	NA	0.0000		9999	1870	0	0	0
2019/05/25 05:47:01	BASE	10.54	239	13.22	230	-5.6	84	-7.9	0	0	979.4	NA	0.0000		9999	1840	0	0	0
2019/05/25 05:48:01	BASE	8.98	241	13.17	224	-5.6	84	-7.9	0	0	979.5	NA	0.0000		9999	1900	0	0	0
2019/05/25 05:49:01	BASE	7.30	241	13.17	224	-5.6	84	-7.9	0	0	979.5	NA	0.0000		9999	1740	0	0	0
2019/05/25 05:50:01	BASE	6.17	246	13.17	224	-5.7	84	-7.9	0	0	979.5	NA	0.0000		9999	1710	0	0	0
2019/05/25 05:51:01	BASE	5.30	264	13.17	224	-5.7	84	-8.0	0	0	979.4	NA	0.0000		9999	1740	0	0	0
2019/05/25 05:52:01	BASE	4.66	275	13.17	224	-5.8	84	-8.0	0	0	979.3	NA	0.0000		9999	1710	0	0	0
2019/05/25 05:53:01	BASE	4.36	274	13.17	224	-5.8	84	-8.0	0	0	979.3	NA	0.0000		9999	1800	0	0	0
2019/05/25 05:54:01	BASE	3.29	271	13.17	224	-5.8	84	-8.1	0	0	979.3	NA	0.0000		9999	1840	0	0	0
2019/05/25 05:55:01	BASE	2.77	253	13.02	230	-5.8	84	-8.1	0	0	979.3	NA	0.0000		9999	1840	0	0	0
2019/05/25 05:56:01	BASE	3.12	233	10.55	245	-5.8	84	-8.1	0	0	979.3	NA	0.0000		9999	1840	0	0	0
2019/05/25 05:57:01	BASE	3.76	216	9.72	237	-5.8	84	-8.0	0	0	979.3	NA	0.0000		9999	1770	0	0	0
2019/05/25 05:58:01	BASE	5.11	207	7.00	250	-5.7	84	-8.0	0	0	979.3	NA	0.0000		9999	1770	0	0	0
2019/05/25 05:59:01	BASE	6.20	211	7.41	218	-5.7	84	-8.0	0	0	979.3	NA	0.0000		9999	1740	0	0	0
2019/05/25 06:00:01	BASE	7.35	212	10.19	215	-5.7	84	-7.9	0	0	979.3	NA	0.0000		9999	1740	0	0	0
2019/05/25 06:01:01	BASE	8.03	215	10.19	215	-5.7	85	-7.8	0	0	979.3	NA	0.0000		9999	1740	0	0	0
2019/05/25 06:02:01	BASE	7.60	216	10.19	215	-5.7	85	-7.8	0	0	979.3	NA	0.0000		9999	1670	0	0	0
2019/05/25 06:03:00	BASE	6.61	217	10.19	215	-5.7	85	-7.8	0	0	979.3	NA	0.0000		9999	1570	0	0	0
2019/05/25 06:04:01	BASE	5.89	219	10.19	215	-5.6	85	-7.8	0	0	979.3	NA	0.0000		9999	1570	0	0	0
2019/05/25 06:05:00	BASE	5.77	222	10.19	215	-5.7	85	-7.8	0	0	979.3	NA	0.0000		9999	1710	0	0	0
2019/05/25 06:06:01	BASE	6.27	221	10.19	215	-5.7	85	-7.8	0	0	979.3	NA	0.0000		9999	1770	0	0	0
2019/05/25 06:07:00	BASE	7.21	210	10.19	215	-5.7	85	-7.8	0	0	979.3	NA	0.0000		9999	1740	0	0	0
2019/05/25 06:08:00	BASE	7.57	205	10.19	215	-5.6	85	-7.8	0	0	979.3	NA	0.0000		9999	1740	0	0	0
2019/05/25 06:09:00	BASE	7.34	204	10.19	215	-5.7	85	-7.8	0	0	979.3	NA	0.0000		9999	1740	0	0	0
2019/05/25 06:10:00	BASE	6.69	200	9.31	205	-5.7	85	-7.8	0	0	979.3	NA	0.0000		9999	1770	0	0	0
2019/05/25 06:11:00	BASE	6.47	205	9.31	205	-5.7	85	-7.8	0	0	979.3	NA	0.0000		9999	1770	0	0	0
2019/05/25 06:12:01	BASE	7.38	213	9.88	237	-5.7	85	-7.8	0	0	979.3	NA	0.0000		9999	1710	0	0	0
2019/05/25 06:13:00	BASE	7.66	219	9.88	237	-5.7	85	-7.8	0	0	979.3	NA	0.0000		9999	1640	0	0	0
2019/05/25 06:14:01	BASE	7.04	226	9.88	237	-5.7	85	-7.7	0	0	979.3	NA	0.0000		9999	1610	0	0	0
2019/05/25 06:15:00	BASE	6.71	237	9.88	237	-5.7	86	-7.7	0	0	979.3	NA	0.0000		9999	1670	0	0	0
2019/05/25 06:16:01	BASE	5.99	232	9.88	237	-5.7	86	-7.7	0	0	979.3	NA	0.0000		9999	1670	0	0	0
2019/05/25 06:17:00	BASE	5.41	221	9.88	237	-5.7	86	-7.7	0	0	979.3	NA	0.0000		9999	1670	0	0	0
2019/05/25 06:18:01	BASE	4.60	217	9.88	237	-5.7	86	-7.7	0	0	979.3	NA	0.0000		9999	1670	0	0	0
2019/05/25 06:19:00	BASE	4.35	215	9.88	237	-5.7	86	-7.7	0	0	979.2	NA	0.0000		9999	1710	0	0	0
2019/05/25 06:20:00	BASE	5.62	213	9.88	237	-5.7	86	-7.7	0	0	979.2	NA	0.0000		9999	1670	0	0	0
2019/05/25 06:21:00	BASE	7.23	216	9.88	237	-5.7	86	-7.7	0	0	979.3	NA	0.0000		9999	1670	0	0	0
2019/05/25 06:22:00	BASE	7.77	218	8.85	225	-5.8	86	-7.7	0	0	979.3	NA	0.0000		9999	1640	0	0	0
2019/05/25 06:23:01	BASE	6.20	206	8.85	225	-5.8	86	-7.7	0	0	979.3	NA	0.0000		9999	1570	0	0	0
2019/05/25 06:24:00	BASE	5.10	200	8.85	225	-5.8	86	-7.7	0	0	979.2	NA	0.0000		9999	1640	0	0	0
2019/05/25 06:25:00	BASE	5.83	195	8.85	225	-5.8	86	-7.7	0	0	979.2	NA	0.0000		9999	1610	0	0	0
2019/05/25 06:26:00	BASE	5.72	189	8.85	225	-5.8	86	-7.8	0	0	979.2	NA	0.0000		9999	1610	0	0	0
2019/05/25 06:27:00	BASE	4.59	192	8.85	225	-5.8	86	-7.8	0	0	979.2	NA	0.0000		9999	1640	0	0	0
2019/05/25 06:28:00	BASE	4.84	207	8.85	225	-5.8	86	-7.8	0	0	979.2	NA	0.0000		9999	1710	0	0	0
2019/05/25 06:29:00	BASE	7.05	218	9.11	207	-5.8	86	-7.7	0	0	979.2	NA	0.0000		9999	1710	0	0	0
2019/05/25 06:30:00	BASE	9.15	220	10.24	224	-5.8	86	-7.7	0	0	979.2	NA	0.0000		9999	1710	0	0	0
2019/05/25 06:31:00	BASE	9.42	226	10.24	224	-5.8	87	-7.6	0	0	979.2	NA	0.0000		9999	1740	0	0	0
2019/05/25 06:32:00	BASE	9.00	226	10.91	216	-5.8	87	-7.7	0	0	979.2	NA	0.0000		9999	1710	0	0	0
2019/05/25 06:33:00	BASE	9.39	219	10.96	217	-5.8	87	-7.6	0	0	979.2	NA	0.0000		9999	1710	0	0	0
2019/05/25 06:34:00	BASE	9.15	216	10.96	217	-5.8	87	-7.7	0	0	979.2	NA	0.0000		9999	1710	0	0	0
2019/05/25 06:35:00	BASE	7.50	220	10.96	217	-5.9	86	-7.8	0	0	979.2	NA	0.0000		9999	1710	0	0	0
2019/05/25 06:36:01	BASE	6.15	225	10.96	217	-5.9	86	-7.8	0	0	979.2	NA	0.0000		9999	1710	0	0	0
2019/05/25 06:37:01	BASE	6.24	225	10.96	217	-5.9	86	-7.8	0	0	979.2	NA	0.0000		9999	1770	0	0	0
2019/05/25 06:38:01	BASE	7.49	227	10.96	217	-5.9	86	-7.8	0	0	979.2	NA	0.0000		9999	1770	0	0	0
2019/05/25 06:39:01	BASE	8.04	232	10.96	217	-5.9	86	-7.8	0	0	979.2	NA	0.0000		9999	1740	0	0	0
2019/05/25 06:40:01	BASE	6.31	231	10.96	217	-5.9	86	-7.8	0	0	979.2	NA	0.0000		9999	1740	0	0	0
2019/05/25 06:41:01	BASE	4.86	228	10.96	217	-5.9	86	-7.9	0	0	979.2	NA	0.0000		9999	1840	0	0	0
2019/05/25 06:42:01	BASE	5.57	225	10.96	217	-5.9	86	-7.9	0	0	979.2	NA	0.0000		9999	1900	0	0	0
2019/05/25 06:43:01	BASE	7.13	225	10.19	238	-5.9	85	-8.0	0	0	979.2	NA	0.0000		9999	1970	0	0	0
2019/05/25 06:44:01	BASE	9.11	228	12.04	228	-5.9	85	-8.0	0	0	979.2	NA	0.0000		9999	1840	0	0	0
2019/05/25 06:45:01	BASE	9.78	238	12.04	228	-5.9	85	-8.0	0	0	979.2	NA	0.0000		9999	1770	0	0	0
2019/05/25 06:46:01	BASE	8.97	243	12.04	228	-5.9	85	-8.0	0	0	979.2	NA	0.0000		9999	1740	0	0	0
2019/05/25 06:47:00	BASE	8.78	243	12.04	228	-5.9	85	-8.1	0	0	979.2	NA	0.0000		9999	1710	0	0	0
2019/05/25 06:48:00	BASE	8.43	246	12.04	228	-5.9	84	-8.2	0	0	979.2	NA	0.0000		9999	1670	0	0	0
2019/05/25 06:49:00	BASE	7.29	245	12.04	228	-6.0	84	-8.2	0	0	979.2	NA	0.0000		9999	1840	0	0	0
2019/05/25 06:50:00	BASE	7.10	238	12.04	228	-6.0	84	-8.2	0	0	979.2	NA	0.0000		9999	1840	0	0	0
2019/05/25 06:51:00	BASE	6.99	231	12.04	228	-6.0	84	-8.2	0	0	979.2	NA	0.0000		9999	1970	0	0	0
2019/05/25 06:52:00	BASE	6.50	230	12.04	228	-6.0	84	-8.2	0	0	979.2	NA	0.0000		9999	1970	0	0	0
2019/05/25 06:53:01	BASE	6.56	230	12.04	228	-5.9	84	-8.2	0	0	979.2	NA	0.0000		9999	1940	0	0	0
2019/05/25 06:54:00	BASE	6.38	234	10.70	242	-5.9	84	-8.2	0	0	979.2	NA	0.0000		9999	2000	0	0	0
2019/05/25 06:55:00	BASE	5.98	245	10.65	243	-5.9	84	-8.3	0	0	979.2	NA	0.0000		9999	1870	0	0	0
2019/05/25 06:56:01	BASE	5.86	254	10.65	243	-6.0	83	-8.3	0	0	979.2	NA	0.0000		9999	1870	0	0	0
2019/05/25 06:57:00	BASE	5.50	255	8.54	231	-6.0	83	-8.4	0	0	979.2	NA	0.0000		9999	1970	0	0	0
2019/05/25 06:58:01	BASE	5.48	252	8.54	231	-6.0	83	-8.4	0	0	979.2	NA	0.0000		9999	2100	0	0	0
2019/05/25 06:59:00	BASE	5.59	252	8.54	231	-6.0	83	-8.5	0	0	979.2	NA	0.0000		9999	2130	0	0	0
2019/05/25 07:00:00	BASE	5.39	260	7.31	230	-6.0	82	-8.5	0	0	979.2	NA	0.0000		9999	2030	0	0	0
2019/05/25 07:01:00	BASE	5.24	266	7.31	230	-6.0	82	-8.5	0	0	979.1	NA	0.0000		9999	1940	0	0	0
2019/05/25 07:02:01	BASE	4.43	265	7.31	230	-6.0	82	-8.5	0	0	979.2	NA	0.0000		9999	2130	0	0	0
2019/05/25 07:03:00	BASE	4.02	262	7.20	249	-6.0	82	-8.5	0	0	979.2	NA	0.0000		9999	2230	0	0	0
2019/05/25 07:04:01	BASE	3.62	256	7.20	249	-5.9	82	-8.5	0	0	979.2	NA	0.0000		9999	2260	0	0	0
2019/05/25 07:05:01	BASE	3.59	259	7.05	254	-6.0	82	-8.5	0	0	979.2	NA	0.0000		9999	1940	0	0	0
2019/05/25 07:06:01	BASE	3.92	264	7.05	254	-6.0	82	-8.5	0	0	979.2	NA	0.0000		9999	2070	0	0	0
2019/05/25 07:07:00	BASE	3.80	266	7.05	254	-6.0	82	-8.5	0	0	979.2	NA	0.0000		9999	1870	0	0	0
2019/05/25 07:08:00	BASE	3.31	263	6.02	291	-6.0	82	-8.5	0	0	979.2	NA	0.0000		9999	1870	0	0	0
2019/05/25 07:09:00	BASE	2.71	251	6.02	291	-6.0	82	-8.6	0	0	979.2	NA	0.0000		9999	1900	0	0	0
2019/05/25 07:10:00	BASE	2.98	243	5.56	261	-6.0	82	-8.6	0	0	979.2	NA	0.0000		9999	1900	0	0	0
2019/05/25 07:11:00	BASE	2.60	243	5.20	251	-6.0	82	-8.6	0	0	979.2	NA	0.0000		9999	2030	0	0	0
2019/05/25 07:12:00	BASE	1.95	241	5.20	251	-6.0	82	-8.6	0	0	979.2	NA	0.0000		9999	1900	0	0	0
2019/05/25 07:13:00	BASE	2.01	233	5.04	280	-6.0	82	-8.6	0	0	979.2	NA	0.0000		9999	1900	0	0	0
2019/05/25 07:14:00	BASE	2.37	224	5.04	280	-6.0	82	-8.6	0	0	979.2	NA	0.0000		9999	1900	0	0	0
2019/05/25 07:15:00	BASE	3.36	207	4.89	188	-6.0	82	-8.6	0	0	979.2	NA	0.0000		9999	1870	0	0	0
2019/05/25 07:16:01	BASE	3.87	202	4.89	188	-6.0	82	-8.5	0	0	979.2	NA	0.0000		9999	1900	0	0	0
2019/05/25 07:17:00	BASE	3.41	202	4.89	188	-6.0	82	-8.5	0	0	979.2	NA	0.0000		9999	2070	0	0	0
2019/05/25 07:18:01	BASE	3.08	198	4.89	188	-5.9	82	-8.5	0	0	979.2	NA	0.0000		9999	2000	0	0	0
2019/05/25 07:19:00	BASE	2.62	195	4.89	188	-5.9	82	-8.5	0	0	979.2	NA	0.0000		9999	2030	0	0	0
2019/05/25 07:20:00	BASE	2.56	191	4.89	188	-5.9	82	-8.5	0	0	979.2	NA	0.0000		9999	2330	0	0	0
2019/05/25 07:21:00	BASE	2.41	199	4.89	188	-5.9	82	-8.5	0	0	979.2	NA	0.0000		9999	2200	0	0	0
2019/05/25 07:22:01	BASE	1.65	198	4.89	188	-5.9	82	-8.5	0	0	979.2	NA	0.0000		9999	2360	0	0	0
2019/05/25 07:23:01	BASE	0.99	187	4.89	188	-5.9	82	-8.5	0	0	979.2	NA	0.0000		9999	2430	0	0	0
2019/05/25 07:24:00	BASE	0.65	192	4.89	188	-5.9	82	-8.5	0	0	979.2	NA	0.0000		9999	2070	2620	0	0
2019/05/25 07:25:00	BASE	1.20	207	4.37	204	-5.9	82	-8.5	0	0	979.2	NA	0.0000		9999	2660	0	0	0
2019/05/25 07:26:01	BASE	2.86	209	5.30	199	-5.9	82	-8.5	0	0	979.2	NA	0.0000		9999	2590	0	0	0
2019/05/25 07:27:00	BASE	4.34	203	5.45	207	-5.9	82	-8.5	0	0	979.1	NA	0.0000		9999	2200	2660	0	0
2019/05/25 07:28:01	BASE	4.59	206	5.45	207	-5.9	82	-8.5	0	0	979.1	NA	0.0000		9999	2170	0	0	0
2019/05/25 07:29:00	BASE	4.37	209	5.45	207	-5.9	82	-8.5	0	0	979.1	NA	0.0000		9999	2430	0	0	0
2019/05/25 07:30:00	BASE	4.21	201	5.45	207	-5.9	82	-8.5	0	0	979.1	NA	0.0000		9999	2300	0	0	0
2019/05/25 07:31:00	BASE	4.61	197	6.12	199	-5.8	81	-8.5	0	0	979.1	NA	0.0000		9999	2300	0	0	0
2019/05/25 07:32:01	BASE	4.97	198	6.12	199	-5.8	81	-8.5	0	0	979.1	NA	0.0000		9999	2360	0	0	0
2019/05/25 07:33:00	BASE	4.61	205	6.12	199	-5.8	81	-8.6	0	0	979.0	NA	0.0000		9999	2300	0	0	0
2019/05/25 07:34:00	BASE	4.36	204	6.12	199	-5.8	81	-8.6	0	0	979.0	NA	0.0000		9999	2200	0	0	0
2019/05/25 07:35:00	BASE	3.94	203	6.12	199	-5.8	80	-8.6	0	0	979.0	NA	0.0000		9999	2200	0	0	0
2019/05/25 07:36:01	BASE	3.47	209	6.12	199	-5.8	80	-8.7	0	0	979.0	NA	0.0000		9999	2230	0	0	0
2019/05/25 07:37:00	BASE	3.32	205	6.12	199	-5.8	80	-8.8	0	0	979.0	NA	0.0000		9999	2230	0	0	0
2019/05/25 07:38:01	BASE	3.05	200	6.12	199	-5.8	79	-8.8	0	0	979.0	NA	0.0000		9999	2200	0	0	0
2019/05/25 07:39:00	BASE	2.86	201	6.12	199	-5.8	79	-8.9	0	0	979.0	NA	0.0000		9999	2300	0	0	0
2019/05/25 07:40:01	BASE	2.74	198	6.12	199	-5.8	79	-8.9	0	0	979.0	NA	0.0000		9999	2300	0	0	0
2019/05/25 07:41:00	BASE	2.77	191	5.76	196	-5.8	78	-9.0	0	0	979.0	NA	0.0000		9999	2230	0	0	0
2019/05/25 07:42:00	BASE	3.09	193	5.50	206	-5.8	78	-9.0	0	0	979.0	NA	0.0000		9999	2200	0	0	0
2019/05/25 07:43:00	BASE	4.13	202	5.97	214	-5.8	78	-9.0	0	0	979.0	NA	0.0000		9999	2230	0	0	0
2019/05/25 07:44:00	BASE	5.12	197	5.97	214	-5.8	78	-9.0	0	0	979.0	NA	0.0000		9999	2330	0	0	0
2019/05/25 07:45:00	BASE	4.61	192	5.97	214	-5.8	78	-9.0	0	0	979.1	NA	0.0000		9999	2230	0	0	0
2019/05/25 07:46:01	BASE	3.84	198	5.97	214	-5.8	78	-9.0	0	0	979.1	NA	0.0000		9999	2200	0	0	0
2019/05/25 07:47:00	BASE	4.28	202	5.97	214	-5.8	78	-8.9	0	0	979.1	NA	0.0000		9999	2330	0	0	0
2019/05/25 07:48:01	BASE	5.21	202	6.07	200	-5.8	79	-8.9	0	0	979.2	NA	0.0000		9999	2360	0	0	0
2019/05/25 07:49:00	BASE	5.28	203	6.07	200	-5.8	79	-8.8	0	0	979.2	NA	0.0000		9999	2460	0	0	0
2019/05/25 07:50:00	BASE	5.74	204	7.25	201	-5.7	79	-8.7	0	0	979.2	NA	0.0000		9999	2660	0	0	0
2019/05/25 07:51:00	BASE	6.04	201	7.25	201	-5.7	79	-8.7	0	0	979.2	NA	0.0000		9999	2490	0	0	0
2019/05/25 07:52:00	BASE	5.09	194	7.25	201	-5.7	80	-8.7	0	0	979.2	NA	0.0000		9999	2590	0	0	0
2019/05/25 07:53:00	BASE	4.77	206	7.25	201	-5.7	80	-8.6	0	0	979.2	NA	0.0000		9999	2560	0	0	0
2019/05/25 07:54:01	BASE	5.27	217	7.25	201	-5.7	80	-8.6	0	0	979.2	NA	0.0000		9999	2590	0	0	0
2019/05/25 07:55:00	BASE	5.51	211	7.25	201	-5.7	80	-8.6	0	0	979.2	NA	0.0000		9999	2130	0	0	0
2019/05/25 07:56:00	BASE	4.99	211	7.25	201	-5.7	80	-8.6	0	0	979.3	NA	0.0000		9999	2200	0	0	0
2019/05/25 07:57:00	BASE	5.40	208	7.72	211	-5.7	80	-8.6	0	0	979.3	NA	0.0000		9999	2460	0	0	0
2019/05/25 07:58:01	BASE	6.11	207	7.72	211	-5.7	81	-8.5	0	0	979.3	NA	0.0000		9999	2070	0	0	0
2019/05/25 07:59:00	BASE	6.57	214	7.97	218	-5.7	81	-8.4	0	0	979.3	NA	0.0000		9999	2200	0	0	0
2019/05/25 08:00:00	BASE	6.62	216	8.08	213	-5.7	81	-8.4	0	0	979.3	NA	0.0000		9999	2030	0	0	0
2019/05/25 08:01:00	BASE	5.56	217	8.08	213	-5.7	81	-8.4	0	0	979.3	NA	0.0000		9999	2130	0	0	0
2019/05/25 08:02:01	BASE	5.43	218	8.08	213	-5.7	81	-8.4	0	0	979.3	NA	0.0000		9999	2130	0	0	0
2019/05/25 08:03:00	BASE	6.49	216	8.08	213	-5.7	81	-8.4	0	0	979.3	NA	0.0000		9999	1840	2360	0	0
2019/05/25 08:04:00	BASE	6.53	211	8.08	213	-5.7	81	-8.3	0	0	979.3	NA	0.0000		9999	1940	0	0	0
2019/05/25 08:05:00	BASE	6.54	205	8.08	213	-5.6	82	-8.3	0	0	979.3	NA	0.0000		9999	1940	0	0	0
2019/05/25 08:06:00	BASE	6.88	202	8.08	213	-5.6	82	-8.3	0	0	979.4	NA	0.0000		9999	1970	0	0	0
2019/05/25 08:07:00	BASE	6.31	204	8.08	213	-5.6	82	-8.2	0	0	979.4	NA	0.0000		9999	1940	0	0	0
2019/05/25 08:08:00	BASE	6.29	204	8.08	213	-5.7	82	-8.2	0	0	979.4	NA	0.0000		9999	2000	0	0	0
2019/05/25 08:09:00	BASE	6.16	203	8.08	213	-5.7	82	-8.2	0	0	979.5	NA	0.0000		9999	2070	0	0	0
2019/05/25 08:10:00	BASE	6.49	203	8.39	203	-5.7	82	-8.2	0	0	979.5	NA	0.0000		9999	2070	0	0	0
2019/05/25 08:11:00	BASE	6.97	204	8.44	208	-5.7	82	-8.2	0	0	979.5	NA	0.0000		9999	1970	0	0	0
2019/05/25 08:12:01	BASE	5.95	209	8.44	208	-5.7	82	-8.2	0	0	979.5	NA	0.0000		9999	1840	0	0	0
2019/05/25 08:13:00	BASE	4.98	208	8.44	208	-5.7	82	-8.2	0	0	979.5	NA	0.0000		9999	1840	0	0	0
2019/05/25 08:14:00	BASE	5.48	209	8.69	213	-5.7	82	-8.2	0	0	979.5	NA	0.0000		9999	1840	0	0	0
2019/05/25 08:15:00	BASE	7.05	206	9.21	188	-5.7	82	-8.2	0	0	979.5	NA	0.0000		9999	1840	0	0	0
2019/05/25 08:16:01	BASE	7.71	192	9.21	188	-5.6	83	-8.1	0	0	979.5	NA	0.0000		9999	1740	0	0	0
2019/05/25 08:17:00	BASE	7.47	179	9.21	188	-5.6	83	-8.1	0	0	979.5	NA	0.0000		9999	1870	0	0	0
2019/05/25 08:18:00	BASE	7.32	172	9.21	188	-5.6	83	-8.0	0	0	979.5	NA	0.0000		9999	1840	0	0	0
2019/05/25 08:19:00	BASE	7.13	171	9.21	188	-5.5	83	-7.9	0	0	979.6	NA	0.0000		9999	1870	0	0	0
2019/05/25 08:20:00	BASE	7.73	170	10.08	176	-5.5	84	-7.9	0	0	979.5	NA	0.0000		9999	1900	0	0	0
2019/05/25 08:21:00	BASE	8.49	173	10.08	176	-5.6	84	-7.8	0	0	979.5	NA	0.0000		9999	2000	0	0	0
2019/05/25 08:22:01	BASE	8.43	178	10.08	176	-5.6	84	-7.8	0	0	979.5	NA	0.0000		9999	2070	0	0	0
2019/05/25 08:23:00	BASE	7.57	185	10.08	176	-5.6	84	-7.9	0	0	979.5	NA	0.0000		9999	2030	0	0	0
2019/05/25 08:24:00	BASE	7.96	186	10.39	191	-5.7	84	-7.9	0	0	979.5	NA	0.0000		9999	2000	0	0	0
2019/05/25 08:25:00	BASE	9.26	187	10.60	184	-5.7	84	-7.9	0	0	979.5	NA	0.0000		9999	2000	0	0	0
2019/05/25 08:26:01	BASE	10.20	188	12.45	183	-5.7	84	-8.0	0	0	979.5	NA	0.0000		9999	2000	0	0	0
2019/05/25 08:27:00	BASE	11.47	189	12.71	194	-5.7	84	-8.0	0	0	979.4	NA	0.0000		9999	1970	0	0	0
2019/05/25 08:28:01	BASE	11.49	192	12.71	194	-5.7	84	-8.0	0	0	979.4	NA	0.0000		9999	2000	0	0	0
2019/05/25 08:29:00	BASE	10.93	193	12.71	194	-5.7	84	-7.9	0	0	979.4	NA	0.0000		9999	2130	0	0	0
2019/05/25 08:30:00	BASE	11.09	195	13.17	209	-5.6	84	-7.9	0	0	979.4	NA	0.0000		9999	2000	0	0	0
2019/05/25 08:31:00	BASE	11.06	191	13.68	206	-5.6	84	-7.9	0	0	979.4	NA	0.0000		9999	2330	0	0	0
2019/05/25 08:32:00	BASE	10.44	184	13.68	206	-5.6	84	-7.8	0	0	979.4	NA	0.0000		9999	2300	0	0	0
2019/05/25 08:33:00	BASE	11.63	186	14.97	191	-5.6	84	-7.9	0	0	979.4	NA	0.0000		9999	2300	0	0	0
2019/05/25 08:34:00	BASE	13.78	188	15.18	191	-5.6	84	-7.9	0	0	979.4	NA	0.0000		9999	2460	0	0	0
2019/05/25 08:35:00	BASE	13.03	186	15.18	191	-5.6	84	-7.9	0	0	979.4	NA	0.0000		9999	2460	0	0	0
2019/05/25 08:36:00	BASE	11.40	186	15.18	191	-5.7	84	-7.9	0	0	979.4	NA	0.0000		9999	2460	0	0	0
2019/05/25 08:37:00	BASE	10.92	186	15.18	191	-5.7	84	-8.0	0	0	979.5	NA	0.0000		9999	2460	0	0	0
2019/05/25 08:38:00	BASE	10.55	183	15.18	191	-5.7	84	-8.0	0	0	979.5	NA	0.0000		9999	2530	0	0	0
2019/05/25 08:39:00	BASE	10.06	181	15.18	191	-5.8	84	-8.1	0	0	979.5	NA	0.0000		9999	2430	0	0	0
2019/05/25 08:40:00	BASE	10.18	187	15.18	191	-5.8	84	-8.1	0	0	979.5	NA	0.0000		9999	2430	0	0	0
2019/05/25 08:41:00	BASE	10.91	198	15.18	191	-5.8	83	-8.1	0	0	979.5	NA	0.0000		9999	2560	0	0	0
2019/05/25 08:42:00	BASE	11.98	203	15.18	191	-5.8	83	-8.2	0	0	979.5	NA	0.0000		9999	2070	2660	0	0
2019/05/25 08:43:00	BASE	12.24	198	15.18	191	-5.8	83	-8.2	0	0	979.5	NA	0.0000		9999	2330	0	0	0
2019/05/25 08:44:00	BASE	11.28	187	13.58	208	-5.8	83	-8.2	0	0	979.5	NA	0.0000		9999	2460	3120	0	0
2019/05/25 08:45:00	BASE	10.36	188	13.58	208	-5.8	83	-8.2	0	0	979.6	NA	0.0000		9999	2620	3120	0	0
2019/05/25 08:46:00	BASE	9.41	184	13.58	208	-5.8	83	-8.2	0	0	979.6	NA	0.0000		9999	3080	0	0	0
2019/05/25 08:47:00	BASE	9.46	186	13.58	208	-5.8	83	-8.3	0	0	979.6	NA	0.0000		9999	2920	0	0	0
2019/05/25 08:48:00	BASE	9.94	195	13.58	208	-5.9	83	-8.3	0	0	979.6	NA	0.0000		9999	2920	0	0	0
2019/05/25 08:49:00	BASE	9.74	196	13.58	208	-5.9	83	-8.3	0	0	979.6	NA	0.0000		9999	2820	0	0	0
2019/05/25 08:50:00	BASE	9.88	200	13.58	208	-5.9	83	-8.3	0	0	979.6	NA	0.0000		9999	2720	0	0	0
2019/05/25 08:51:00	BASE	9.86	202	13.58	208	-5.9	83	-8.3	0	0	979.6	NA	0.0000		9999	2790	0	0	0
2019/05/25 08:52:00	BASE	9.55	200	12.66	204	-5.9	83	-8.3	0	0	979.7	NA	0.0000		9999	2720	0	0	0
2019/05/25 08:53:00	BASE	9.60	202	12.66	204	-5.9	83	-8.3	0	0	979.7	NA	0.0000		9999	2720	0	0	0
2019/05/25 08:54:00	BASE	9.81	200	12.66	204	-5.8	83	-8.3	0	0	979.6	NA	0.0000		9999	2660	0	0	0
2019/05/25 08:55:01	BASE	9.56	193	12.66	204	-5.8	83	-8.3	0	0	979.7	NA	0.0000		9999	2620	3350	0	0
2019/05/25 08:56:00	BASE	9.53	190	12.66	204	-5.8	82	-8.3	0	0	979.7	NA	0.0000		9999	2620	0	0	0
2019/05/25 08:57:00	BASE	9.95	197	12.66	204	-5.8	82	-8.3	0	0	979.7	NA	0.0000		9999	2430	0	0	0
2019/05/25 08:58:00	BASE	10.97	203	15.33	205	-5.8	82	-8.3	0	0	979.6	NA	0.0000		9999	2490	0	0	0
2019/05/25 08:59:00	BASE	13.13	200	15.33	205	-5.8	83	-8.2	0	0	979.6	NA	0.0000		9999	2100	0	0	0
2019/05/25 09:00:00	BASE	13.86	197	15.33	205	-5.8	83	-8.2	0	0	979.6	NA	0.0000		9999	1970	2820	0	0
2019/05/25 09:01:00	BASE	12.84	196	15.33	205	-5.7	83	-8.2	0	0	979.6	NA	0.0000		9999	1840	2360	0	0
2019/05/25 09:02:00	BASE	12.36	197	15.33	205	-5.7	83	-8.1	0	0	979.7	NA	0.0000		9999	1870	0	0	0
2019/05/25 09:03:00	BASE	12.20	199	15.33	205	-5.8	83	-8.1	0	0	979.7	NA	0.0000		9999	2030	0	0	0
2019/05/25 09:04:00	BASE	12.06	201	15.33	205	-5.8	83	-8.2	0	0	979.7	NA	0.0000		9999	2000	0	0	0
2019/05/25 09:05:00	BASE	13.04	203	15.33	205	-5.8	83	-8.2	0	0	979.6	NA	0.0000		9999	1970	0	0	0
2019/05/25 09:06:00	BASE	13.29	204	15.33	205	-5.8	84	-8.2	0	0	979.7	NA	0.0000		9999	2130	0	0	0
2019/05/25 09:07:00	BASE	12.39	203	15.33	205	-5.9	83	-8.2	0	0	979.7	NA	0.0000		9999	2300	0	0	0
2019/05/25 09:08:00	BASE	12.53	202	15.23	201	-5.9	84	-8.2	0	0	979.7	NA	0.0000		9999	2360	0	0	0
2019/05/25 09:09:00	BASE	12.10	198	15.23	201	-5.9	84	-8.2	0	0	979.8	NA	0.0000		9999	2360	0	0	0
2019/05/25 09:10:00	BASE	11.80	200	15.23	201	-5.9	84	-8.2	0	0	979.7	NA	0.0000		9999	2300	0	0	0
2019/05/25 09:11:00	BASE	12.46	208	15.23	201	-5.9	84	-8.2	0	0	979.7	NA	0.0000		9999	2170	0	0	0
2019/05/25 09:12:00	BASE	12.59	213	15.23	201	-5.8	84	-8.1	0	0	979.8	NA	0.0000		9999	1800	2400	0	0
2019/05/25 09:13:00	BASE	12.77	209	15.23	201	-5.8	84	-8.1	0	0	979.8	NA	0.0000		9999	1870	0	0	0
2019/05/25 09:14:00	BASE	13.03	203	15.23	201	-5.8	84	-8.1	0	0	979.8	NA	0.0000		9999	1870	0	0	0
2019/05/25 09:15:00	BASE	13.00	202	14.97	198	-5.8	84	-8.1	0	0	979.8	NA	0.0000		9999	1870	0	0	0
2019/05/25 09:16:00	BASE	11.90	198	14.97	198	-5.9	84	-8.1	0	0	979.8	NA	0.0000		9999	1900	0	0	0
2019/05/25 09:17:00	BASE	10.74	194	14.97	198	-5.9	84	-8.2	0	0	979.8	NA	0.0000		9999	1800	0	0	0
2019/05/25 09:18:00	BASE	10.98	198	14.97	198	-6.0	84	-8.2	0	0	979.9	NA	0.0000		9999	1970	0	0	0
2019/05/25 09:19:00	BASE	11.58	203	14.97	198	-6.0	84	-8.2	0	0	979.9	NA	0.0000		9999	2130	0	0	0
2019/05/25 09:20:00	BASE	12.39	200	14.97	198	-6.0	84	-8.2	0	0	979.8	NA	0.0000		9999	2260	0	0	0
2019/05/25 09:21:00	BASE	12.90	200	14.97	198	-6.0	84	-8.2	0	0	979.9	NA	0.0000		9999	1840	0	0	0
2019/05/25 09:22:00	BASE	11.67	205	14.97	198	-6.0	84	-8.2	0	0	979.9	NA	0.0000		9999	2400	0	0	0
2019/05/25 09:23:00	BASE	10.66	202	14.97	198	-6.0	84	-8.2	0	0	979.9	NA	0.0000		9999	2400	0	0	0
2019/05/25 09:24:00	BASE	11.23	201	14.61	195	-6.0	84	-8.2	0	0	979.9	NA	0.0000		9999	2460	0	0	0
2019/05/25 09:25:00	BASE	11.15	208	14.61	195	-6.0	84	-8.2	0	0	979.9	NA	0.0000		9999	2300	0	0	0
2019/05/25 09:26:00	BASE	10.98	211	14.61	195	-6.0	84	-8.3	0	0	979.9	NA	0.0000		9999	1870	0	0	0
2019/05/25 09:27:00	BASE	10.83	213	14.61	195	-6.0	84	-8.2	0	0	979.9	NA	0.0000		9999	2070	0	0	0
2019/05/25 09:28:00	BASE	10.43	213	14.61	195	-6.0	84	-8.2	0	0	979.9	NA	0.0000		9999	2030	0	0	0
2019/05/25 09:29:00	BASE	10.19	212	14.61	195	-6.0	84	-8.2	0	0	979.9	NA	0.0000		9999	2170	0	0	0
2019/05/25 09:30:00	BASE	9.98	215	14.35	209	-6.0	85	-8.2	0	0	979.9	NA	0.0000		9999	2200	0	0	0
2019/05/25 09:31:00	BASE	10.24	210	13.27	209	-6.0	85	-8.1	0	0	979.9	NA	0.0000		9999	1970	0	0	0
2019/05/25 09:32:00	BASE	10.35	203	13.27	209	-5.9	85	-8.1	0	0	979.9	NA	0.0000		9999	2230	0	0	0
2019/05/25 09:33:00	BASE	10.76	200	13.27	209	-5.9	85	-8.1	0	0	979.8	NA	0.0000		9999	2300	0	0	0
2019/05/25 09:34:00	BASE	11.57	196	13.32	192	-5.9	85	-8.1	0	0	979.8	NA	0.0000		9999	1940	0	0	0
2019/05/25 09:35:00	BASE	11.83	196	13.32	192	-6.0	85	-8.1	0	0	979.9	NA	0.0000		9999	2230	0	0	0
2019/05/25 09:36:00	BASE	11.20	197	13.32	192	-6.0	85	-8.1	0	0	979.9	NA	0.0000		9999	2260	0	0	0
2019/05/25 09:37:00	BASE	10.20	196	13.32	192	-6.1	85	-8.2	0	0	979.9	NA	0.0000		9999	2260	0	0	0
2019/05/25 09:38:00	BASE	9.89	204	13.32	192	-6.1	85	-8.2	0	0	979.9	NA	0.0000		9999	2460	0	0	0
2019/05/25 09:39:00	BASE	9.90	210	13.32	192	-6.1	85	-8.2	0	0	979.9	NA	0.0000		9999	2330	0	0	0
2019/05/25 09:40:00	BASE	8.90	209	13.32	192	-6.1	85	-8.2	0	0	979.9	NA	0.0000		9999	1870	0	0	0
2019/05/25 09:41:00	BASE	9.54	210	13.32	192	-6.1	85	-8.2	0	0	979.9	NA	0.0000		9999	1840	0	0	0
2019/05/25 09:42:00	BASE	10.87	214	13.32	192	-6.0	85	-8.1	0	0	979.9	NA	0.0000		9999	2000	0	0	0
2019/05/25 09:43:00	BASE	11.10	213	13.32	192	-6.0	85	-8.1	0	0	979.9	NA	0.0000		9999	2260	0	0	0
2019/05/25 09:44:01	BASE	11.08	205	13.17	213	-6.0	85	-8.2	0	0	980.0	NA	0.0000		9999	2360	0	0	0
2019/05/25 09:45:00	BASE	10.23	199	13.17	213	-6.1	85	-8.2	0	0	980.0	NA	0.0000		9999	2300	0	0	0
2019/05/25 09:46:00	BASE	10.43	204	13.17	213	-6.1	84	-8.3	0	0	980.0	NA	0.0000		9999	2330	0	0	0
2019/05/25 09:47:00	BASE	11.00	209	13.17	213	-6.1	84	-8.3	0	0	980.1	NA	0.0000		9999	2300	0	0	0
2019/05/25 09:48:00	BASE	10.40	207	13.17	213	-6.1	84	-8.4	0	0	980.1	NA	0.0000		9999	2300	0	0	0
2019/05/25 09:49:00	BASE	10.00	202	13.17	213	-6.1	84	-8.4	0	0	980.1	NA	0.0000		9999	2330	0	0	0
2019/05/25 09:50:00	BASE	9.85	197	13.17	213	-6.1	84	-8.4	0	0	980.1	NA	0.0000		9999	2330	0	0	0
2019/05/25 09:51:00	BASE	9.51	195	13.17	213	-6.1	84	-8.4	0	0	980.1	NA	0.0000		9999	2360	0	0	0
2019/05/25 09:52:00	BASE	9.94	191	13.17	213	-6.1	84	-8.4	0	0	980.1	NA	0.0000		9999	2400	0	0	0
2019/05/25 09:53:00	BASE	10.27	201	12.04	203	-6.1	84	-8.3	0	0	980.1	NA	0.0000		9999	2260	0	0	0
2019/05/25 09:54:00	BASE	9.74	215	11.94	206	-6.1	84	-8.4	0	0	980.2	NA	0.0000		9999	2130	0	0	0
2019/05/25 09:55:00	BASE	9.25	209	11.94	206	-6.1	84	-8.4	0	0	980.2	NA	0.0000		9999	2200	0	0	0
2019/05/25 09:56:00	BASE	9.38	213	11.94	206	-6.1	84	-8.3	0	0	980.2	NA	0.0000		9999	2360	0	0	0
2019/05/25 09:57:00	BASE	9.80	221	11.57	211	-6.1	84	-8.3	0	0	980.2	NA	0.0000		9999	2100	0	0	0
2019/05/25 09:58:00	BASE	9.40	219	11.37	225	-6.1	84	-8.4	0	0	980.3	NA	0.0000		9999	2260	0	0	0
2019/05/25 09:59:00	BASE	9.37	210	11.94	196	-6.1	84	-8.4	0	0	980.2	NA	0.0000		9999	1800	2560	0	0
2019/05/25 10:00:00	BASE	10.11	202	11.94	196	-6.1	84	-8.3	0	0	980.2	NA	0.0000		9999	1800	0	0	0
2019/05/25 10:01:00	BASE	10.33	203	12.45	197	-6.1	84	-8.4	0	0	980.2	NA	0.0000		9999	1800	0	0	0
2019/05/25 10:02:00	BASE	10.40	201	12.45	197	-6.1	84	-8.4	0	0	980.2	NA	0.0000		9999	1840	0	0	0
2019/05/25 10:03:00	BASE	10.12	205	12.45	197	-6.1	84	-8.4	0	0	980.3	NA	0.0000		9999	1900	0	0	0
2019/05/25 10:04:00	BASE	10.46	218	12.45	197	-6.1	84	-8.4	0	0	980.3	NA	0.0000		9999	1840	0	0	0
2019/05/25 10:05:00	BASE	10.72	227	12.45	197	-6.2	84	-8.4	0	0	980.3	NA	0.0000		9999	2070	0	0	0
2019/05/25 10:06:00	BASE	10.12	223	12.45	197	-6.2	84	-8.4	0	0	980.4	NA	0.0000		9999	1970	0	0	0
2019/05/25 10:07:00	BASE	10.39	213	12.45	197	-6.2	84	-8.4	0	0	980.4	NA	0.0000		9999	1970	0	0	0
2019/05/25 10:08:00	BASE	11.35	207	13.12	202	-6.2	84	-8.4	0	0	980.4	NA	0.0000		9999	2170	0	0	0
2019/05/25 10:09:00	BASE	11.46	208	13.12	202	-6.2	84	-8.4	0	0	980.4	NA	0.0000		9999	1970	0	0	0
2019/05/25 10:10:00	BASE	10.47	209	13.12	202	-6.2	84	-8.4	0	0	980.4	NA	0.0000		9999	2000	0	0	0
2019/05/25 10:11:00	BASE	9.74	208	13.12	202	-6.2	84	-8.4	0	0	980.4	NA	0.0000		9999	2000	0	0	0
2019/05/25 10:12:00	BASE	10.04	203	13.12	202	-6.2	84	-8.5	0	0	980.4	NA	0.0000		9999	1970	0	0	0
2019/05/25 10:13:00	BASE	9.85	202	13.12	202	-6.2	84	-8.5	0	0	980.5	NA	0.0000		9999	1970	0	0	0
2019/05/25 10:14:00	BASE	8.57	210	13.12	202	-6.2	83	-8.5	0	0	980.5	NA	0.0000		9999	1970	0	0	0
2019/05/25 10:15:00	BASE	8.54	210	13.12	202	-6.1	83	-8.5	0	0	980.5	NA	0.0000		9999	1940	0	0	0
2019/05/25 10:16:00	BASE	10.06	206	13.12	202	-6.1	83	-8.5	0	0	980.5	NA	0.0000		9999	1900	0	0	0
2019/05/25 10:17:00	BASE	10.64	206	13.12	202	-6.1	83	-8.5	0	0	980.5	NA	0.0000		9999	2070	0	0	0
2019/05/25 10:18:00	BASE	10.87	211	12.50	213	-6.1	83	-8.5	0	0	980.5	NA	0.0000		9999	1970	0	0	0
2019/05/25 10:19:00	BASE	10.93	221	12.50	213	-6.1	83	-8.5	0	0	980.6	NA	0.0000		9999	2130	0	0	0
2019/05/25 10:20:00	BASE	11.25	224	12.81	216	-6.1	83	-8.6	0	0	980.6	NA	0.0000		9999	2100	0	0	0
2019/05/25 10:21:00	BASE	11.84	215	13.27	216	-6.2	83	-8.6	0	0	980.6	NA	0.0000		9999	1940	0	0	0
2019/05/25 10:22:00	BASE	11.19	214	13.27	216	-6.2	83	-8.6	0	0	980.6	NA	0.0000		9999	2100	0	0	0
2019/05/25 10:23:00	BASE	11.38	218	13.27	216	-6.2	83	-8.6	0	0	980.6	NA	0.0000		9999	2460	0	0	0
2019/05/25 10:24:00	BASE	12.58	211	14.15	206	-6.2	83	-8.6	0	0	980.6	NA	0.0000		9999	2100	0	0	0
2019/05/25 10:25:00	BASE	12.98	204	14.25	208	-6.2	83	-8.6	0	0	980.6	NA	0.0000		9999	2070	0	0	0
2019/05/25 10:26:00	BASE	11.82	204	14.25	208	-6.2	83	-8.6	0	0	980.6	NA	0.0000		9999	2100	0	0	0
2019/05/25 10:27:00	BASE	11.50	207	14.97	205	-6.2	83	-8.6	0	0	980.6	NA	0.0000		9999	1940	0	0	0
2019/05/25 10:28:00	BASE	12.89	208	14.97	205	-6.2	83	-8.6	0	0	980.6	NA	0.0000		9999	2000	0	0	0
2019/05/25 10:29:00	BASE	12.28	206	14.97	205	-6.2	83	-8.6	0	0	980.7	NA	0.0000		9999	2100	0	0	0
2019/05/25 10:30:00	BASE	11.24	204	14.97	205	-6.2	83	-8.6	0	0	980.6	NA	0.0000		9999	2170	0	0	0
2019/05/25 10:31:00	BASE	12.34	209	14.97	205	-6.2	83	-8.6	0	0	980.6	NA	0.0000		9999	1970	0	0	0
2019/05/25 10:32:00	BASE	12.21	216	14.97	205	-6.2	83	-8.6	0	0	980.7	NA	0.0000		9999	1800	2300	0	0
2019/05/25 10:33:00	BASE	11.04	218	14.97	205	-6.2	84	-8.5	0	0	980.7	NA	0.0000		9999	1900	0	0	0
2019/05/25 10:34:00	BASE	11.00	217	14.97	205	-6.2	84	-8.5	0	0	980.7	NA	0.0000		9999	2000	0	0	0
2019/05/25 10:35:00	BASE	10.67	211	14.97	205	-6.3	84	-8.5	0	0	980.6	NA	0.0000		9999	2230	0	0	0
2019/05/25 10:36:00	BASE	9.86	212	14.97	205	-6.3	84	-8.6	0	0	980.7	NA	0.0000		9999	2330	0	0	0
2019/05/25 10:37:00	BASE	10.39	219	14.92	210	-6.3	84	-8.6	0	0	980.6	NA	0.0000		9999	2260	0	0	0
2019/05/25 10:38:00	BASE	11.07	218	14.92	210	-6.3	84	-8.6	0	0	980.6	NA	0.0000		9999	2230	0	0	0
2019/05/25 10:39:00	BASE	11.30	209	14.92	210	-6.3	84	-8.6	0	0	980.6	NA	0.0000		9999	2170	0	0	0
2019/05/25 10:40:00	BASE	10.32	205	14.92	210	-6.4	84	-8.6	0	0	980.7	NA	0.0000		9999	2230	0	0	0
2019/05/25 10:41:00	BASE	9.37	206	14.25	205	-6.4	84	-8.6	0	0	980.7	NA	0.0000		9999	2070	0	0	0
2019/05/25 10:42:00	BASE	9.42	207	14.25	205	-6.4	84	-8.7	0	0	980.7	NA	0.0000		9999	2030	0	0	0
2019/05/25 10:43:00	BASE	9.15	207	14.25	205	-6.4	84	-8.7	0	0	980.7	NA	0.0000		9999	1900	0	0	0
2019/05/25 10:44:00	BASE	9.79	203	14.25	205	-6.4	84	-8.7	0	0	980.7	NA	0.0000		9999	2100	0	0	0
2019/05/25 10:45:00	BASE	9.93	203	14.25	205	-6.4	84	-8.7	0	0	980.7	NA	0.0000		9999	2130	0	0	0
2019/05/25 10:46:00	BASE	8.94	207	14.25	205	-6.4	84	-8.7	0	0	980.7	NA	0.0000		9999	2130	0	0	0
2019/05/25 10:47:00	BASE	8.49	207	14.25	205	-6.5	84	-8.7	0	0	980.7	NA	0.0000		9999	2100	0	0	0
2019/05/25 10:48:00	BASE	8.90	207	13.22	206	-6.5	84	-8.7	0	0	980.7	NA	0.0000		9999	2170	0	0	0
2019/05/25 10:49:00	BASE	9.54	209	11.68	205	-6.5	84	-8.7	0	0	980.7	NA	0.0000		9999	2170	0	0	0
2019/05/25 10:50:00	BASE	9.60	212	11.68	205	-6.5	84	-8.7	0	0	980.8	NA	0.0000		9999	2300	0	0	0
2019/05/25 10:51:00	BASE	9.00	216	11.57	213	-6.5	84	-8.7	0	0	980.8	NA	0.0000		9999	2330	0	0	0
2019/05/25 10:52:00	BASE	9.43	217	11.68	214	-6.5	84	-8.7	0	0	980.8	NA	0.0000		9999	2260	0	0	0
2019/05/25 10:53:00	BASE	10.25	214	11.68	214	-6.5	84	-8.7	0	0	980.8	NA	0.0000		9999	2200	0	0	0
2019/05/25 10:54:01	BASE	10.14	220	11.68	214	-6.5	84	-8.8	0	0	980.8	NA	0.0000		9999	2230	0	0	0
2019/05/25 10:55:00	BASE	9.57	220	11.68	214	-6.5	84	-8.8	0	0	980.8	NA	0.0000		9999	2200	0	0	0
2019/05/25 10:56:00	BASE	9.10	215	11.68	214	-6.5	84	-8.8	0	0	980.9	NA	0.0000		9999	2230	0	0	0
2019/05/25 10:57:00	BASE	8.53	216	11.68	214	-6.6	84	-8.8	0	0	980.9	NA	0.0000		9999	2230	0	0	0
2019/05/25 10:58:00	BASE	7.82	218	11.68	214	-6.6	84	-8.8	0	0	980.9	NA	0.0000		9999	2130	0	0	0
2019/05/25 10:59:02	BASE	8.12	224	11.68	214	-6.6	84	-8.8	0	0	980.9	NA	0.0000		9999	2130	0	0	0
2019/05/25 11:00:00	BASE	8.64	226	11.68	214	-6.6	84	-8.8	0	0	981.0	NA	0.0000		9999	1970	0	0	0
2019/05/25 11:01:00	BASE	8.98	225	11.68	214	-6.5	84	-8.8	0	0	981.0	NA	0.0000		9999	2000	0	0	0
2019/05/25 11:02:00	BASE	9.05	225	11.11	213	-6.5	84	-8.7	0	0	981.0	NA	0.0000		9999	1970	0	0	0
2019/05/25 11:03:00	BASE	8.17	219	11.11	213	-6.4	84	-8.7	0	0	981.0	NA	0.0000		9999	1740	2260	0	0
2019/05/25 11:04:00	BASE	8.55	218	11.11	213	-6.4	84	-8.6	0	0	981.0	NA	0.0000		9999	1770	0	0	0
2019/05/25 11:05:00	BASE	9.85	222	11.01	214	-6.4	85	-8.6	0	0	981.0	NA	0.0000		9999	1870	0	0	0
2019/05/25 11:06:00	BASE	9.76	220	11.01	212	-6.4	85	-8.6	0	0	981.0	NA	0.0000		9999	1840	0	0	0
2019/05/25 11:07:00	BASE	9.37	217	11.01	212	-6.5	85	-8.6	0	0	981.0	NA	0.0000		9999	1970	0	0	0
2019/05/25 11:08:00	BASE	9.62	216	11.01	212	-6.5	85	-8.6	0	0	981.0	NA	0.0000		9999	2030	0	0	0
2019/05/25 11:09:00	BASE	9.03	220	11.01	212	-6.6	85	-8.7	0	0	981.0	NA	0.0000		9999	2130	0	0	0
2019/05/25 11:10:00	BASE	9.03	221	11.01	212	-6.6	85	-8.7	0	0	981.0	NA	0.0000		9999	2170	0	0	0
2019/05/25 11:11:00	BASE	9.43	213	11.01	212	-6.6	85	-8.7	0	0	981.0	NA	0.0000		9999	2200	0	0	0
2019/05/25 11:12:00	BASE	9.49	205	11.01	212	-6.6	85	-8.7	0	0	981.0	NA	0.0000		9999	2100	0	0	0
2019/05/25 11:13:00	BASE	9.60	204	11.01	212	-6.5	85	-8.6	0	0	981.1	NA	0.0000		9999	2230	0	0	0
2019/05/25 11:14:00	BASE	9.38	210	11.01	212	-6.5	85	-8.6	0	0	981.2	NA	0.0000		9999	1800	2300	0	0
2019/05/25 11:15:00	BASE	9.21	214	11.01	212	-6.5	85	-8.6	0	0	981.2	NA	0.0000		9999	2170	0	0	0
2019/05/25 11:16:00	BASE	9.64	214	11.88	214	-6.5	85	-8.6	0	0	981.2	NA	0.0000		9999	2070	0	0	0
2019/05/25 11:17:00	BASE	10.06	213	11.88	214	-6.5	85	-8.6	0	0	981.2	NA	0.0000		9999	2130	0	0	0
2019/05/25 11:18:00	BASE	9.06	212	11.88	214	-6.5	85	-8.6	0	0	981.2	NA	0.0000		9999	2170	0	0	0
2019/05/25 11:19:00	BASE	7.98	216	11.88	214	-6.5	85	-8.6	0	0	981.2	NA	0.0000		9999	2070	0	0	0
2019/05/25 11:20:00	BASE	7.78	212	11.88	214	-6.5	85	-8.6	0	0	981.2	NA	0.0000		9999	1870	0	0	0
2019/05/25 11:21:00	BASE	7.56	204	11.88	214	-6.6	86	-8.6	0	0	981.2	NA	0.0000		9999	1800	0	0	0
2019/05/25 11:22:00	BASE	6.94	203	11.88	214	-6.6	86	-8.5	0	0	981.2	NA	0.0000		9999	1900	0	0	0
2019/05/25 11:23:00	BASE	6.17	200	11.88	214	-6.6	86	-8.6	0	0	981.2	NA	0.0000		9999	1970	0	0	0
2019/05/25 11:24:00	BASE	6.22	203	11.88	214	-6.6	86	-8.5	0	0	981.2	NA	0.0000		9999	2000	0	0	0
2019/05/25 11:25:00	BASE	7.19	213	11.88	214	-6.5	86	-8.5	0	0	981.2	NA	0.0000		9999	1970	0	0	0
2019/05/25 11:26:00	BASE	8.39	217	11.27	209	-6.5	86	-8.5	0	0	981.3	NA	0.0000		9999	1970	0	0	0
2019/05/25 11:27:00	BASE	8.36	220	10.34	216	-6.5	86	-8.5	0	0	981.4	NA	0.0000		9999	1770	0	0	0
2019/05/25 11:28:00	BASE	7.33	220	10.34	216	-6.5	86	-8.5	0	0	981.4	NA	0.0000		9999	1900	0	0	0
2019/05/25 11:29:00	BASE	8.06	218	10.34	216	-6.5	86	-8.5	0	0	981.4	NA	0.0000		9999	1740	0	0	0
2019/05/25 11:30:00	BASE	8.96	213	10.34	216	-6.6	86	-8.5	0	0	981.4	NA	0.0000		9999	1800	0	0	0
2019/05/25 11:31:00	BASE	8.73	201	10.34	216	-6.6	86	-8.5	0	0	981.4	NA	0.0000		9999	1900	0	0	0
2019/05/25 11:32:00	BASE	7.59	191	10.34	216	-6.6	86	-8.6	0	0	981.4	NA	0.0000		9999	1870	0	0	0
2019/05/25 11:33:00	BASE	7.09	188	10.34	216	-6.6	86	-8.6	0	0	981.4	NA	0.0000		9999	1800	0	0	0
2019/05/25 11:34:00	BASE	7.73	196	10.34	216	-6.6	86	-8.6	0	0	981.4	NA	0.0000		9999	1870	0	0	0
2019/05/25 11:35:00	BASE	7.82	209	10.34	216	-6.6	86	-8.6	0	0	981.4	NA	0.0000		9999	1770	0	0	0
2019/05/25 11:36:00	BASE	7.95	214	9.67	221	-6.6	86	-8.6	0	0	981.5	NA	0.0000		9999	1900	0	0	0
2019/05/25 11:37:00	BASE	7.88	217	9.67	221	-6.6	86	-8.6	0	0	981.4	NA	0.0000		9999	1740	0	0	0
2019/05/25 11:38:00	BASE	7.39	218	9.67	221	-6.6	86	-8.6	0	0	981.5	NA	0.0000		9999	1800	0	0	0
2019/05/25 11:39:00	BASE	7.11	203	9.62	203	-6.6	86	-8.6	0	0	981.5	NA	0.0000		9999	1870	0	0	0
2019/05/25 11:40:00	BASE	6.99	193	9.52	199	-6.7	86	-8.6	0	0	981.5	NA	0.0000		9999	1900	0	0	0
2019/05/25 11:41:00	BASE	6.15	190	9.05	201	-6.7	86	-8.7	0	0	981.5	NA	0.0000		9999	1900	0	0	0
2019/05/25 11:42:00	BASE	5.23	184	9.05	201	-6.7	86	-8.7	0	0	981.6	NA	0.0000		9999	1970	0	0	0
2019/05/25 11:43:00	BASE	5.71	182	9.05	201	-6.7	85	-8.7	0	0	981.6	NA	0.0000		9999	1900	0	0	0
2019/05/25 11:44:00	BASE	6.53	184	9.05	201	-6.7	85	-8.8	0	0	981.6	NA	0.0000		9999	1900	0	0	0
2019/05/25 11:45:00	BASE	6.61	185	8.95	217	-6.7	85	-8.8	0	0	981.6	NA	0.0000		9999	1840	0	0	0
2019/05/25 11:46:00	BASE	6.42	184	8.03	216	-6.7	85	-8.7	0	0	981.6	NA	0.0000		9999	1710	0	0	0
2019/05/25 11:47:00	BASE	5.75	192	7.97	189	-6.7	86	-8.7	0	0	981.6	NA	0.0000		9999	1740	0	0	0
2019/05/25 11:48:00	BASE	5.57	207	7.97	189	-6.7	86	-8.7	0	0	981.6	NA	0.0000		9999	1740	0	0	0
2019/05/25 11:49:00	BASE	6.53	210	7.97	189	-6.7	86	-8.6	0	0	981.6	NA	0.0000		9999	1870	0	0	0
2019/05/25 11:50:00	BASE	6.32	201	7.97	189	-6.6	86	-8.6	0	0	981.6	NA	0.0000		9999	1840	0	0	0
2019/05/25 11:51:00	BASE	5.78	196	7.97	189	-6.6	86	-8.6	0	0	981.6	NA	0.0000		9999	1800	0	0	0
2019/05/25 11:52:00	BASE	5.97	198	7.97	189	-6.6	86	-8.6	0	0	981.6	NA	0.0000		9999	1770	0	0	0
2019/05/25 11:53:00	BASE	5.58	201	7.87	208	-6.6	86	-8.6	0	0	981.6	NA	0.0000		9999	1740	0	0	0
2019/05/25 11:54:00	BASE	4.95	192	7.87	208	-6.6	86	-8.6	0	0	981.6	NA	0.0000		9999	1710	0	0	0
2019/05/25 11:55:00	BASE	4.68	183	7.87	208	-6.6	86	-8.5	0	0	981.6	NA	0.0000		9999	1710	0	0	0
2019/05/25 11:56:00	BASE	4.41	182	7.87	208	-6.6	86	-8.5	0	0	981.6	NA	0.0000		9999	1740	0	0	0
2019/05/25 11:57:00	BASE	4.58	187	7.87	208	-6.6	87	-8.5	0	0	981.6	NA	0.0000		9999	1740	0	0	0
2019/05/25 11:58:00	BASE	5.13	195	7.87	208	-6.6	87	-8.4	0	0	981.6	NA	0.0000		9999	1770	0	0	0
2019/05/25 11:59:00	BASE	5.61	191	6.64	194	-6.6	87	-8.4	0	0	981.6	NA	0.0000		9999	1740	0	0	0
2019/05/25 12:00:00	BASE	6.14	188	6.89	199	-6.6	87	-8.4	0	0	981.6	NA	0.0000		9999	1740	0	0	0
2019/05/25 12:01:00	BASE	6.01	189	6.89	199	-6.6	87	-8.4	0	0	981.7	NA	0.0000		9999	1800	0	0	0
2019/05/25 12:02:00	BASE	5.65	195	6.89	199	-6.7	87	-8.5	0	0	981.7	NA	0.0000		9999	1800	0	0	0
2019/05/25 12:03:00	BASE	5.03	198	6.89	199	-6.7	87	-8.5	0	0	981.6	NA	0.0000		9999	1800	0	0	0
2019/05/25 12:04:00	BASE	4.35	200	6.89	199	-6.6	87	-8.5	0	0	981.6	NA	0.0000		9999	1800	0	0	0
2019/05/25 12:05:00	BASE	3.91	199	6.89	199	-6.7	87	-8.5	0	0	981.6	NA	0.0000		9999	1800	0	0	0
2019/05/25 12:06:00	BASE	4.70	193	7.15	189	-6.7	86	-8.5	0	0	981.7	NA	0.0000		9999	1770	0	0	0
2019/05/25 12:07:00	BASE	6.00	190	7.15	189	-6.6	86	-8.6	0	0	981.7	NA	0.0000		9999	1770	0	0	0
2019/05/25 12:08:00	BASE	5.61	197	7.15	189	-6.6	86	-8.6	0	0	981.7	NA	0.0000		9999	1710	0	0	0
2019/05/25 12:09:00	BASE	5.37	198	7.15	189	-6.6	86	-8.6	0	0	981.7	NA	0.0000		9999	1670	0	0	0
2019/05/25 12:10:00	BASE	5.97	184	7.15	189	-6.6	86	-8.5	0	0	981.7	NA	0.0000		9999	1770	0	0	0
2019/05/25 12:11:00	BASE	5.90	181	7.15	189	-6.6	86	-8.5	0	0	981.7	NA	0.0000		9999	1640	0	0	0
2019/05/25 12:12:00	BASE	5.46	189	7.15	189	-6.5	86	-8.5	0	0	981.7	NA	0.0000		9999	1640	0	0	0
2019/05/25 12:13:00	BASE	5.15	187	7.15	189	-6.5	86	-8.4	0	0	981.8	NA	0.0000		9999	1710	0	0	0
2019/05/25 12:14:00	BASE	4.67	187	7.15	189	-6.5	87	-8.4	0	0	981.7	NA	0.0000		9999	1670	0	0	0
2019/05/25 12:15:00	BASE	4.89	192	7.15	189	-6.5	87	-8.4	0	0	981.7	NA	0.0000		9999	1740	0	0	0
2019/05/25 12:16:00	BASE	5.14	189	7.10	192	-6.5	87	-8.3	0	0	981.7	NA	0.0000		9999	1770	0	0	0
2019/05/25 12:17:00	BASE	6.09	188	7.72	192	-6.5	87	-8.3	0	0	981.7	NA	0.0000		9999	1740	0	0	0
2019/05/25 12:18:00	BASE	6.39	188	7.72	192	-6.6	87	-8.4	0	0	981.7	NA	0.0000		9999	1710	0	0	0
2019/05/25 12:19:00	BASE	5.17	183	7.72	192	-6.6	87	-8.4	0	0	981.7	NA	0.0000		9999	1740	0	0	0
2019/05/25 12:20:00	BASE	5.07	188	7.72	192	-6.7	87	-8.5	0	0	981.7	NA	0.0000		9999	1800	0	0	0
2019/05/25 12:21:00	BASE	5.12	197	7.72	192	-6.7	87	-8.5	0	0	981.7	NA	0.0000		9999	1870	0	0	0
2019/05/25 12:22:00	BASE	4.53	208	7.72	192	-6.7	87	-8.5	0	0	981.7	NA	0.0000		9999	1870	0	0	0
2019/05/25 12:23:00	BASE	3.86	212	7.72	192	-6.7	87	-8.5	0	0	981.7	NA	0.0000		9999	1800	0	0	0
2019/05/25 12:24:00	BASE	3.51	207	7.72	192	-6.7	87	-8.5	0	0	981.7	NA	0.0000		9999	1770	0	0	0
2019/05/25 12:25:00	BASE	3.41	205	7.72	192	-6.7	87	-8.5	0	0	981.7	NA	0.0000		9999	1800	0	0	0
2019/05/25 12:26:00	BASE	3.84	204	7.72	192	-6.6	86	-8.5	0	0	981.7	NA	0.0000		9999	1740	0	0	0
2019/05/25 12:27:00	BASE	4.31	197	6.12	184	-6.6	86	-8.5	0	0	981.7	NA	0.0000		9999	1740	0	0	0
2019/05/25 12:28:00	BASE	4.44	189	5.92	194	-6.6	86	-8.5	0	0	981.7	NA	0.0000		9999	1740	0	0	0
2019/05/25 12:29:00	BASE	4.79	196	5.92	194	-6.6	86	-8.6	0	0	981.7	NA	0.0000		9999	1740	0	0	0
2019/05/25 12:30:00	BASE	4.17	219	5.92	194	-6.6	86	-8.6	0	0	981.7	NA	0.0000		9999	1840	0	0	0
2019/05/25 12:31:00	BASE	2.83	231	5.92	194	-6.7	86	-8.6	0	0	981.7	NA	0.0000		9999	1770	0	0	0
2019/05/25 12:32:00	BASE	2.55	213	5.92	194	-6.7	86	-8.7	0	0	981.7	NA	0.0000		9999	1740	0	0	0
2019/05/25 12:33:00	BASE	2.87	192	5.92	194	-6.8	86	-8.7	0	0	981.7	NA	0.0000		9999	1770	0	0	0
2019/05/25 12:34:00	BASE	3.45	185	5.92	194	-6.8	86	-8.8	0	0	981.7	NA	0.0000		9999	1840	0	0	0
2019/05/25 12:35:34	BASE	4.19	180	5.92	194	-6.9	86	-8.9	0	0	981.7	NA	0.0000		9999	1870	0	0	0
2019/05/25 12:36:00	BASE	4.46	178	5.92	194	-6.9	86	-8.9	0	0	M	NA	0.0000		9999	1840	0	0	0
2019/05/25 12:37:00	BASE	4.13	175	5.92	194	-6.9	85	-8.9	0	0	981.8	NA	0.0000		9999	1970	0	0	0
2019/05/25 12:38:00	BASE	3.53	182	5.56	207	-6.9	85	-9.0	0	0	981.8	NA	0.0000		9999	1900	0	0	0
2019/05/25 12:39:00	BASE	3.41	204	5.14	178	-6.8	85	-8.9	0	0	981.8	NA	0.0000		9999	1740	0	0	0
2019/05/25 12:40:00	BASE	3.94	222	5.14	178	-6.8	85	-8.9	0	0	981.8	NA	0.0000		9999	2000	0	0	0
2019/05/25 12:41:00	BASE	4.13	214	5.14	178	-6.8	85	-8.9	0	0	981.8	NA	0.0000		9999	1940	0	0	0
2019/05/25 12:42:00	BASE	3.96	191	5.14	178	-6.8	85	-9.0	0	0	981.8	NA	0.0000		9999	1970	0	0	0
2019/05/25 12:43:00	BASE	3.64	181	5.14	178	-6.8	84	-9.1	0	0	981.8	NA	0.0000		9999	1900	0	0	0
2019/05/25 12:44:00	BASE	3.49	181	5.14	178	-6.9	84	-9.2	0	0	981.8	NA	0.0000		9999	1870	0	0	0
2019/05/25 12:45:00	BASE	3.53	184	5.04	186	-6.9	83	-9.2	0	0	981.8	NA	0.0000		9999	1970	0	0	0
2019/05/25 12:46:00	BASE	3.29	191	4.68	225	-6.9	83	-9.3	0	0	981.9	NA	0.0000		9999	1970	0	0	0
2019/05/25 12:47:00	BASE	3.13	199	4.68	225	-7.0	83	-9.4	0	0	982.0	NA	0.0000		9999	0	0	0	0
2019/05/25 12:48:00	BASE	3.16	201	4.68	225	-7.0	83	-9.4	0	0	982.0	NA	0.0000		9999	2030	0	0	0
2019/05/25 12:49:00	BASE	2.86	207	4.68	225	-7.0	83	-9.3	0	0	982.0	NA	0.0000		9999	2030	0	0	0
2019/05/25 12:50:00	BASE	3.10	215	4.68	225	-7.0	83	-9.4	0	0	982.1	NA	0.0000		9999	2000	0	0	0
2019/05/25 12:51:00	BASE	3.45	228	4.17	183	-7.0	83	-9.4	0	0	982.1	NA	0.0000		9999	0	0	0	0
2019/05/25 12:52:00	BASE	3.69	231	4.63	217	-7.0	82	-9.5	0	0	982.1	NA	0.0000		9999	2130	0	0	0
2019/05/25 12:53:00	BASE	4.51	222	5.56	219	-7.0	82	-9.5	0	0	982.2	NA	0.0000		9999	2100	0	0	0
2019/05/25 12:54:00	BASE	4.70	221	5.56	219	-7.0	82	-9.5	0	0	982.2	NA	0.0000		9999	2200	0	0	0
2019/05/25 12:55:00	BASE	4.43	224	5.56	219	-7.0	82	-9.5	0	0	982.3	NA	0.0000		9999	2170	0	0	0
2019/05/25 12:56:00	BASE	3.89	222	5.56	219	-6.9	82	-9.5	0	0	982.3	NA	0.0000		9999	2200	0	0	0
2019/05/25 12:57:00	BASE	3.01	206	5.56	219	-6.8	82	-9.4	1	0	982.3	NA	0.0000		9999	2070	0	0	0
2019/05/25 12:58:00	BASE	2.66	198	5.56	219	-6.8	82	-9.4	1	0	982.3	NA	0.0000		9999	2070	0	0	0
2019/05/25 12:59:00	BASE	2.40	201	5.56	219	-6.8	81	-9.5	1	0	982.3	NA	0.0000		9999	2130	0	0	0
2019/05/25 13:00:00	BASE	2.46	203	5.56	219	-6.8	81	-9.5	1	0	982.3	NA	0.0000		9999	0	0	0	0
2019/05/25 13:01:00	BASE	2.90	216	5.56	219	-6.8	80	-9.6	1	0	982.3	NA	0.0000		9999	2300	0	0	0
2019/05/25 13:02:00	BASE	2.78	225	5.56	219	-6.8	80	-9.7	1	0	982.3	NA	0.0000		9999	2130	0	0	0
2019/05/25 13:03:00	BASE	2.60	226	5.45	222	-6.8	80	-9.7	1	0	982.3	NA	0.0000		9999	2130	0	0	0
2019/05/25 13:04:00	BASE	3.18	228	5.45	222	-6.8	79	-9.7	1	0	982.3	NA	0.0000		9999	2170	0	0	0
2019/05/25 13:05:00	BASE	3.49	216	4.37	226	-6.7	79	-9.8	1	0	982.3	NA	0.0000		9999	2070	0	0	0
2019/05/25 13:06:00	BASE	2.64	209	4.37	226	-6.7	79	-9.8	1	0	982.3	NA	0.0000		9999	2170	0	0	0
2019/05/25 13:07:00	BASE	2.20	214	4.37	226	-6.7	78	-9.9	1	0	982.3	NA	0.0000		9999	2130	0	0	0
2019/05/25 13:08:00	BASE	2.71	226	4.37	226	-6.7	78	-9.9	1	0	982.3	NA	0.0000		9999	2130	0	0	0
2019/05/25 13:09:01	BASE	2.95	237	4.37	226	-6.7	78	-9.9	1	0	982.3	NA	0.0000		9999	2100	0	0	0
2019/05/25 13:10:00	BASE	2.45	241	4.37	226	-6.8	78	-9.9	1	0	982.3	NA	0.0000		9999	2130	0	0	0
2019/05/25 13:11:00	BASE	2.80	222	4.37	197	-6.8	78	-10.0	2	0	982.3	NA	0.0000		9999	2130	0	0	0
2019/05/25 13:12:00	BASE	3.67	206	4.37	203	-6.9	78	-10.0	2	0	982.3	NA	0.0000		9999	2130	0	0	0
2019/05/25 13:13:00	BASE	4.57	217	5.92	223	-6.9	78	-10.1	2	0	982.3	NA	0.0000		9999	2170	0	0	0
2019/05/25 13:14:00	BASE	5.58	230	6.48	227	-6.9	78	-10.1	2	0	982.3	NA	0.0000		9999	2200	0	0	0
2019/05/25 13:15:00	BASE	5.40	239	6.48	227	-6.9	79	-10.0	2	0	982.3	NA	0.0000		9999	2200	0	0	0
2019/05/25 13:16:00	BASE	5.01	242	6.48	227	-6.9	79	-10.0	2	0	982.3	NA	0.0000		9999	2170	0	0	0
2019/05/25 13:17:00	BASE	4.58	245	6.48	227	-6.9	79	-10.0	2	0	982.4	NA	0.0000		9999	2170	0	0	0
2019/05/25 13:18:00	BASE	4.09	248	6.48	227	-6.9	79	-10.0	2	0	982.4	NA	0.0000		9999	0	0	0	0
2019/05/25 13:19:00	BASE	3.76	247	6.48	227	-6.9	79	-10.0	2	0	982.4	NA	0.0000		9999	0	0	0	0
2019/05/25 13:20:00	BASE	3.49	249	6.48	227	-7.0	79	-10.0	2	0	982.4	NA	0.0000		9999	0	0	0	0
2019/05/25 13:21:00	BASE	3.36	249	6.48	227	-7.0	79	-10.0	2	0	982.4	NA	0.0000		9999	0	0	0	0
2019/05/25 13:22:00	BASE	2.93	245	6.48	227	-7.0	79	-10.1	2	0	982.4	NA	0.0000		9999	0	0	0	0
2019/05/25 13:23:00	BASE	2.31	234	6.48	227	-7.0	78	-10.1	2	0	982.4	NA	0.0000		9999	0	0	0	0
2019/05/25 13:24:00	BASE	1.77	230	5.61	232	-7.0	78	-10.1	3	0	982.4	NA	0.0000		9999	0	0	0	0
2019/05/25 13:25:00	BASE	1.72	243	5.61	232	-7.0	78	-10.2	3	0	982.4	NA	0.0000		9999	0	0	0	0
2019/05/25 13:26:00	BASE	1.83	246	4.89	257	-6.9	78	-10.2	3	0	982.4	NA	0.0000		9999	0	0	0	0
2019/05/25 13:27:00	BASE	2.24	236	4.58	244	-6.9	78	-10.2	3	0	982.4	NA	0.0000		9999	0	0	0	0
2019/05/25 13:28:00	BASE	3.53	229	5.20	227	-6.9	77	-10.2	3	0	982.4	NA	0.0000		9999	0	0	0	0
2019/05/25 13:29:00	BASE	4.05	227	5.20	227	-6.9	77	-10.3	3	0	982.4	NA	0.0000		9999	0	0	0	0
2019/05/25 13:30:00	BASE	3.01	234	5.20	227	-6.9	77	-10.3	3	0	982.4	NA	0.0000		9999	0	0	0	0
2019/05/25 13:31:00	BASE	1.32	235	5.20	227	-6.9	77	-10.2	4	0	982.4	NA	0.0000		9999	0	0	0	0
2019/05/25 13:32:00	BASE	0.58	217	5.20	227	-6.8	77	-10.2	4	0	982.4	NA	0.0000		9999	0	0	0	0
2019/05/25 13:33:00	BASE	0.41	213	5.20	227	-6.8	77	-10.1	4	0	982.4	NA	0.0000		9999	0	0	0	0
2019/05/25 13:34:00	BASE	0.00	238	5.20	227	-6.8	77	-10.1	4	0	982.4	NA	0.0000		9999	0	0	0	0
2019/05/25 13:35:00	BASE	0.00	260	5.20	227	-6.8	77	-10.1	4	0	982.4	NA	0.0000		9999	0	0	0	0
2019/05/25 13:36:00	BASE	0.00	267	5.20	227	-6.8	77	-10.1	4	0	982.4	NA	0.0000		9999	0	0	0	0
2019/05/25 13:37:00	BASE	0.00	267	5.20	227	-6.8	77	-10.2	4	0	982.4	NA	0.0000		9999	0	0	0	0
2019/05/25 13:38:00	BASE	0.00	267	4.06	232	-6.8	77	-10.1	5	0	982.3	NA	0.0000		9999	0	0	0	0
2019/05/25 13:39:00	BASE	0.05	300	2.98	225	-6.8	77	-10.1	5	0	982.3	NA	0.0000		9999	0	0	0	0
2019/05/25 13:40:00	BASE	0.65	1	1.65	19	-6.8	77	-10.1	5	0	982.3	NA	0.0000		9999	0	0	0	0
2019/05/25 13:41:00	BASE	1.21	14	1.65	19	-6.8	77	-10.1	5	0	982.3	NA	0.0000		9999	0	0	0	0
2019/05/25 13:42:00	BASE	1.29	13	1.65	19	-6.8	77	-10.2	5	0	982.3	NA	0.0000		9999	0	0	0	0
2019/05/25 13:43:00	BASE	1.19	5	1.75	11	-6.8	76	-10.2	5	0	982.3	NA	0.0000		9999	0	0	0	0
2019/05/25 13:44:00	BASE	0.69	359	1.75	11	-6.8	76	-10.3	5	0	982.3	NA	0.0000		9999	0	0	0	0
2019/05/25 13:45:00	BASE	0.52	7	1.75	11	-6.8	76	-10.4	6	0	982.3	NA	0.0000		9999	0	0	0	0
2019/05/25 13:46:00	BASE	0.86	28	1.75	11	-6.9	75	-10.5	6	0	982.3	NA	0.0000		9999	0	0	0	0
2019/05/25 13:47:00	BASE	0.84	39	1.75	11	-6.9	75	-10.5	6	0	982.3	NA	0.0000		9999	0	0	0	0
2019/05/25 13:48:00	BASE	0.32	46	1.75	11	-6.9	75	-10.6	6	0	982.3	NA	0.0000		9999	0	0	0	0
2019/05/25 13:49:00	BASE	0.09	41	1.75	11	-6.9	75	-10.6	6	0	982.4	NA	0.0000		9999	0	0	0	0
2019/05/25 13:50:00	BASE	0.09	20	1.75	11	-6.9	75	-10.5	6	0	982.4	NA	0.0000		9999	0	0	0	0
2019/05/25 13:51:00	BASE	0.00	29	1.75	11	-6.8	76	-10.4	7	0	982.4	NA	0.0000		9999	0	0	0	0
2019/05/25 13:52:00	BASE	0.00	44	1.75	11	-6.8	76	-10.4	7	0	982.4	NA	0.0000		9999	0	0	0	0
2019/05/25 13:53:00	BASE	0.00	56	1.54	35	-6.8	76	-10.3	7	0	982.4	NA	0.0000		9999	0	0	0	0
2019/05/25 13:54:00	BASE	0.00	66	1.54	35	-6.7	76	-10.3	7	0	982.4	NA	0.0000		9999	0	0	0	0
2019/05/25 13:55:00	BASE	0.00	54	1.54	35	-6.7	75	-10.3	7	0	982.5	NA	0.0000		9999	0	0	0	0
2019/05/25 13:56:00	BASE	0.09	43	1.54	35	-6.7	75	-10.4	7	0	982.5	NA	0.0000		9999	0	0	0	0
2019/05/25 13:57:00	BASE	0.38	49	2.11	76	-6.7	75	-10.4	7	0	982.5	NA	0.0000		9999	0	0	0	0
2019/05/25 13:58:00	BASE	1.88	63	3.60	64	-6.8	75	-10.4	8	0	982.5	NA	0.0000		9999	0	0	0	0
2019/05/25 13:59:00	BASE	3.59	61	4.12	57	-6.8	75	-10.5	8	0	982.5	NA	0.0000		9999	0	0	0	0
2019/05/25 14:00:00	BASE	4.01	53	4.48	43	-7.0	75	-10.6	8	0	982.6	NA	0.0000		9999	0	0	0	0
2019/05/25 14:01:00	BASE	3.88	45	4.48	43	-7.1	76	-10.7	8	0	982.6	NA	0.0000		9999	0	0	0	0
2019/05/25 14:02:00	BASE	3.51	44	4.48	43	-7.2	76	-10.7	9	0	982.6	NA	0.0000		9999	0	0	0	0
2019/05/25 14:03:00	BASE	3.33	52	4.48	43	-7.3	77	-10.7	9	0	982.6	NA	0.0000		9999	0	0	0	0
2019/05/25 14:04:00	BASE	3.62	55	4.48	43	-7.4	77	-10.7	10	0	982.6	NA	0.0000		9999	0	0	0	0
2019/05/25 14:05:00	BASE	3.64	55	4.48	43	-7.4	78	-10.6	11	0	982.7	NA	0.0000		9999	0	0	0	0
2019/05/25 14:06:00	BASE	3.46	55	4.48	43	-7.4	78	-10.6	12	0	982.7	NA	0.0000		9999	0	0	0	0
2019/05/25 14:07:00	BASE	3.78	52	4.68	49	-7.4	79	-10.5	13	0	982.7	NA	0.0000		9999	0	0	0	0
2019/05/25 14:08:00	BASE	4.14	48	4.89	33	-7.5	79	-10.4	14	0	982.7	NA	0.0000		9999	0	0	0	0
2019/05/25 14:09:00	BASE	4.15	51	4.89	33	-7.5	80	-10.4	14	0	982.7	NA	0.0000		9999	2850	0	0	0
2019/05/25 14:10:00	BASE	4.62	53	5.86	42	-7.5	80	-10.3	14	0	982.6	NA	0.0000		9999	2850	0	0	0
2019/05/25 14:11:00	BASE	5.35	50	6.38	52	-7.5	80	-10.3	15	0	982.6	NA	0.0000		9999	2820	0	0	0
2019/05/25 14:12:00	BASE	5.25	51	6.38	52	-7.6	81	-10.3	15	0	982.6	NA	0.0000		9999	2790	0	0	0
2019/05/25 14:13:00	BASE	5.01	48	6.38	52	-7.6	81	-10.3	16	0	982.6	NA	0.0000		9999	2690	0	0	0
2019/05/25 14:14:00	BASE	5.01	44	6.38	52	-7.6	81	-10.2	17	0	982.6	NA	0.0000		9999	2620	0	0	0
2019/05/25 14:15:00	BASE	4.82	42	6.38	52	-7.6	82	-10.2	18	0	982.7	NA	0.0000		9999	2460	0	0	0
2019/05/25 14:16:00	BASE	4.44	44	6.38	52	-7.6	82	-10.1	18	0	982.7	NA	0.0000		9999	2460	0	0	0
2019/05/25 14:17:00	BASE	3.91	47	6.38	52	-7.6	82	-10.0	18	0	982.7	NA	0.0000		9999	2430	0	0	0
2019/05/25 14:18:00	BASE	3.68	40	6.38	52	-7.6	83	-10.0	18	0	982.7	NA	0.0000		9999	2430	0	0	0
2019/05/25 14:19:00	BASE	3.95	31	6.38	52	-7.5	83	-9.9	18	0	982.7	NA	0.0000		9999	2400	0	0	0
2019/05/25 14:20:00	BASE	3.95	25	6.38	52	-7.4	83	-9.8	17	0	982.8	NA	0.0000		9999	2360	0	0	0
2019/05/25 14:21:00	BASE	3.48	16	5.56	39	-7.4	84	-9.7	17	0	982.8	NA	0.0000		9999	2430	0	0	0
2019/05/25 14:22:00	BASE	2.77	357	5.56	39	-7.2	84	-9.5	17	0	982.8	NA	0.0000		9999	2690	0	0	0
2019/05/25 14:23:00	BASE	1.97	342	5.56	39	-7.1	84	-9.4	18	0	982.8	NA	0.0000		9999	2720	0	0	0
2019/05/25 14:24:00	BASE	1.58	336	5.35	39	-7.0	84	-9.3	19	0	982.8	NA	0.0000		9999	2720	0	0	0
2019/05/25 14:25:00	BASE	1.63	317	5.14	46	-7.0	84	-9.2	20	0	982.8	NA	0.0000		9999	2660	0	0	0
2019/05/25 14:26:00	BASE	1.80	313	4.48	29	-6.9	84	-9.2	20	0	982.8	NA	0.0000		9999	2720	0	0	0
2019/05/25 14:27:00	BASE	1.41	352	4.48	29	-6.9	84	-9.2	21	0	982.8	NA	0.0000		9999	2720	0	0	0
2019/05/25 14:28:00	BASE	0.50	351	4.48	29	-6.8	84	-9.2	22	0	982.8	NA	0.0000		9999	3020	0	0	0
2019/05/25 14:29:00	BASE	0.59	256	4.17	23	-6.8	83	-9.1	22	0	982.8	NA	0.0000		9999	2850	0	0	0
2019/05/25 14:30:00	BASE	4.04	259	8.49	256	-6.7	83	-9.1	22	0	982.8	NA	0.0000		9999	2360	0	0	0
2019/05/25 14:31:00	BASE	7.75	257	9.98	247	-6.6	83	-9.0	22	0	982.9	NA	0.0000		9999	2400	0	0	0
2019/05/25 14:32:00	BASE	7.99	259	9.98	247	-6.5	83	-8.9	22	0	982.9	NA	0.0000		9999	2530	0	0	0
2019/05/25 14:33:00	BASE	7.32	258	9.98	247	-6.4	83	-8.9	21	0	982.9	NA	0.0000		9999	2620	0	0	0
2019/05/25 14:34:00	BASE	7.15	250	9.98	247	-6.3	82	-8.8	20	0	982.9	NA	0.0000		9999	2620	0	0	0
2019/05/25 14:35:00	BASE	6.98	246	9.98	247	-6.2	82	-8.8	20	0	982.9	NA	0.0000		9999	2560	0	0	0
2019/05/25 14:36:00	BASE	6.19	251	9.98	247	-6.2	81	-8.9	20	0	982.9	NA	0.0000		9999	2530	0	0	0
2019/05/25 14:37:00	BASE	5.03	274	9.98	247	-6.2	81	-9.0	19	0	982.9	NA	0.0000		9999	2850	0	0	0
2019/05/25 14:38:00	BASE	5.25	293	9.98	247	-6.2	80	-9.0	18	0	982.9	NA	0.0000		9999	2890	0	0	0
2019/05/25 14:39:00	BASE	5.43	289	9.98	247	-6.2	80	-9.1	17	0	982.9	NA	0.0000		9999	2820	0	0	0
2019/05/25 14:40:00	BASE	5.04	311	9.98	247	-6.1	80	-9.1	17	0	982.9	NA	0.0000		9999	2330	2850	0	0
2019/05/25 14:41:00	BASE	5.59	342	9.83	259	-6.2	79	-9.2	17	0	982.9	NA	0.0000		9999	2260	0	0	0
2019/05/25 14:42:00	BASE	6.15	349	9.05	246	-6.2	79	-9.2	17	0	982.9	NA	0.0000		9999	2300	0	0	0
2019/05/25 14:43:00	BASE	6.52	1	9.05	246	-6.2	79	-9.3	16	0	982.8	NA	0.0000		9999	2430	0	0	0
2019/05/25 14:44:00	BASE	6.21	3	7.31	247	-6.3	79	-9.4	15	0	982.9	NA	0.0000		9999	2590	0	0	0
2019/05/25 14:45:00	BASE	5.20	3	6.94	4	-6.4	79	-9.5	14	0	982.9	NA	0.0000		9999	2590	0	0	0
2019/05/25 14:46:00	BASE	4.29	16	6.94	4	-6.4	79	-9.5	13	0	982.9	NA	0.0000		9999	2590	0	0	0
2019/05/25 14:47:00	BASE	3.88	29	6.94	4	-6.5	79	-9.5	12	0	982.9	NA	0.0000		9999	2490	0	0	0
2019/05/25 14:48:00	BASE	4.25	19	6.94	4	-6.5	79	-9.5	11	0	982.9	NA	0.0000		9999	2300	0	0	0
2019/05/25 14:49:00	BASE	5.40	358	6.94	4	-6.4	79	-9.5	11	0	982.8	NA	0.0000		9999	2300	0	0	0
2019/05/25 14:50:00	BASE	6.32	355	7.05	2	-6.4	79	-9.5	11	0	982.8	NA	0.0000		9999	2230	0	0	0
2019/05/25 14:51:00	BASE	6.13	1	7.05	2	-6.4	79	-9.5	11	0	982.8	NA	0.0000		9999	2230	0	0	0
2019/05/25 14:52:00	BASE	5.53	1	7.05	2	-6.4	79	-9.5	12	0	982.8	NA	0.0000		9999	2260	0	0	0
2019/05/25 14:53:00	BASE	5.27	2	7.05	2	-6.4	79	-9.4	12	0	982.8	NA	0.0000		9999	2560	0	0	0
2019/05/25 14:54:00	BASE	5.06	4	7.05	2	-6.4	79	-9.4	12	0	982.8	NA	0.0000		9999	2560	0	0	0
2019/05/25 14:55:00	BASE	4.26	360	7.05	2	-6.4	80	-9.4	12	0	982.9	NA	0.0000		9999	2490	0	0	0
2019/05/25 14:56:00	BASE	3.40	348	7.05	2	-6.4	80	-9.3	12	0	982.9	NA	0.0000		9999	2620	0	0	0
2019/05/25 14:57:00	BASE	3.77	313	7.05	2	-6.4	80	-9.3	12	0	982.9	NA	0.0000		9999	2690	0	0	0
2019/05/25 14:58:00	BASE	4.94	284	7.05	289	-6.4	80	-9.3	11	0	982.9	NA	0.0000		9999	2660	0	0	0
2019/05/25 14:59:00	BASE	5.24	287	7.05	289	-6.4	80	-9.3	11	0	982.8	NA	0.0000		9999	2660	0	0	0
2019/05/25 15:00:00	BASE	4.87	292	7.05	289	-6.4	80	-9.3	11	0	982.8	NA	0.0000		9999	2660	0	0	0
2019/05/25 15:01:00	BASE	4.28	288	7.05	289	-6.4	80	-9.3	11	0	982.8	NA	0.0000		9999	2760	0	0	0
2019/05/25 15:02:00	BASE	4.25	275	7.05	289	-6.4	80	-9.3	12	0	982.8	NA	0.0000		9999	2920	0	0	0
2019/05/25 15:03:00	BASE	4.78	256	7.05	289	-6.4	80	-9.3	12	0	982.7	NA	0.0000		9999	3050	0	0	0
2019/05/25 15:04:00	BASE	5.56	239	7.31	222	-6.4	80	-9.3	13	0	982.7	NA	0.0000		9999	2720	0	0	0
2019/05/25 15:05:00	BASE	7.62	228	9.98	223	-6.3	79	-9.3	13	0	982.7	NA	0.0000		9999	2720	0	0	0
2019/05/25 15:06:00	BASE	8.44	223	9.98	223	-6.3	79	-9.3	13	0	982.6	NA	0.0000		9999	2760	0	0	0
2019/05/25 15:07:00	BASE	7.60	219	9.98	223	-6.2	78	-9.4	13	0	982.6	NA	0.0000		9999	2760	3450	0	0
2019/05/25 15:08:00	BASE	6.99	224	9.98	223	-6.1	76	-9.6	13	0	982.6	NA	0.0000		9999	3120	0	0	0
2019/05/25 15:09:00	BASE	6.13	236	9.98	223	-6.1	75	-9.8	14	0	982.6	NA	0.0000		9999	3150	0	0	0
2019/05/25 15:10:00	BASE	5.94	246	9.98	223	-6.1	74	-9.9	14	0	982.6	NA	0.0000		9999	3250	0	0	0
2019/05/25 15:11:00	BASE	6.11	251	9.98	223	-6.0	73	-10.1	15	0	982.6	NA	0.0000		9999	3080	0	0	0
2019/05/25 15:12:00	BASE	5.69	253	9.98	223	-6.0	72	-10.2	16	0	982.7	NA	0.0000		9999	3250	0	0	0
2019/05/25 15:13:00	BASE	4.93	261	9.98	223	-6.0	72	-10.2	16	0	982.7	NA	0.0000		9999	3150	0	0	0
2019/05/25 15:14:00	BASE	4.09	273	9.98	223	-6.1	72	-10.3	17	0	982.7	NA	0.0000		9999	2850	0	0	0
2019/05/25 15:15:00	BASE	3.31	278	9.26	221	-6.1	72	-10.3	17	0	982.8	NA	0.0000		9999	2790	0	0	0
2019/05/25 15:16:00	BASE	2.55	273	8.28	219	-6.1	73	-10.2	17	0	982.8	NA	0.0000		9999	2760	0	0	0
2019/05/25 15:17:00	BASE	2.51	256	7.36	219	-6.1	73	-10.2	18	0	982.7	NA	0.0000		9999	2790	0	0	0
2019/05/25 15:18:00	BASE	1.95	267	7.15	248	-6.1	73	-10.1	20	0	982.7	NA	0.0000		9999	2760	0	0	0
2019/05/25 15:19:01	BASE	1.66	309	7.15	248	-6.1	74	-10.1	23	0	982.7	NA	0.0000		9999	2660	3940	0	0
2019/05/25 15:20:00	BASE	2.17	337	7.15	248	-6.1	74	-10.1	24	0	982.7	NA	0.0000		9999	3740	0	0	0
2019/05/25 15:21:00	BASE	2.18	359	6.07	256	-6.2	74	-10.1	24	0	982.7	NA	0.0000		9999	3450	0	0	0
2019/05/25 15:22:00	BASE	2.18	14	5.81	255	-6.2	74	-10.1	24	0	982.7	NA	0.0000		9999	3280	0	0	0
2019/05/25 15:23:00	BASE	2.51	24	4.68	271	-6.2	74	-10.1	23	0	982.6	NA	0.0000		9999	3220	0	0	0
2019/05/25 15:24:00	BASE	2.93	23	3.45	30	-6.2	74	-10.1	23	0	982.6	NA	0.0000		9999	3150	0	0	0
2019/05/25 15:25:00	BASE	3.17	22	3.76	24	-6.3	75	-10.0	24	0	982.6	NA	0.0000		9999	3180	0	0	0
2019/05/25 15:26:00	BASE	3.49	21	4.27	23	-6.3	75	-9.9	23	0	982.6	NA	0.0000		9999	3410	0	0	0
2019/05/25 15:27:00	BASE	3.81	10	4.68	8	-6.2	76	-9.8	22	0	982.6	NA	0.0000		9999	3180	0	0	0
2019/05/25 15:28:00	BASE	4.13	7	4.89	26	-6.2	76	-9.8	21	0	982.6	NA	0.0000		9999	3220	0	0	0
2019/05/25 15:29:00	BASE	4.48	15	5.50	18	-6.2	76	-9.8	21	0	982.6	NA	0.0000		9999	3180	0	0	0
2019/05/25 15:30:00	BASE	4.48	13	5.50	18	-6.2	76	-9.8	19	0	982.6	NA	0.0000		9999	3120	0	0	0
2019/05/25 15:31:00	BASE	4.29	2	5.50	18	-6.1	75	-9.8	18	0	982.6	NA	0.0000		9999	3050	0	0	0
2019/05/25 15:32:00	BASE	4.10	358	5.50	18	-6.1	75	-9.8	18	0	982.6	NA	0.0000		9999	2950	0	0	0
2019/05/25 15:33:00	BASE	4.73	8	6.12	30	-6.1	75	-9.8	18	0	982.6	NA	0.0000		9999	2920	0	0	0
2019/05/25 15:34:00	BASE	5.40	17	6.22	25	-6.1	75	-9.8	17	0	982.5	NA	0.0000		9999	2990	0	0	0
2019/05/25 15:35:00	BASE	5.32	15	6.22	25	-6.1	75	-9.8	17	0	982.5	NA	0.0000		9999	3050	0	0	0
2019/05/25 15:36:00	BASE	5.19	17	6.22	15	-6.1	75	-9.8	16	0	982.5	NA	0.0000		9999	2990	0	0	0
2019/05/25 15:37:00	BASE	4.85	19	6.22	15	-6.2	75	-9.9	15	0	982.5	NA	0.0000		9999	2950	0	0	0
2019/05/25 15:38:00	BASE	4.74	18	6.22	15	-6.2	75	-9.9	14	0	982.6	NA	0.0000		9999	2950	0	0	0
2019/05/25 15:39:00	BASE	5.21	19	6.28	23	-6.2	75	-9.9	14	0	982.6	NA	0.0000		9999	2950	0	0	0
2019/05/25 15:40:00	BASE	5.74	22	6.43	19	-6.2	75	-9.9	14	0	982.5	NA	0.0000		9999	2950	0	0	0
2019/05/25 15:41:00	BASE	6.04	23	6.89	24	-6.2	75	-9.8	14	0	982.5	NA	0.0000		9999	2890	0	0	0
2019/05/25 15:42:00	BASE	6.27	25	6.89	24	-6.2	76	-9.8	14	0	982.4	NA	0.0000		9999	2890	0	0	0
2019/05/25 15:43:00	BASE	6.06	24	6.89	24	-6.2	76	-9.8	14	0	982.4	NA	0.0000		9999	2890	0	0	0
2019/05/25 15:44:00	BASE	5.82	22	6.89	24	-6.2	76	-9.7	13	0	982.5	NA	0.0000		9999	2890	0	0	0
2019/05/25 15:45:00	BASE	6.18	24	7.10	27	-6.2	76	-9.8	13	0	982.5	NA	0.0000		9999	2850	0	0	0
2019/05/25 15:46:00	BASE	6.38	28	7.10	27	-6.2	76	-9.8	13	0	982.5	NA	0.0000		9999	2890	0	0	0
2019/05/25 15:47:00	BASE	5.86	30	7.10	27	-6.2	76	-9.7	14	0	982.5	NA	0.0000		9999	2850	0	0	0
2019/05/25 15:48:00	BASE	5.48	29	7.10	27	-6.2	76	-9.7	14	0	982.5	NA	0.0000		9999	2820	0	0	0
2019/05/25 15:49:00	BASE	5.33	30	7.10	27	-6.2	76	-9.7	14	0	982.5	NA	0.0000		9999	2790	0	0	0
2019/05/25 15:50:00	BASE	5.00	30	7.10	27	-6.2	76	-9.7	14	0	982.5	NA	0.0000		9999	2790	0	0	0
2019/05/25 15:51:00	BASE	4.67	31	7.10	27	-6.2	76	-9.7	14	0	982.4	NA	0.0000		9999	2720	0	0	0
2019/05/25 15:52:00	BASE	4.61	34	7.10	27	-6.1	76	-9.7	14	0	982.4	NA	0.0000		9999	2790	0	0	0
2019/05/25 15:53:00	BASE	4.71	37	7.10	27	-6.1	76	-9.7	13	0	982.4	NA	0.0000		9999	2760	0	0	0
2019/05/25 15:54:00	BASE	4.85	43	7.10	27	-6.1	76	-9.7	13	0	982.4	NA	0.0000		9999	2790	0	0	0
2019/05/25 15:55:00	BASE	4.96	46	6.79	28	-6.2	76	-9.8	12	0	982.4	NA	0.0000		9999	2850	0	0	0
2019/05/25 15:56:00	BASE	4.93	43	6.33	27	-6.2	76	-9.8	12	0	982.4	NA	0.0000		9999	2760	0	0	0
2019/05/25 15:57:00	BASE	4.72	47	5.92	28	-6.2	76	-9.8	12	0	982.4	NA	0.0000		9999	2920	0	0	0
2019/05/25 15:58:00	BASE	5.09	47	6.28	46	-6.2	76	-9.8	12	0	982.4	NA	0.0000		9999	2950	0	0	0
2019/05/25 15:59:00	BASE	6.07	39	7.10	35	-6.2	76	-9.8	12	0	982.4	NA	0.0000		9999	2950	3770	0	0
2019/05/25 16:00:00	BASE	6.67	36	7.51	37	-6.2	76	-9.7	12	0	982.4	NA	0.0000		9999	2920	0	0	0
2019/05/25 16:01:00	BASE	6.95	39	7.72	49	-6.2	76	-9.7	12	0	982.4	NA	0.0000		9999	2850	0	0	0
2019/05/25 16:02:00	BASE	7.37	37	8.85	26	-6.2	76	-9.7	12	0	982.4	NA	0.0000		9999	2850	0	0	0
2019/05/25 16:03:00	BASE	7.82	33	8.85	42	-6.2	76	-9.7	12	0	982.3	NA	0.0000		9999	2820	0	0	0
2019/05/25 16:04:00	BASE	7.84	34	8.90	27	-6.2	76	-9.7	11	0	982.3	NA	0.0000		9999	2820	0	0	0
2019/05/25 16:05:00	BASE	7.98	34	9.05	35	-6.2	76	-9.7	11	0	982.3	NA	0.0000		9999	2790	0	0	0
2019/05/25 16:06:00	BASE	8.70	38	9.47	40	-6.2	76	-9.7	11	0	982.3	NA	0.0000		9999	2720	0	0	0
2019/05/25 16:07:00	BASE	8.54	43	9.47	40	-6.2	77	-9.7	11	0	982.3	NA	0.0000		9999	2790	0	0	0
2019/05/25 16:08:00	BASE	7.67	45	9.47	40	-6.3	77	-9.7	11	0	982.3	NA	0.0000		9999	2990	0	0	0
2019/05/25 16:09:00	BASE	7.44	46	9.47	40	-6.3	77	-9.7	11	0	982.3	NA	0.0000		9999	2990	0	0	0
2019/05/25 16:10:00	BASE	7.23	44	9.47	40	-6.3	77	-9.7	11	0	982.3	NA	0.0000		9999	2820	0	0	0
2019/05/25 16:11:00	BASE	7.39	40	9.47	40	-6.3	77	-9.7	11	0	982.3	NA	0.0000		9999	2890	0	0	0
2019/05/25 16:12:00	BASE	7.29	40	9.47	40	-6.3	77	-9.7	10	0	982.3	NA	0.0000		9999	2890	0	0	0
2019/05/25 16:13:00	BASE	6.31	37	9.47	40	-6.3	77	-9.7	10	0	982.3	NA	0.0000		9999	2850	0	0	0
2019/05/25 16:14:00	BASE	5.71	36	9.47	40	-6.3	77	-9.7	10	0	982.3	NA	0.0000		9999	1940	0	0	0
2019/05/25 16:15:00	BASE	5.06	37	9.47	40	-6.3	76	-9.7	10	0	982.3	NA	0.0000		9999	2820	0	0	0
2019/05/25 16:16:00	BASE	4.34	36	8.64	38	-6.3	76	-9.8	10	0	982.3	NA	0.0000		9999	2720	0	0	0
2019/05/25 16:17:00	BASE	4.38	27	8.64	38	-6.3	76	-9.8	10	0	982.3	NA	0.0000		9999	2170	3250	0	0
2019/05/25 16:18:00	BASE	5.15	2	8.64	38	-6.3	76	-9.7	10	0	982.3	NA	0.0000		9999	2660	0	0	0
2019/05/25 16:19:00	BASE	5.40	342	8.64	38	-6.2	77	-9.7	10	0	982.3	NA	0.0000		9999	2720	0	0	0
2019/05/25 16:20:00	BASE	4.86	346	8.49	47	-6.2	77	-9.6	10	0	982.3	NA	0.0000		9999	2890	0	0	0
2019/05/25 16:21:00	BASE	4.58	351	7.10	43	-6.1	76	-9.6	10	0	982.3	NA	0.0000		9999	2720	0	0	0
2019/05/25 16:22:00	BASE	4.44	355	6.58	38	-6.0	75	-9.6	10	0	982.3	NA	0.0000		9999	2720	0	0	0
2019/05/25 16:23:00	BASE	4.89	6	6.22	6	-5.9	75	-9.7	10	0	982.3	NA	0.0000		9999	2620	0	0	0
2019/05/25 16:24:00	BASE	5.86	11	6.69	16	-5.9	74	-9.8	11	0	982.3	NA	0.0000		9999	2850	0	0	0
2019/05/25 16:25:00	BASE	6.33	12	6.84	17	-5.8	73	-9.8	11	0	982.3	NA	0.0000		9999	2690	0	0	0
2019/05/25 16:26:00	BASE	6.38	7	7.05	8	-5.8	73	-9.9	11	0	982.3	NA	0.0000		9999	2690	0	0	0
2019/05/25 16:27:00	BASE	6.40	354	7.10	1	-5.8	73	-9.8	12	0	982.3	NA	0.0000		9999	2690	0	0	0
2019/05/25 16:28:00	BASE	6.28	352	7.10	1	-5.7	73	-9.8	12	0	982.3	NA	0.0000		9999	2760	0	0	0
2019/05/25 16:29:00	BASE	5.80	359	7.10	1	-5.7	73	-9.8	12	0	982.3	NA	0.0000		9999	2760	0	0	0
2019/05/25 16:30:00	BASE	6.17	359	7.46	354	-5.7	73	-9.8	12	0	982.3	NA	0.0000		9999	2850	0	0	0
2019/05/25 16:31:00	BASE	6.69	358	7.46	354	-5.7	73	-9.8	13	0	982.3	NA	0.0000		9999	2760	0	0	0
2019/05/25 16:32:00	BASE	6.36	354	7.46	354	-5.8	73	-9.8	13	0	982.3	NA	0.0000		9999	2660	0	0	0
2019/05/25 16:33:00	BASE	6.54	357	7.61	10	-5.8	73	-9.8	13	0	982.3	NA	0.0000		9999	2590	0	0	0
2019/05/25 16:34:00	BASE	7.06	360	7.61	354	-5.8	73	-9.9	13	0	982.3	NA	0.0000		9999	2590	0	0	0
2019/05/25 16:35:00	BASE	6.83	356	7.61	354	-5.8	73	-9.9	13	0	982.3	NA	0.0000		9999	2620	0	0	0
2019/05/25 16:36:00	BASE	5.90	360	7.61	354	-5.8	73	-9.9	13	0	982.3	NA	0.0000		9999	2950	0	0	0
2019/05/25 16:37:00	BASE	4.92	358	7.61	354	-5.8	73	-9.8	12	0	982.3	NA	0.0000		9999	2850	0	0	0
2019/05/25 16:38:00	BASE	4.48	351	7.61	354	-5.8	73	-9.8	12	0	982.3	NA	0.0000		9999	2720	0	0	0
2019/05/25 16:39:00	BASE	4.96	346	7.61	354	-5.8	74	-9.8	12	0	982.3	NA	0.0000		9999	2790	0	0	0
2019/05/25 16:40:00	BASE	5.47	343	7.61	354	-5.8	74	-9.7	12	0	982.3	NA	0.0000		9999	2590	0	0	0
2019/05/25 16:41:00	BASE	5.00	343	7.61	354	-5.8	74	-9.7	11	0	982.3	NA	0.0000		9999	2590	0	0	0
2019/05/25 16:42:00	BASE	4.53	357	7.61	354	-5.8	74	-9.7	11	0	982.3	NA	0.0000		9999	2620	0	0	0
2019/05/25 16:43:00	BASE	4.74	10	7.61	354	-5.8	74	-9.7	11	0	982.3	NA	0.0000		9999	2560	0	0	0
2019/05/25 16:44:00	BASE	4.86	15	7.25	349	-5.9	74	-9.7	11	0	982.3	NA	0.0000		9999	2400	0	0	0
2019/05/25 16:45:00	BASE	4.66	10	6.53	3	-5.9	74	-9.8	11	0	982.3	NA	0.0000		9999	1970	2760	0	0
2019/05/25 16:46:00	BASE	4.30	3	5.97	339	-5.9	74	-9.8	10	0	982.3	NA	0.0000		9999	1800	2620	0	0
2019/05/25 16:47:00	BASE	4.18	352	5.97	339	-5.9	74	-9.8	10	0	982.3	NA	0.0000		9999	2000	0	0	0
2019/05/25 16:48:00	BASE	4.44	348	5.97	339	-5.9	74	-9.8	10	0	982.3	NA	0.0000		9999	2330	0	0	0
2019/05/25 16:49:00	BASE	4.67	346	5.97	339	-5.9	74	-9.8	10	0	982.3	NA	0.0000		9999	2070	0	0	0
2019/05/25 16:50:00	BASE	5.14	340	7.05	336	-5.9	74	-9.8	10	0	982.3	NA	0.0000		9999	1380	0	0	0
2019/05/25 16:51:00	BASE	5.61	333	7.05	336	-5.9	74	-9.7	10	0	982.3	NA	0.0000		9999	1020	0	0	0
2019/05/25 16:52:00	BASE	5.76	323	7.67	312	-5.9	75	-9.7	10	0	982.3	NA	0.0000	-SN	9999	2300	0	0	0
2019/05/25 16:53:00	BASE	6.34	304	8.03	287	-5.9	75	-9.7	10	0	982.3	NA	0.0000	-SN	9000	2560	0	0	0
2019/05/25 16:54:00	BASE	5.86	279	8.03	287	-5.9	75	-9.6	10	0	982.4	NA	0.0000	-SN	9000	2590	2990	0	0
2019/05/25 16:55:00	BASE	4.53	279	8.03	287	-5.9	75	-9.6	9	0	982.4	NA	0.0000	-SN	9000	2690	0	0	0
2019/05/25 16:56:00	BASE	4.00	292	8.03	287	-5.9	75	-9.6	9	0	982.4	NA	0.0000	-SN	8000	2490	0	0	0
2019/05/25 16:57:00	BASE	3.09	286	8.03	287	-5.9	75	-9.7	9	0	982.4	NA	0.0000	-SN	7000	1540	0	0	0
2019/05/25 16:58:00	BASE	2.46	283	8.03	287	-5.9	75	-9.7	9	0	982.4	NA	0.0000	-SN	7000	2430	3250	0	0
2019/05/25 16:59:00	BASE	1.90	282	8.03	287	-5.9	74	-9.8	10	0	982.4	NA	0.0000	-SN	7000	2760	0	0	0
2019/05/25 17:00:00	BASE	2.31	281	8.03	287	-5.9	74	-9.8	10	0	982.4	NA	0.0000	-SN	9000	2400	0	0	0
2019/05/25 17:01:00	BASE	3.66	272	8.03	287	-5.9	74	-9.8	10	0	982.4	NA	0.0000	-SN	9999	2360	0	0	0
2019/05/25 17:02:00	BASE	4.13	250	8.03	287	-5.9	74	-9.8	10	0	982.4	NA	0.0000	-SN	9999	2260	3610	0	0
2019/05/25 17:03:00	BASE	3.55	248	5.66	274	-5.9	74	-9.8	10	0	982.4	NA	0.0000	-SN	9999	3350	0	0	0
2019/05/25 17:04:00	BASE	2.45	251	5.09	293	-6.0	75	-9.7	10	0	982.3	NA	0.0000	-SN	9999	3410	3940	0	0
2019/05/25 17:05:00	BASE	1.70	256	5.09	293	-6.0	75	-9.6	10	0	982.3	NA	0.0000	-SN	9999	3580	0	0	0
2019/05/25 17:06:00	BASE	0.65	262	5.04	254	-6.0	76	-9.6	11	0	982.3	NA	0.0000	-SN	9999	3280	3970	0	0
2019/05/25 17:07:00	BASE	0.00	274	5.04	254	-6.1	76	-9.6	11	0	982.3	NA	0.0000	-SN	9999	3450	0	0	0
2019/05/25 17:08:00	BASE	0.00	297	5.04	254	-6.1	77	-9.5	11	0	982.3	NA	0.0000	-SN	9999	3610	0	0	0
2019/05/25 17:09:00	BASE	0.00	313	5.04	254	-6.1	77	-9.5	12	0	982.3	NA	0.0000	-SN	9999	3480	0	0	0
2019/05/25 17:10:00	BASE	0.00	317	5.04	254	-6.1	77	-9.4	12	0	982.3	NA	0.0000	-SN	9999	3380	0	0	0
2019/05/25 17:11:00	BASE	0.00	319	5.04	254	-6.0	77	-9.4	11	0	982.3	NA	0.0000	-SN	9999	3350	0	0	0
2019/05/25 17:12:00	BASE	0.00	321	3.14	248	-6.0	77	-9.4	11	0	982.3	NA	0.0000	-SN	9999	3020	0	0	0
2019/05/25 17:13:00	BASE	0.00	321	2.62	247	-6.0	77	-9.4	10	0	982.3	NA	0.0000	-SN	9999	2560	0	0	0
2019/05/25 17:14:00	BASE	0.00	326	1.75	262	-6.0	77	-9.4	10	0	982.3	NA	0.0000	-SN	9999	2530	0	0	0
2019/05/25 17:15:00	BASE	0.00	26	M	M	-6.0	77	-9.4	10	0	982.3	NA	0.0000	-SN	9999	2560	0	0	0
2019/05/25 17:16:00	BASE	0.76	40	2.31	3	-6.0	77	-9.4	10	0	982.3	NA	0.0000	-SN	9999	2460	0	0	0
2019/05/25 17:17:00	BASE	1.82	4	2.42	3	-6.0	77	-9.4	12	0	982.3	NA	0.0000		9999	2560	0	0	0
2019/05/25 17:18:00	BASE	2.38	349	3.65	332	-6.0	77	-9.4	13	0	982.3	NA	0.0000		9999	2660	0	0	0
2019/05/25 17:19:00	BASE	3.06	338	4.48	332	-6.0	77	-9.4	14	0	982.3	NA	0.0000	-SN	9999	2620	0	0	0
2019/05/25 17:20:00	BASE	6.13	324	12.60	318	-6.0	77	-9.3	15	0	982.2	NA	0.0000	-SN	9999	2820	0	0	0
2019/05/25 17:21:00	BASE	9.76	309	12.60	318	-6.0	77	-9.3	15	0	982.2	NA	0.0000	-SN	9999	2990	0	0	0
2019/05/25 17:22:00	BASE	11.55	296	13.58	276	-5.9	78	-9.2	15	0	982.2	NA	0.0000	-SN	9999	2720	0	0	0
2019/05/25 17:23:00	BASE	11.59	291	13.58	276	-5.9	78	-9.2	15	0	982.1	NA	0.0000	-SN	9999	2720	0	0	0
2019/05/25 17:24:00	BASE	11.03	292	13.58	276	-5.8	77	-9.1	15	0	982.2	NA	0.0000	-SN	9999	2530	0	0	0
2019/05/25 17:25:00	BASE	11.64	291	14.35	292	-5.8	77	-9.2	16	0	982.1	NA	0.0000	-SN	9999	2720	0	0	0
2019/05/25 17:26:00	BASE	10.65	296	14.35	292	-5.8	76	-9.4	15	0	982.2	NA	0.0000	-SN	9999	2200	2890	0	0
2019/05/25 17:27:00	BASE	9.53	298	14.35	292	-5.8	74	-9.6	15	0	982.2	NA	0.0000	-SN	9999	2200	3250	0	0
2019/05/25 17:28:00	BASE	7.75	260	14.35	292	-5.7	73	-9.8	15	0	982.3	NA	0.0000	-SN	9999	2260	2850	0	0
2019/05/25 17:29:00	BASE	5.75	221	14.35	292	-5.7	73	-9.9	16	0	982.3	NA	0.0000	-SN	8000	2360	3050	0	0
2019/05/25 17:30:00	BASE	5.62	232	14.35	292	-5.8	72	-9.9	17	0	982.3	NA	0.0000	-SN	9000	2260	3220	0	0
2019/05/25 17:31:00	BASE	6.50	243	14.35	292	-5.8	73	-9.9	18	0	982.3	NA	0.0000	-SN	9999	2360	3350	0	0
2019/05/25 17:32:00	BASE	9.64	250	14.35	292	-5.8	74	-9.7	19	0	982.2	NA	0.0000	-SN	9999	3280	0	0	0
2019/05/25 17:33:00	BASE	12.13	255	14.35	292	-5.8	75	-9.6	19	0	982.2	NA	0.0000	-SN	9999	3540	0	0	0
2019/05/25 17:34:00	BASE	12.38	255	14.35	292	-5.9	75	-9.6	20	0	982.2	NA	0.0000	-SN	9999	3640	0	0	0
2019/05/25 17:35:00	BASE	11.39	255	14.15	251	-5.9	75	-9.5	20	0	982.2	NA	0.0000	-SN	9999	3640	0	0	0
2019/05/25 17:36:00	BASE	11.14	256	14.15	251	-5.9	75	-9.6	20	0	982.2	NA	0.0000	-SN	9999	3180	0	0	0
2019/05/25 17:37:00	BASE	10.56	260	14.15	251	-5.9	75	-9.7	19	0	982.3	NA	0.0000	-SN	9999	3710	4430	0	0
2019/05/25 17:38:00	BASE	9.83	257	14.15	251	-5.9	74	-9.8	19	0	982.3	NA	0.0000	-SN	9999	3280	3900	0	0
2019/05/25 17:39:00	BASE	10.91	255	14.15	251	-5.9	74	-9.8	20	0	982.3	NA	0.0000	-SN	9999	2820	4560	0	0
2019/05/25 17:40:00	BASE	10.30	263	14.15	251	-5.9	73	-9.9	20	0	982.3	NA	0.0000		9999	3020	4560	0	0
2019/05/25 17:41:00	BASE	9.12	270	14.15	251	-5.9	73	-10.0	20	0	982.3	NA	0.0000		9999	2950	3870	0	0
2019/05/25 17:42:00	BASE	10.17	269	14.15	251	-5.8	72	-10.0	21	0	982.3	NA	0.0000		9999	3020	0	0	0
2019/05/25 17:43:00	BASE	10.39	270	13.17	257	-5.8	72	-10.1	21	0	982.3	NA	0.0000		9999	3640	0	0	0
2019/05/25 17:44:00	BASE	10.70	281	13.43	283	-5.8	71	-10.1	21	0	982.3	NA	0.0000		9999	2720	4100	0	0
2019/05/25 17:45:00	BASE	11.52	280	13.43	283	-5.8	71	-10.2	21	0	982.3	NA	0.0000		9999	3050	4170	0	0
2019/05/25 17:46:00	BASE	11.30	266	13.48	261	-5.8	70	-10.3	21	0	982.3	NA	0.0000		9999	3080	4070	0	0
2019/05/25 17:47:00	BASE	11.28	258	13.48	261	-5.8	70	-10.4	20	0	982.3	NA	0.0000		9999	3050	0	0	0
2019/05/25 17:48:00	BASE	11.04	263	13.94	280	-5.8	70	-10.4	19	0	982.3	NA	0.0000		9999	3150	4130	0	0
2019/05/25 17:49:00	BASE	11.50	272	14.04	268	-5.8	70	-10.5	19	0	982.3	NA	0.0000		9999	2890	4690	0	0
2019/05/25 17:50:00	BASE	11.66	274	14.04	268	-5.8	70	-10.5	18	0	982.3	NA	0.0000		9999	2890	0	0	0
2019/05/25 17:51:00	BASE	12.56	276	16.93	279	-5.8	70	-10.5	18	0	982.3	NA	0.0000		9999	2920	0	0	0
2019/05/25 17:52:00	BASE	12.71	279	16.93	279	-5.9	70	-10.5	18	0	982.3	NA	0.0000		9999	2920	3740	0	0
2019/05/25 17:53:00	BASE	10.85	275	16.93	279	-5.9	70	-10.6	18	0	982.4	NA	0.0000		9999	4130	4690	0	0
2019/05/25 17:54:00	BASE	11.77	275	16.93	279	-5.9	69	-10.7	18	0	982.3	NA	0.0000		9999	4200	0	0	0
2019/05/25 17:55:00	BASE	13.06	274	16.93	279	-5.9	69	-10.8	17	0	982.3	NA	0.0000		9999	3940	4690	0	0
2019/05/25 17:56:00	BASE	13.61	272	17.44	273	-5.9	68	-10.9	16	0	982.3	NA	0.0000		9999	4130	0	0	0
2019/05/25 17:57:00	BASE	13.52	271	17.44	273	-5.9	67	-11.0	16	0	982.3	NA	0.0000		9999	4040	0	0	0
2019/05/25 17:58:00	BASE	13.09	272	17.44	273	-5.9	67	-11.0	15	0	982.3	NA	0.0000		9999	3940	0	0	0
2019/05/25 17:59:00	BASE	13.53	275	17.44	273	-5.9	67	-10.9	15	0	982.4	NA	0.0000		9999	4000	0	0	0
2019/05/25 18:00:00	BASE	12.83	279	17.44	273	-5.8	68	-10.8	15	0	982.3	NA	0.0000		9999	4040	5580	0	0
2019/05/25 18:01:00	BASE	13.69	283	18.31	297	-5.9	69	-10.7	15	0	982.3	NA	0.0000		9999	4360	0	0	0
2019/05/25 18:02:00	BASE	14.77	286	18.31	297	-5.9	69	-10.6	14	0	982.3	NA	0.0000		9999	4890	0	0	0
2019/05/25 18:03:00	BASE	14.74	289	18.31	297	-5.9	70	-10.6	14	0	982.3	NA	0.0000		9999	2560	4490	0	0
2019/05/25 18:04:00	BASE	13.32	282	18.31	297	-5.9	70	-10.5	13	0	982.4	NA	0.0000		9999	2660	4920	0	0
2019/05/25 18:05:00	BASE	11.80	273	18.31	297	-5.9	70	-10.5	13	0	982.4	NA	0.0000		9999	2620	0	0	0
2019/05/25 18:06:00	BASE	12.24	274	18.31	297	-6.0	71	-10.4	13	0	982.4	NA	0.0000		9999	2590	0	0	0
2019/05/25 18:07:00	BASE	12.93	276	18.31	297	-6.0	71	-10.3	12	0	982.3	NA	0.0000		9999	2660	0	0	0
2019/05/25 18:08:00	BASE	13.81	269	18.31	297	-6.0	72	-10.3	12	0	982.4	NA	0.0000		9999	2720	3740	4100	0
2019/05/25 18:09:00	BASE	14.92	262	18.31	297	-6.0	72	-10.3	12	0	982.4	NA	0.0000		9999	3900	0	0	0
2019/05/25 18:10:00	BASE	15.78	263	19.70	262	-6.1	72	-10.3	12	0	982.4	NA	0.0000		9999	3480	0	0	0
2019/05/25 18:11:00	BASE	14.81	267	19.70	262	-6.2	72	-10.4	12	0	982.4	NA	0.0000		9999	3710	0	0	0
2019/05/25 18:12:00	BASE	14.22	266	19.70	262	-6.2	72	-10.5	13	0	982.4	NA	0.0000		9999	3150	0	0	0
2019/05/25 18:13:00	BASE	14.31	262	19.70	262	-6.3	72	-10.6	12	0	982.4	NA	0.0000		9999	3280	0	0	0
2019/05/25 18:14:00	BASE	15.48	264	19.70	262	-6.4	71	-10.7	12	0	982.4	NA	0.0000		9999	3410	4200	0	0
2019/05/25 18:15:00	BASE	14.95	268	19.70	262	-6.4	71	-10.8	12	0	982.4	NA	0.0000		9999	3450	4000	0	0
2019/05/25 18:16:00	BASE	12.42	269	19.70	262	-6.4	70	-10.9	12	0	982.4	NA	0.0000		9999	3510	0	0	0
2019/05/25 18:17:00	BASE	12.46	266	19.70	262	-6.4	70	-11.0	13	0	982.5	NA	0.0000		9999	3670	0	0	0
2019/05/25 18:18:00	BASE	12.67	269	19.70	262	-6.4	69	-11.1	13	0	982.4	NA	0.0000		9999	3510	0	0	0
2019/05/25 18:19:00	BASE	12.94	266	19.70	262	-6.4	69	-11.2	12	0	982.5	NA	0.0000		9999	3220	3900	0	0
2019/05/25 18:20:00	BASE	13.03	263	18.93	260	-6.4	68	-11.3	12	0	982.5	NA	0.0000		9999	3280	3940	0	0
2019/05/25 18:21:00	BASE	12.28	266	18.93	260	-6.4	68	-11.3	11	0	982.5	NA	0.0000		9999	3350	0	0	0
2019/05/25 18:22:00	BASE	11.05	265	18.93	260	-6.4	67	-11.4	10	0	982.5	NA	0.0000		9999	3870	0	0	0
2019/05/25 18:23:00	BASE	11.72	264	18.93	260	-6.3	67	-11.4	9	0	982.5	NA	0.0000		9999	3970	0	0	0
2019/05/25 18:24:00	BASE	13.34	264	16.62	269	-6.3	67	-11.4	8	0	982.6	NA	0.0000		9999	3350	4230	0	0
2019/05/25 18:25:00	BASE	14.02	261	16.62	269	-6.4	67	-11.4	7	0	982.5	NA	0.0000		9999	3610	0	0	0
2019/05/25 18:26:00	BASE	14.03	267	16.62	269	-6.4	67	-11.5	6	0	982.5	NA	0.0000		9999	3480	0	0	0
2019/05/25 18:27:00	BASE	13.28	270	16.62	269	-6.4	67	-11.5	6	0	982.5	NA	0.0000		9999	3900	0	0	0
2019/05/25 18:28:00	BASE	14.01	262	16.62	269	-6.5	67	-11.7	6	0	982.5	NA	0.0000		9999	0	0	0	0
2019/05/25 18:29:00	BASE	14.98	259	17.18	258	-6.5	67	-11.7	6	0	982.5	NA	0.0000		9999	4330	0	0	0
2019/05/25 18:30:00	BASE	15.05	258	17.18	258	-6.5	67	-11.7	5	0	982.6	NA	0.0000		9999	4300	0	0	0
2019/05/25 18:31:00	BASE	14.15	258	17.18	258	-6.6	67	-11.7	5	0	982.6	NA	0.0000		9999	5020	0	0	0
2019/05/25 18:32:00	BASE	12.70	258	17.18	258	-6.6	68	-11.6	5	0	982.6	NA	0.0000		9999	5090	0	0	0
2019/05/25 18:33:00	BASE	12.26	253	17.18	258	-6.6	68	-11.5	4	0	982.6	NA	0.0000		9999	4560	0	0	0
2019/05/25 18:34:00	BASE	12.79	258	17.18	258	-6.7	69	-11.5	4	0	982.6	NA	0.0000		9999	2990	3540	4820	0
2019/05/25 18:35:00	BASE	11.83	269	17.18	258	-6.7	69	-11.5	4	0	982.6	NA	0.0000		9999	2820	0	0	0
2019/05/25 18:36:00	BASE	10.78	273	17.18	258	-6.7	69	-11.4	4	0	982.6	NA	0.0000		9999	2850	3640	0	0
2019/05/25 18:37:00	BASE	11.73	274	17.18	258	-6.7	69	-11.4	3	0	982.6	NA	0.0000		9999	2890	0	0	0
2019/05/25 18:38:00	BASE	11.60	268	17.18	258	-6.7	69	-11.4	3	0	982.6	NA	0.0000		9999	2760	0	0	0
2019/05/25 18:39:00	BASE	11.41	269	16.87	254	-6.6	69	-11.4	3	0	982.6	NA	0.0000		9999	3220	0	0	0
2019/05/25 18:40:00	BASE	11.91	271	15.59	258	-6.6	69	-11.4	3	0	982.6	NA	0.0000		9999	2950	0	0	0
2019/05/25 18:41:00	BASE	11.72	267	15.38	263	-6.7	69	-11.5	3	0	982.6	NA	0.0000		9999	2890	0	0	0
2019/05/25 18:42:00	BASE	11.24	268	15.38	263	-6.7	68	-11.6	3	0	982.5	NA	0.0000		9999	2760	0	0	0
2019/05/25 18:43:00	BASE	10.30	264	15.02	264	-6.7	68	-11.7	3	0	982.6	NA	0.0000		9999	2920	0	0	0
2019/05/25 18:44:00	BASE	10.04	258	13.58	271	-6.7	67	-11.8	3	0	982.6	NA	0.0000		9999	3050	0	0	0
2019/05/25 18:45:00	BASE	9.85	260	13.58	271	-6.7	67	-11.9	2	0	982.6	NA	0.0000		9999	3020	0	0	0
2019/05/25 18:46:00	BASE	8.81	271	13.58	271	-6.7	66	-12.0	2	0	982.6	NA	0.0000		9999	3150	0	0	0
2019/05/25 18:47:00	BASE	8.50	279	13.58	271	-6.7	66	-12.0	2	0	982.6	NA	0.0000		9999	3180	0	0	0
2019/05/25 18:48:00	BASE	8.17	281	13.58	271	-6.8	66	-12.1	2	0	982.6	NA	0.0000		9999	3150	0	0	0
2019/05/25 18:49:00	BASE	7.43	274	13.22	270	-6.8	65	-12.2	2	0	982.6	NA	0.0000		9999	3280	3870	0	0
2019/05/25 18:50:00	BASE	8.52	272	13.22	270	-6.8	65	-12.2	2	0	982.5	NA	0.0000		9999	3310	0	0	0
2019/05/25 18:51:00	BASE	9.86	284	13.22	270	-6.7	65	-12.3	2	0	982.5	NA	0.0000		9999	2890	3740	0	0
2019/05/25 18:52:00	BASE	10.85	295	13.43	299	-6.7	64	-12.3	2	0	982.5	NA	0.0000		9999	2950	3770	0	0
2019/05/25 18:53:00	BASE	11.03	293	13.43	299	-6.7	65	-12.2	2	0	982.5	NA	0.0000		9999	2820	0	0	0
2019/05/25 18:54:00	BASE	9.46	286	13.43	299	-6.6	65	-12.1	2	0	982.6	NA	0.0000		9999	2890	0	0	0
2019/05/25 18:55:00	BASE	7.95	282	13.43	299	-6.6	66	-11.9	1	0	982.6	NA	0.0000		9999	2850	0	0	0
2019/05/25 18:56:00	BASE	8.16	276	13.43	299	-6.6	67	-11.7	1	0	982.5	NA	0.0000		9999	3050	0	0	0
2019/05/25 18:57:00	BASE	9.59	276	13.43	299	-6.6	67	-11.7	1	0	982.5	NA	0.0000		9999	3050	0	0	0
2019/05/25 18:58:00	BASE	10.66	284	13.43	299	-6.7	67	-11.7	1	0	982.5	NA	0.0000		9999	3020	0	0	0
2019/05/25 18:59:00	BASE	10.88	291	13.43	299	-6.7	67	-11.7	1	0	982.5	NA	0.0000		9999	2850	0	0	0
2019/05/25 19:00:00	BASE	11.01	292	13.43	299	-6.7	67	-11.8	1	0	982.4	NA	0.0000		9999	2760	0	0	0
2019/05/25 19:01:00	BASE	10.19	290	13.43	299	-6.7	67	-11.8	1	0	982.4	NA	0.0000		9999	2760	0	0	0
2019/05/25 19:02:00	BASE	9.16	270	12.24	294	-6.7	67	-11.9	1	0	982.5	NA	0.0000		9999	2720	0	0	0
2019/05/25 19:03:00	BASE	9.46	257	12.24	294	-6.8	67	-11.9	1	0	982.5	NA	0.0000		9999	3050	0	0	0
2019/05/25 19:04:00	BASE	10.54	271	13.94	284	-6.7	67	-11.8	1	0	982.4	NA	0.0000		9999	3450	0	0	0
2019/05/25 19:05:00	BASE	10.43	283	13.94	284	-6.7	67	-11.8	1	0	982.4	NA	0.0000		9999	3180	0	0	0
2019/05/25 19:06:00	BASE	10.34	287	13.94	284	-6.7	68	-11.7	1	0	982.4	NA	0.0000		9999	3410	0	0	0
2019/05/25 19:07:00	BASE	10.16	283	13.94	284	-6.7	68	-11.7	1	0	982.4	NA	0.0000		9999	3640	0	0	0
2019/05/25 19:08:00	BASE	10.27	279	13.94	284	-6.7	67	-11.8	1	0	982.4	NA	0.0000		9999	3450	0	0	0
2019/05/25 19:09:00	BASE	11.15	283	13.94	284	-6.8	67	-11.9	1	0	982.4	NA	0.0000		9999	2920	0	0	0
2019/05/25 19:10:00	BASE	10.13	288	13.94	284	-6.8	67	-12.0	1	0	982.4	NA	0.0000		9999	3120	0	0	0
2019/05/25 19:11:00	BASE	10.98	291	13.94	284	-6.8	66	-12.1	1	0	982.4	NA	0.0000		9999	3020	0	0	0
2019/05/25 19:12:00	BASE	11.61	296	13.94	284	-6.8	66	-12.1	1	0	982.4	NA	0.0000		9999	2720	0	0	0
2019/05/25 19:13:00	BASE	10.89	299	13.94	284	-6.8	66	-12.1	1	0	982.4	NA	0.0000		9999	2590	0	0	0
2019/05/25 19:14:00	BASE	10.74	298	13.89	280	-6.8	66	-12.1	1	0	982.5	NA	0.0000		9999	2760	0	0	0
2019/05/25 19:15:00	BASE	9.94	298	13.89	280	-6.8	66	-12.0	1	0	982.6	NA	0.0000		9999	2660	0	0	0
2019/05/25 19:16:00	BASE	10.14	292	13.89	280	-6.8	67	-11.9	0	0	982.5	NA	0.0000		9999	2790	0	0	0
2019/05/25 19:17:00	BASE	10.11	280	13.89	280	-6.8	67	-11.9	0	0	982.5	NA	0.0000		9999	2720	0	0	0
2019/05/25 19:18:00	BASE	9.47	270	13.68	293	-6.7	67	-11.8	0	0	982.5	NA	0.0000		9999	2790	0	0	0
2019/05/25 19:19:00	BASE	10.41	274	13.68	293	-6.7	68	-11.7	0	0	982.5	NA	0.0000		9999	2850	0	0	0
2019/05/25 19:20:00	BASE	11.31	285	14.51	285	-6.7	68	-11.6	0	0	982.4	NA	0.0000		9999	2890	0	0	0
2019/05/25 19:21:00	BASE	12.37	291	14.51	285	-6.8	69	-11.6	0	0	982.4	NA	0.0000		9999	2890	3480	0	0
2019/05/25 19:22:00	BASE	13.12	292	14.51	285	-6.7	69	-11.5	0	0	982.4	NA	0.0000		9999	3250	0	0	0
2019/05/25 19:23:00	BASE	13.38	290	14.92	291	-6.8	69	-11.5	0	0	982.4	NA	0.0000		9999	3350	0	0	0
2019/05/25 19:24:00	BASE	13.68	289	14.92	291	-6.8	69	-11.5	0	0	982.4	NA	0.0000		9999	3220	0	0	0
2019/05/25 19:25:00	BASE	12.17	288	14.92	291	-6.8	69	-11.6	0	0	982.4	NA	0.0000		9999	3120	0	0	0
2019/05/25 19:26:00	BASE	10.66	291	14.92	291	-6.9	69	-11.6	0	0	982.4	NA	0.0000		9999	2660	0	0	0
2019/05/25 19:27:00	BASE	9.69	295	14.92	291	-6.9	69	-11.7	0	0	982.4	NA	0.0000		9999	2530	0	0	0
2019/05/25 19:28:00	BASE	8.93	290	14.92	291	-6.9	69	-11.7	0	0	982.4	NA	0.0000		9999	2530	0	0	0
2019/05/25 19:29:00	BASE	9.36	287	14.92	291	-6.9	69	-11.6	0	0	982.4	NA	0.0000		9999	2590	0	0	0
2019/05/25 19:30:00	BASE	10.43	284	14.92	291	-6.9	69	-11.6	0	0	982.5	NA	0.0000		9999	2620	0	0	0
2019/05/25 19:31:00	BASE	10.35	275	14.92	291	-6.9	69	-11.5	0	0	982.5	NA	0.0000		9999	2560	0	0	0
2019/05/25 19:32:00	BASE	9.79	275	14.92	291	-6.9	70	-11.4	0	0	982.5	NA	0.0000		9999	2660	0	0	0
2019/05/25 19:33:00	BASE	10.09	280	14.35	286	-6.9	70	-11.4	0	0	982.4	NA	0.0000		9999	2760	0	0	0
2019/05/25 19:34:00	BASE	10.11	276	13.68	291	-6.9	70	-11.4	0	0	982.5	NA	0.0000		9999	2850	0	0	0
2019/05/25 19:35:00	BASE	10.35	266	13.68	252	-6.9	70	-11.4	0	0	982.5	NA	0.0000		9999	2920	0	0	0
2019/05/25 19:36:00	BASE	10.87	267	14.35	284	-6.9	70	-11.4	0	0	982.5	NA	0.0000		9999	2920	0	0	0
2019/05/25 19:37:00	BASE	11.42	276	14.35	284	-6.8	70	-11.5	0	0	982.5	NA	0.0000		9999	3120	0	0	0
2019/05/25 19:38:00	BASE	11.04	274	14.35	284	-6.9	69	-11.6	0	0	982.5	NA	0.0000		9999	3150	0	0	0
2019/05/25 19:39:00	BASE	11.19	271	14.35	284	-6.9	69	-11.7	0	0	982.5	NA	0.0000		9999	3150	0	0	0
2019/05/25 19:40:00	BASE	12.21	269	14.51	262	-6.9	68	-11.9	0	0	982.5	NA	0.0000		9999	3410	0	0	0
2019/05/25 19:41:00	BASE	11.33	270	14.51	262	-7.0	67	-12.0	0	0	982.6	NA	0.0000		9999	3150	0	0	0
2019/05/25 19:42:00	BASE	10.12	268	14.51	262	-7.0	67	-12.1	0	0	982.5	NA	0.0000		9999	3150	0	0	0
2019/05/25 19:43:00	BASE	8.76	268	14.51	262	-6.9	66	-12.2	0	0	982.6	NA	0.0000		9999	3450	0	0	0
2019/05/25 19:44:00	BASE	8.52	275	14.51	262	-7.0	66	-12.3	0	0	982.5	NA	0.0000		9999	3410	0	0	0
2019/05/25 19:45:00	BASE	9.13	278	14.51	262	-6.9	65	-12.4	0	0	982.5	NA	0.0000		9999	3380	0	0	0
2019/05/25 19:46:00	BASE	9.02	282	14.51	262	-6.9	65	-12.4	0	0	982.5	NA	0.0000		9999	3120	0	0	0
2019/05/25 19:47:00	BASE	8.75	286	14.51	262	-7.0	65	-12.5	0	0	982.6	NA	0.0000		9999	3120	0	0	0
2019/05/25 19:48:00	BASE	8.54	285	14.51	262	-7.0	65	-12.4	0	0	982.6	NA	0.0000		9999	3310	0	0	0
2019/05/25 19:49:00	BASE	9.94	278	14.51	262	-6.9	65	-12.3	0	0	982.5	NA	0.0000		9999	3020	0	0	0
2019/05/25 19:50:00	BASE	10.12	273	12.66	275	-7.0	66	-12.2	0	0	982.5	NA	0.0000		9999	2790	3310	0	0
2019/05/25 19:51:00	BASE	9.80	278	13.22	290	-7.0	67	-12.1	0	0	982.6	NA	0.0000		9999	2890	0	0	0
2019/05/25 19:52:00	BASE	10.02	288	13.22	290	-7.0	67	-12.1	0	0	982.6	NA	0.0000		9999	2760	0	0	0
2019/05/25 19:53:00	BASE	10.00	291	13.22	290	-7.1	68	-12.0	0	0	982.6	NA	0.0000		9999	2760	0	0	0
2019/05/25 19:54:00	BASE	10.59	293	13.22	290	-7.1	68	-12.0	0	0	982.6	NA	0.0000		9999	2890	0	0	0
2019/05/25 19:55:00	BASE	10.81	297	13.22	290	-7.1	68	-12.0	0	0	982.6	NA	0.0000		9999	2790	0	0	0
2019/05/25 19:56:00	BASE	10.41	296	13.22	290	-7.1	68	-12.0	0	0	982.6	NA	0.0000		9999	3480	0	0	0
2019/05/25 19:57:00	BASE	10.51	286	13.22	290	-7.1	68	-12.0	0	0	982.6	NA	0.0000		9999	2790	0	0	0
2019/05/25 19:58:00	BASE	10.91	289	13.22	290	-7.1	68	-12.0	0	0	982.6	NA	0.0000		9999	2820	0	0	0
2019/05/25 19:59:00	BASE	10.17	300	13.22	290	-7.2	68	-12.1	0	0	982.6	NA	0.0000		9999	2850	0	0	0
2019/05/25 20:00:00	BASE	9.83	299	13.22	290	-7.1	68	-12.1	0	0	982.6	NA	0.0000		9999	2850	0	0	0
2019/05/25 20:01:00	BASE	8.88	295	13.02	281	-7.1	68	-12.0	0	0	982.6	NA	0.0000		9999	2950	0	0	0
2019/05/25 20:02:00	BASE	7.64	296	13.02	281	-7.1	68	-12.0	0	0	982.6	NA	0.0000		9999	2460	0	0	0
2019/05/25 20:03:00	BASE	7.94	301	13.02	281	-7.1	68	-11.9	0	0	982.6	NA	0.0000		9999	2400	0	0	0
2019/05/25 20:04:00	BASE	9.34	304	13.02	281	-7.1	69	-11.8	0	0	982.5	NA	0.0000		9999	2430	0	0	0
2019/05/25 20:05:00	BASE	10.69	304	13.02	281	-7.1	69	-11.8	0	0	982.5	NA	0.0000		9999	2530	0	0	0
2019/05/25 20:06:00	BASE	11.16	297	13.02	281	-7.1	70	-11.6	0	0	982.5	NA	0.0000		9999	2690	0	0	0
2019/05/25 20:07:00	BASE	11.74	285	13.07	282	-7.0	70	-11.5	0	0	982.5	NA	0.0000		9999	2590	0	0	0
2019/05/25 20:08:00	BASE	11.20	282	13.07	282	-7.1	71	-11.5	0	0	982.6	NA	0.0000		9999	2560	0	0	0
2019/05/25 20:09:00	BASE	10.02	280	13.07	282	-7.1	71	-11.5	0	0	982.6	NA	0.0000		9999	2690	0	0	0
2019/05/25 20:10:00	BASE	9.55	284	13.07	282	-7.1	71	-11.4	0	0	982.6	NA	0.0000		9999	2660	0	0	0
2019/05/25 20:11:00	BASE	9.11	293	13.07	282	-7.1	71	-11.5	0	0	982.6	NA	0.0000		9999	2790	0	0	0
2019/05/25 20:12:00	BASE	10.41	301	13.07	282	-7.1	71	-11.5	0	0	982.6	NA	0.0000		9999	2530	0	0	0
2019/05/25 20:13:00	BASE	11.79	302	13.07	282	-7.1	71	-11.5	0	0	982.6	NA	0.0000		9999	2590	0	0	0
2019/05/25 20:14:00	BASE	11.63	290	13.07	282	-7.1	71	-11.5	0	0	982.6	NA	0.0000		9999	2430	0	0	0
2019/05/25 20:15:00	BASE	11.25	279	13.07	282	-7.1	70	-11.6	0	0	982.6	NA	0.0000		9999	2560	0	0	0
2019/05/25 20:16:00	BASE	9.88	278	13.07	282	-7.1	70	-11.6	0	0	982.6	NA	0.0000		9999	2530	0	0	0
2019/05/25 20:17:00	BASE	9.68	278	13.48	283	-7.1	70	-11.7	0	0	982.6	NA	0.0000		9999	2720	0	0	0
2019/05/25 20:18:00	BASE	10.64	280	13.48	283	-7.1	70	-11.7	0	0	982.6	NA	0.0000		9999	2590	0	0	0
2019/05/25 20:19:00	BASE	11.19	288	13.48	283	-7.2	70	-11.7	0	0	982.6	NA	0.0000		9999	2760	0	0	0
2019/05/25 20:20:00	BASE	12.19	297	13.58	302	-7.2	70	-11.8	0	0	982.6	NA	0.0000		9999	2660	0	0	0
2019/05/25 20:21:00	BASE	13.06	299	14.66	296	-7.2	69	-11.9	0	0	982.5	NA	0.0000		9999	2760	0	0	0
2019/05/25 20:22:00	BASE	12.05	297	14.66	296	-7.2	69	-12.0	0	0	982.6	NA	0.0000		9999	2760	0	0	0
2019/05/25 20:23:00	BASE	10.13	301	14.66	296	-7.2	68	-12.1	0	0	982.6	NA	0.0000		9999	2620	0	0	0
2019/05/25 20:24:00	BASE	9.18	300	14.66	296	-7.3	68	-12.1	0	0	982.6	NA	0.0000		9999	2590	3540	0	0
2019/05/25 20:25:00	BASE	7.74	296	14.66	296	-7.3	68	-12.2	0	0	982.6	NA	0.0000		9999	3480	0	0	0
2019/05/25 20:26:00	BASE	7.04	299	14.66	296	-7.3	68	-12.2	0	0	982.6	NA	0.0000		9999	2430	3120	0	0
2019/05/25 20:27:00	BASE	8.32	301	14.66	296	-7.3	68	-12.2	0	0	982.6	NA	0.0000		9999	2360	3220	0	0
2019/05/25 20:28:00	BASE	8.91	307	14.66	296	-7.3	68	-12.2	0	0	982.6	NA	0.0000		9999	2950	3670	0	0
2019/05/25 20:29:00	BASE	8.46	311	14.66	296	-7.3	68	-12.2	0	0	982.6	NA	0.0000		9999	3350	0	0	0
2019/05/25 20:30:00	BASE	7.70	314	14.66	296	-7.3	68	-12.2	0	0	982.6	NA	0.0000		9999	3220	0	0	0
2019/05/25 20:31:00	BASE	6.90	316	13.74	296	-7.3	68	-12.2	0	0	982.6	NA	0.0000		9999	3080	0	0	0
2019/05/25 20:32:00	BASE	6.64	319	10.80	312	-7.3	68	-12.2	0	0	982.6	NA	0.0000		9999	3080	0	0	0
2019/05/25 20:33:00	BASE	6.34	326	10.19	295	-7.3	68	-12.2	0	0	982.6	NA	0.0000	-SN	9999	2820	0	0	0
2019/05/25 20:34:00	BASE	6.07	323	9.88	299	-7.3	68	-12.1	0	0	982.6	NA	0.0000	-SN	9999	3180	0	0	0
2019/05/25 20:35:00	BASE	7.10	311	9.93	305	-7.3	69	-12.1	0	0	982.6	NA	0.0000	-SN	9999	3180	0	0	0
2019/05/25 20:36:00	BASE	8.35	304	9.93	305	-7.3	69	-12.0	0	0	982.6	NA	0.0000	-SN	9999	3050	0	0	0
2019/05/25 20:37:00	BASE	7.74	303	9.93	305	-7.3	70	-11.9	0	0	982.6	NA	0.0000	-SN	9999	3080	0	0	0
2019/05/25 20:38:00	BASE	6.53	306	9.93	305	-7.3	70	-11.9	0	0	982.6	NA	0.0000	-SN	9999	3050	0	0	0
2019/05/25 20:39:00	BASE	5.91	305	9.93	305	-7.3	70	-11.8	0	0	982.6	NA	0.0000	-SN	9999	3020	0	0	0
2019/05/25 20:40:00	BASE	5.51	310	9.93	305	-7.3	70	-11.9	0	0	982.5	NA	0.0000	-SN	9999	2790	0	0	0
2019/05/25 20:41:00	BASE	5.93	325	9.93	305	-7.3	70	-11.9	0	0	982.4	NA	0.0000	-SN	9999	2760	0	0	0
2019/05/25 20:42:00	BASE	6.17	323	9.93	305	-7.3	70	-11.9	0	0	982.5	NA	0.0000		9999	2560	0	0	0
2019/05/25 20:43:00	BASE	6.13	321	9.93	305	-7.3	70	-11.9	0	0	982.4	NA	0.0000		9999	2490	0	0	0
2019/05/25 20:44:00	BASE	6.71	326	9.93	305	-7.3	69	-11.9	0	0	982.4	NA	0.0000		9999	2530	0	0	0
2019/05/25 20:45:00	BASE	6.48	322	9.31	306	-7.3	70	-11.9	0	0	982.5	NA	0.0000		9999	360	0	0	0
2019/05/25 20:46:00	BASE	5.21	320	7.82	336	-7.3	70	-11.9	0	0	982.5	NA	0.0000		9999	330	1380	0	0
2019/05/25 20:47:00	BASE	5.03	323	7.82	336	-7.3	70	-11.9	0	0	982.6	NA	0.0000	-SN	9000	360	2820	0	0
2019/05/25 20:48:00	BASE	5.36	332	7.82	336	-7.3	70	-11.8	0	0	982.5	NA	0.0000	-SN	9999	460	0	0	0
2019/05/25 20:49:00	BASE	5.10	339	7.82	336	-7.3	70	-11.8	0	0	982.5	NA	0.0000	-SN	9999	430	2400	0	0
2019/05/25 20:50:00	BASE	5.68	330	7.82	336	-7.3	70	-11.8	0	0	982.4	NA	0.0000	-SN	9999	850	2460	0	0
2019/05/25 20:51:00	BASE	5.86	327	8.49	330	-7.3	70	-11.8	0	0	982.4	NA	0.0000	-SN	9999	2400	0	0	0
2019/05/25 20:52:00	BASE	5.81	310	8.49	330	-7.2	70	-11.8	0	0	982.4	NA	0.0000	-SN	9999	2360	0	0	0
2019/05/25 20:53:00	BASE	5.73	288	8.49	330	-7.2	70	-11.7	0	0	982.4	NA	0.0000	-SN	9999	2400	0	0	0
2019/05/25 20:54:00	BASE	5.48	285	8.49	330	-7.2	70	-11.6	0	0	982.4	NA	0.0000	-SN	9999	2360	0	0	0
2019/05/25 20:55:00	BASE	6.79	287	9.00	295	-7.1	71	-11.6	0	0	982.4	NA	0.0000	-SN	9999	2360	0	0	0
2019/05/25 20:56:00	BASE	8.24	297	9.47	297	-7.1	71	-11.5	0	0	982.4	NA	0.0000	-SN	9999	2530	0	0	0
2019/05/25 20:57:00	BASE	8.34	298	9.47	297	-7.1	71	-11.4	0	0	982.4	NA	0.0000	-SN	9999	1900	2660	0	0
2019/05/25 20:58:00	BASE	7.91	290	9.47	297	-7.1	72	-11.4	0	0	982.4	NA	0.0000	-SN	9999	430	0	0	0
2019/05/25 20:59:00	BASE	7.25	286	9.47	297	-7.1	72	-11.3	0	0	982.3	NA	0.0000	-SN	9000	390	0	0	0
2019/05/25 21:00:00	BASE	6.75	289	9.47	297	-7.1	72	-11.3	0	0	982.3	NA	0.0000	-SN	8000	1020	2360	0	0
2019/05/25 21:01:00	BASE	6.87	292	9.47	297	-7.1	72	-11.3	0	0	982.3	NA	0.0000	-SN	9999	2360	0	0	0
2019/05/25 21:02:00	BASE	6.94	292	9.47	297	-7.1	72	-11.3	0	0	982.3	NA	0.0000	-SN	9999	2330	0	0	0
2019/05/25 21:03:00	BASE	6.15	292	9.47	297	-7.2	73	-11.2	0	0	982.4	NA	0.0000	-SN	9999	2300	0	0	0
2019/05/25 21:04:00	BASE	5.51	292	9.47	297	-7.2	73	-11.2	0	0	982.4	NA	0.0000	-SN	9999	2200	3020	0	0
2019/05/25 21:05:00	BASE	4.76	295	9.47	297	-7.2	73	-11.2	0	0	982.4	NA	0.0000	-SN	9999	2890	0	0	0
2019/05/25 21:06:00	BASE	4.30	302	8.80	282	-7.2	73	-11.3	0	0	982.4	NA	0.0000	-SN	9999	2260	2990	0	0
2019/05/25 21:07:00	BASE	5.02	306	8.80	282	-7.2	72	-11.3	0	0	982.4	NA	0.0000	-SN	9999	2260	0	0	0
2019/05/25 21:08:00	BASE	5.79	316	8.28	286	-7.2	72	-11.3	0	0	982.4	NA	0.0000	-SN	9999	2260	0	0	0
2019/05/25 21:09:00	BASE	6.22	323	7.92	298	-7.2	72	-11.3	0	0	982.3	NA	0.0000	-SN	9999	2260	2890	0	0
2019/05/25 21:10:00	BASE	5.74	328	7.92	298	-7.1	73	-11.1	0	0	982.4	NA	0.0000	-SN	9999	2300	0	0	0
2019/05/25 21:11:00	BASE	5.42	336	7.51	291	-7.0	73	-11.0	0	0	982.3	NA	0.0000	-SN	9999	2490	0	0	0
2019/05/25 21:12:00	BASE	5.74	337	8.08	333	-7.0	74	-10.9	0	0	982.3	NA	0.0000		9999	2430	0	0	0
2019/05/25 21:13:00	BASE	6.44	330	8.80	354	-7.0	74	-10.8	0	0	982.3	NA	0.0000	-SN	9999	2460	0	0	0
2019/05/25 21:14:00	BASE	6.28	305	8.80	354	-7.0	75	-10.8	0	0	982.3	NA	0.0000	-SN	9999	2400	0	0	0
2019/05/25 21:15:00	BASE	4.78	290	8.80	354	-7.0	75	-10.7	0	0	982.3	NA	0.0000	-SN	9999	2530	0	0	0
2019/05/25 21:16:00	BASE	4.47	307	8.80	354	-7.0	75	-10.7	0	0	982.3	NA	0.0000	-SN	9999	2660	0	0	0
2019/05/25 21:17:00	BASE	4.93	320	8.80	354	-7.0	75	-10.7	0	0	982.3	NA	0.0000	-SN	9999	2360	0	0	0
2019/05/25 21:18:00	BASE	4.74	312	8.80	354	-7.0	75	-10.6	0	0	982.3	NA	0.0000	-SN	9999	2130	0	0	0
2019/05/25 21:19:00	BASE	4.85	295	8.80	354	-7.0	76	-10.6	0	0	982.3	NA	0.0000	-SN	9999	2000	0	0	0
2019/05/25 21:20:00	BASE	6.31	288	9.11	297	-7.0	76	-10.5	0	0	982.3	NA	0.0000	-SN	8000	360	0	0	0
2019/05/25 21:21:00	BASE	9.67	295	13.07	298	-6.9	76	-10.4	0	0	982.3	NA	0.0000	-SN	6000	230	0	0	0
2019/05/25 21:22:00	BASE	11.73	303	13.07	298	-6.9	76	-10.3	0	0	982.3	NA	0.0000	-SN	9999	430	0	0	0
2019/05/25 21:23:00	BASE	12.24	310	14.35	305	-6.8	77	-10.2	0	0	982.2	NA	0.0000	-SN	9999	360	0	0	0
2019/05/25 21:24:00	BASE	13.50	311	15.07	300	-6.8	78	-10.0	0	0	982.2	NA	0.0000	-SN	9999	360	0	0	0
2019/05/25 21:25:00	BASE	13.73	301	15.07	300	-6.8	79	-9.8	0	0	982.2	NA	0.0000	-SN	9999	1120	2430	0	0
2019/05/25 21:26:00	BASE	12.66	295	15.07	300	-6.7	80	-9.7	0	0	982.2	NA	0.0000	-SN	9999	2620	0	0	0
2019/05/25 21:27:00	BASE	12.06	299	15.07	300	-6.7	81	-9.5	0	0	982.2	NA	0.0000	-SN	9999	1510	1970	0	0
2019/05/25 21:28:00	BASE	12.34	299	15.07	300	-6.7	82	-9.3	0	0	982.1	NA	0.0000	-SN	9999	1610	0	0	0
2019/05/25 21:29:00	BASE	11.94	298	15.07	300	-6.7	82	-9.2	0	0	982.1	NA	0.0000	-SN	9999	1970	2590	0	0
2019/05/25 21:30:00	BASE	10.09	299	15.07	300	-6.7	83	-9.1	0	0	982.1	NA	0.0000	-SN	9999	2430	0	0	0
2019/05/25 21:31:00	BASE	8.02	292	15.07	300	-6.7	83	-9.1	0	0	982.2	NA	0.0000	-SN	9999	1380	2620	0	0
2019/05/25 21:32:00	BASE	7.33	278	15.07	300	-6.7	84	-8.9	0	0	982.2	NA	0.0000		9999	1800	3150	0	0
2019/05/25 21:33:00	BASE	7.55	274	15.07	300	-6.7	84	-8.9	0	0	982.2	NA	0.0000		9999	1510	2950	0	0
2019/05/25 21:34:00	BASE	7.62	277	14.40	287	-6.7	85	-8.9	0	0	982.2	NA	0.0000		9999	2990	0	0	0
2019/05/25 21:35:00	BASE	8.21	283	13.99	300	-6.7	85	-8.9	0	0	982.2	NA	0.0000		9999	3310	0	0	0
2019/05/25 21:36:00	BASE	8.09	295	13.99	300	-6.8	85	-8.9	0	0	982.1	NA	0.0000		9999	1570	2300	0	0
2019/05/25 21:37:00	BASE	7.19	267	13.94	293	-6.8	85	-8.9	0	0	982.1	NA	0.0000		6000	360	0	0	0
2019/05/25 21:38:00	BASE	7.34	236	12.19	290	-6.8	85	-8.9	0	0	982.1	NA	0.0000	-SN	4000	0	0	0	2660
2019/05/25 21:39:00	BASE	8.63	236	11.57	229	-6.9	85	-9.0	0	0	982.1	NA	0.0000	-SN BR	4900	360	0	0	0
2019/05/25 21:40:00	BASE	10.36	232	12.24	230	-6.9	85	-9.0	0	0	982.1	NA	0.0000	-SN BR	9000	2620	0	0	0
2019/05/25 21:41:00	BASE	10.47	226	12.24	230	-6.9	85	-9.0	0	0	982.2	NA	0.0000	-SN BR	9000	360	0	0	0
2019/05/25 21:42:00	BASE	9.06	220	12.24	230	-7.0	85	-9.1	0	0	982.2	NA	0.0000	-SN BR	9999	2920	0	0	0
2019/05/25 21:43:00	BASE	7.97	212	12.24	230	-7.0	85	-9.1	0	0	982.2	NA	0.0000	-SN BR	9999	2720	0	0	0
2019/05/25 21:44:00	BASE	6.78	207	12.24	230	-7.0	84	-9.2	0	0	982.2	NA	0.0000	-SN BR	9999	2790	0	0	0
2019/05/25 21:45:00	BASE	5.86	207	12.24	230	-7.0	84	-9.3	0	0	982.2	NA	0.0000	-SN	9999	3020	0	0	0
2019/05/25 21:46:00	BASE	5.33	212	12.24	230	-7.1	84	-9.4	0	0	982.2	NA	0.0000	-SN	9999	2950	0	0	0
2019/05/25 21:47:00	BASE	4.40	224	12.24	230	-7.1	83	-9.4	0	0	982.2	NA	0.0000	-SN	9999	2820	0	0	0
2019/05/25 21:48:00	BASE	3.68	229	12.24	230	-7.1	83	-9.5	0	0	982.2	NA	0.0000	-SN	9999	2990	0	0	0
2019/05/25 21:49:00	BASE	3.44	241	12.24	230	-7.1	83	-9.5	0	0	982.2	NA	0.0000	-SN	9999	2950	0	0	0
2019/05/25 21:50:00	BASE	3.40	256	10.24	224	-7.1	83	-9.5	0	0	982.2	NA	0.0000	-SN	9999	2920	0	0	0
2019/05/25 21:51:00	BASE	3.66	259	9.21	218	-7.1	82	-9.6	0	0	982.2	NA	0.0000	-SN	9999	2790	0	0	0
2019/05/25 21:52:00	BASE	3.65	265	8.64	214	-7.0	82	-9.6	0	0	982.2	NA	0.0000	-SN	9999	720	0	0	0
2019/05/25 21:53:00	BASE	3.35	271	6.74	201	-7.0	82	-9.7	0	0	982.2	NA	0.0000	-SN	8000	360	0	0	0
2019/05/25 21:54:00	BASE	3.34	271	6.28	206	-7.0	81	-9.7	0	0	982.2	NA	0.0000	-SN	7000	2230	0	0	0
2019/05/25 21:55:00	BASE	2.79	261	5.66	215	-7.0	81	-9.8	0	0	982.2	NA	0.0000	-SN	9999	2170	0	0	0
2019/05/25 21:56:00	BASE	2.05	246	5.04	256	-7.0	80	-9.9	0	0	982.2	NA	0.0000	-SN	9999	2400	0	0	0
2019/05/25 21:57:00	BASE	2.24	252	5.04	256	-7.0	79	-10.0	0	0	982.2	NA	0.0000	-SN	9999	2850	0	0	0
2019/05/25 21:58:00	BASE	2.83	269	5.04	256	-7.0	79	-10.1	0	0	982.2	NA	0.0000	-SN	9999	2300	0	0	0
2019/05/25 21:59:00	BASE	3.09	270	5.04	256	-7.0	78	-10.1	0	0	982.2	NA	0.0000	-SN	9999	2100	0	0	0
2019/05/25 22:00:00	BASE	3.74	276	5.25	290	-6.9	78	-10.2	0	0	982.2	NA	0.0000	-SN	9000	390	0	0	0
2019/05/25 22:01:00	BASE	3.85	288	5.25	290	-6.9	77	-10.2	0	0	982.2	NA	0.0000	-SN	6000	390	0	0	0
2019/05/25 22:02:00	BASE	4.69	300	8.18	311	-6.8	77	-10.1	0	0	982.1	NA	0.0000	-SN	8000	1940	0	0	0
2019/05/25 22:03:00	BASE	7.61	308	10.34	316	-6.7	77	-10.1	0	0	982.0	NA	0.0000	-SN	9999	2030	0	0	0
2019/05/25 22:04:00	BASE	8.95	304	11.27	294	-6.7	77	-10.0	0	0	981.9	NA	0.0000	-SN	9999	2130	0	0	0
2019/05/25 22:05:00	BASE	7.18	292	11.27	294	-6.6	77	-9.9	0	0	981.8	NA	0.0000	-SN	9999	2030	0	0	0
2019/05/25 22:06:00	BASE	8.32	247	13.63	208	-6.6	78	-9.9	0	0	981.8	NA	0.0000	-SN	9999	1970	0	0	0
2019/05/25 22:07:00	BASE	10.91	212	13.63	208	-6.6	78	-9.9	0	0	981.9	NA	0.0000	-SN	9999	1940	0	0	0
2019/05/25 22:08:00	BASE	10.00	205	13.63	208	-6.7	78	-9.9	0	0	982.0	NA	0.0000	-SN	9000	1380	0	0	0
2019/05/25 22:09:00	BASE	8.32	193	13.63	208	-6.7	78	-10.0	0	0	982.0	NA	0.0000	-SN	5000	390	0	0	0
2019/05/25 22:10:00	BASE	6.27	201	13.63	208	-6.8	77	-10.1	0	0	982.1	NA	0.0000	-SN	5000	2430	0	0	0
2019/05/25 22:11:00	BASE	5.94	225	13.63	208	-6.9	77	-10.2	0	0	982.1	NA	0.0000	-SN	6000	2620	0	0	0
2019/05/25 22:12:00	BASE	6.40	238	13.63	208	-6.9	76	-10.4	0	0	982.1	NA	0.0000	-SN	7000	390	0	0	0
2019/05/25 22:13:00	BASE	6.51	229	13.63	208	-6.9	75	-10.5	0	0	982.1	NA	0.0000	-SN	9999	2560	0	0	0
2019/05/25 22:14:00	BASE	7.04	219	13.63	208	-6.9	75	-10.6	0	0	982.0	NA	0.0000	-SN	9999	2990	0	0	0
2019/05/25 22:15:00	BASE	7.70	212	13.63	208	-6.8	74	-10.6	0	0	982.0	NA	0.0000	-SN	9999	2720	3280	0	0
2019/05/25 22:16:00	BASE	8.62	202	13.02	213	-6.8	74	-10.7	0	0	982.0	NA	0.0000	-SN	9999	2660	3220	0	0
2019/05/25 22:17:00	BASE	8.05	208	9.83	204	-6.8	73	-10.8	0	0	982.0	NA	0.0000	-SN	9999	2590	0	0	0
2019/05/25 22:18:00	BASE	7.21	227	9.83	204	-6.8	73	-10.8	0	0	982.0	NA	0.0000	-SN	9999	2690	0	0	0
2019/05/25 22:19:00	BASE	7.48	241	9.83	204	-6.7	73	-10.8	0	0	982.0	NA	0.0000	-SN	9999	2590	0	0	0
2019/05/25 22:20:00	BASE	8.11	245	9.83	204	-6.7	72	-10.9	0	0	982.0	NA	0.0000	-SN	9999	2660	0	0	0
2019/05/25 22:21:00	BASE	8.04	247	9.88	251	-6.7	72	-10.9	0	0	982.0	NA	0.0000	-SN	9999	2620	0	0	0
2019/05/25 22:22:00	BASE	7.34	239	9.88	251	-6.7	72	-10.9	0	0	982.1	NA	0.0000	-SN	9999	2690	0	0	0
2019/05/25 22:23:00	BASE	7.11	228	9.88	251	-6.8	72	-11.0	0	0	982.1	NA	0.0000	-SN	9999	2690	0	0	0
2019/05/25 22:24:00	BASE	6.21	229	9.88	251	-6.8	72	-11.0	0	0	982.1	NA	0.0000		9999	2760	0	0	0
2019/05/25 22:25:00	BASE	4.65	229	9.88	251	-6.8	72	-11.0	0	0	982.1	NA	0.0000		9999	2760	0	0	0
2019/05/25 22:26:00	BASE	4.55	223	9.88	251	-6.8	72	-11.0	0	0	982.1	NA	0.0000		9999	2620	0	0	0
2019/05/25 22:27:00	BASE	4.66	223	9.88	251	-6.8	72	-11.0	0	0	982.1	NA	0.0000		9999	2530	0	0	0
2019/05/25 22:28:00	BASE	4.98	233	9.88	251	-6.8	72	-11.0	0	0	982.1	NA	0.0000		9999	2620	0	0	0
2019/05/25 22:29:00	BASE	7.45	239	10.49	247	-6.8	71	-11.1	0	0	982.0	NA	0.0000		9999	2620	0	0	0
2019/05/25 22:30:00	BASE	9.32	241	10.55	241	-6.8	71	-11.1	0	0	982.1	NA	0.0000		9999	2620	0	0	0
2019/05/25 22:31:00	BASE	9.31	252	10.55	241	-6.8	71	-11.2	0	0	982.1	NA	0.0000		9999	2760	0	0	0
2019/05/25 22:32:00	BASE	7.96	257	10.55	241	-6.8	71	-11.2	0	0	982.1	NA	0.0000		9999	2690	0	0	0
2019/05/25 22:33:00	BASE	6.73	247	10.55	241	-6.8	71	-11.3	0	0	982.1	NA	0.0000		9999	2760	0	0	0
2019/05/25 22:34:00	BASE	5.94	240	10.55	241	-6.8	70	-11.3	0	0	982.1	NA	0.0000		9999	2720	0	0	0
2019/05/25 22:35:00	BASE	4.95	245	10.55	241	-6.8	70	-11.4	0	0	982.1	NA	0.0000		9999	2820	0	0	0
2019/05/25 22:36:00	BASE	5.27	245	10.55	241	-6.8	69	-11.5	0	0	982.0	NA	0.0000		9999	2790	0	0	0
2019/05/25 22:37:00	BASE	6.93	234	10.55	241	-6.8	69	-11.5	0	0	982.0	NA	0.0000		9999	2760	0	0	0
2019/05/25 22:38:00	BASE	8.47	231	10.55	241	-6.8	69	-11.5	0	0	982.0	NA	0.0000		9999	2820	0	0	0
2019/05/25 22:39:00	BASE	9.47	240	11.63	243	-6.7	69	-11.4	0	0	982.0	NA	0.0000		9999	2790	0	0	0
2019/05/25 22:40:00	BASE	9.88	248	11.63	243	-6.7	69	-11.3	0	0	982.0	NA	0.0000		9999	2790	0	0	0
2019/05/25 22:41:00	BASE	8.46	256	11.63	243	-6.6	69	-11.3	0	0	982.0	NA	0.0000		9999	3020	0	0	0
2019/05/25 22:42:00	BASE	7.18	262	11.63	243	-6.6	70	-11.2	0	0	982.0	NA	0.0000		9999	2920	0	0	0
2019/05/25 22:43:00	BASE	7.44	255	11.63	243	-6.6	70	-11.2	0	0	982.0	NA	0.0000		9999	3050	0	0	0
2019/05/25 22:44:00	BASE	8.60	249	11.63	243	-6.6	70	-11.2	0	0	982.0	NA	0.0000		9999	2990	0	0	0
2019/05/25 22:45:00	BASE	9.87	248	11.68	253	-6.7	70	-11.2	0	0	982.0	NA	0.0000		9999	2690	0	0	0
2019/05/25 22:46:00	BASE	8.86	250	11.68	253	-6.7	70	-11.2	0	0	982.0	NA	0.0000		9999	2850	0	0	0
2019/05/25 22:47:00	BASE	7.07	252	11.68	253	-6.7	70	-11.3	0	0	982.1	NA	0.0000		9999	3020	0	0	0
2019/05/25 22:48:00	BASE	7.54	240	11.68	253	-6.7	69	-11.5	0	0	982.0	NA	0.0000		9999	2890	0	0	0
2019/05/25 22:49:00	BASE	10.27	230	13.89	236	-6.7	68	-11.6	0	0	982.0	NA	0.0000		9999	2790	3410	0	0
2019/05/25 22:50:00	BASE	11.27	227	13.89	236	-6.7	67	-11.8	0	0	982.0	NA	0.0000		9999	2820	0	0	0
2019/05/25 22:51:00	BASE	10.06	226	13.89	236	-6.7	67	-11.8	0	0	982.0	NA	0.0000		9999	2890	0	0	0
2019/05/25 22:52:00	BASE	9.33	235	13.89	236	-6.7	67	-11.8	0	0	982.0	NA	0.0000		9999	2130	0	0	0
2019/05/25 22:53:00	BASE	8.21	246	13.89	236	-6.7	67	-11.8	0	0	982.1	NA	0.0000	-SN	9999	2660	0	0	0
2019/05/25 22:54:00	BASE	7.11	245	13.89	236	-6.7	67	-11.8	0	0	982.1	NA	0.0000	-SN	9999	2660	0	0	0
2019/05/25 22:55:00	BASE	6.19	242	13.89	236	-6.7	68	-11.7	0	0	982.0	NA	0.0000	-SN	9999	2820	0	0	0
2019/05/25 22:56:00	BASE	6.52	245	13.89	236	-6.8	68	-11.7	0	0	982.0	NA	0.0000	-SN	9999	2790	0	0	0
2019/05/25 22:57:00	BASE	7.11	246	13.89	236	-6.8	68	-11.7	0	0	982.0	NA	0.0000	-SN	9999	2890	0	0	0
2019/05/25 22:58:00	BASE	7.41	246	13.89	236	-6.8	68	-11.7	0	0	982.0	NA	0.0000	-SN	9999	2850	0	0	0
2019/05/25 22:59:00	BASE	9.29	237	13.02	221	-6.8	68	-11.7	0	0	982.0	NA	0.0000	-SN	9999	2400	3080	0	0
2019/05/25 23:00:00	BASE	11.19	223	13.02	221	-6.8	69	-11.6	0	0	982.0	NA	0.0000	-SN	9000	1870	0	0	0
2019/05/25 23:01:00	BASE	11.36	220	13.02	221	-6.8	69	-11.5	0	0	982.0	NA	0.0000	-SN	9999	2100	0	0	0
2019/05/25 23:02:00	BASE	10.38	220	13.02	221	-6.8	70	-11.3	0	0	982.0	NA	0.0000	-SN	9999	1770	2950	0	0
2019/05/25 23:03:00	BASE	9.77	218	13.02	221	-6.9	72	-11.2	0	0	982.1	NA	0.0000	-SN	6000	360	0	0	0
2019/05/25 23:04:00	BASE	8.82	219	13.02	221	-7.0	73	-11.0	0	0	982.1	NA	0.0000	-SN	4600	360	2330	0	0
2019/05/25 23:05:00	BASE	7.53	212	13.02	221	-7.0	74	-10.9	0	0	982.1	NA	0.0000	-SN	5000	1640	0	0	0
2019/05/25 23:06:00	BASE	6.65	220	13.02	221	-7.0	75	-10.7	0	0	982.1	NA	0.0000	-SN	6000	660	0	0	0
2019/05/25 23:07:00	BASE	5.11	237	13.02	221	-7.1	76	-10.6	0	0	982.1	NA	0.0000	-SN	9000	1670	0	0	0
2019/05/25 23:08:00	BASE	3.11	247	13.02	221	-7.1	77	-10.5	0	0	982.1	NA	0.0000	-SN	9999	1610	0	0	0
2019/05/25 23:09:00	BASE	3.67	226	12.24	215	-7.1	77	-10.4	0	0	982.1	NA	0.0000	-SN	9999	2000	0	0	0
2019/05/25 23:10:00	BASE	6.46	202	11.99	221	-7.1	78	-10.4	0	0	982.1	NA	0.0000	-SN	9999	2100	0	0	0
2019/05/25 23:11:00	BASE	7.63	208	11.21	220	-7.1	78	-10.3	0	0	982.1	NA	0.0000	-SN	9999	2230	0	0	0
2019/05/25 23:12:00	BASE	7.78	214	11.21	220	-7.1	78	-10.3	0	0	982.2	NA	0.0000	-SN	8000	390	0	0	0
2019/05/25 23:13:00	BASE	7.54	215	9.05	215	-7.1	78	-10.3	0	0	982.2	NA	0.0000	-SN	7000	1770	2790	0	0
2019/05/25 23:14:00	BASE	6.67	232	9.05	215	-7.1	78	-10.3	0	0	982.2	NA	0.0000	-SN	9999	1800	0	0	0
2019/05/25 23:15:00	BASE	6.22	254	9.05	215	-7.1	78	-10.3	0	0	982.2	NA	0.0000	-SN	9999	1840	0	0	0
2019/05/25 23:16:00	BASE	6.64	271	9.62	284	-7.0	78	-10.2	0	0	982.2	NA	0.0000	-SN	8000	1740	0	0	0
2019/05/25 23:17:00	BASE	9.02	282	13.02	274	-6.9	78	-10.2	0	0	982.1	NA	0.0000	-SN	9000	1800	0	0	0
2019/05/25 23:18:00	BASE	12.65	284	17.54	288	-6.9	78	-10.1	0	0	982.0	NA	0.0000	-SN	9999	1770	0	0	0
2019/05/25 23:19:00	BASE	15.21	288	17.54	288	-6.8	78	-10.0	0	0	981.9	NA	0.0000	-SN	9999	1840	2330	0	0
2019/05/25 23:20:00	BASE	14.69	291	17.54	288	-6.8	79	-9.9	0	0	981.9	NA	0.0000	-SN	9999	1770	2560	0	0
2019/05/25 23:21:00	BASE	12.54	295	17.54	288	-6.8	79	-9.8	0	0	981.9	NA	0.0000	-SN	9999	1940	0	0	0
2019/05/25 23:22:00	BASE	13.49	290	19.50	298	-6.8	80	-9.7	0	0	981.8	NA	0.0000	-SN	9999	2000	0	0	0
2019/05/25 23:23:00	BASE	13.59	275	19.50	298	-6.8	80	-9.7	0	0	981.9	NA	0.0000	-SN	9999	2130	0	0	0
2019/05/25 23:24:00	BASE	11.26	266	19.50	298	-6.8	81	-9.6	0	0	982.0	NA	0.0000	-SN	9999	1970	0	0	0
2019/05/25 23:25:00	BASE	9.21	264	19.50	298	-6.8	81	-9.6	0	0	982.0	NA	0.0000	-SN	9999	2030	0	0	0
2019/05/25 23:26:00	BASE	9.34	262	19.50	298	-6.8	81	-9.5	0	0	982.0	NA	0.0000	-SN	9999	1970	2590	0	0
2019/05/25 23:27:00	BASE	9.27	255	19.50	298	-6.7	81	-9.5	0	0	982.0	NA	0.0000	-SN	9999	1970	2760	0	0
2019/05/25 23:28:00	BASE	8.05	246	19.50	298	-6.7	81	-9.4	0	0	982.0	NA	0.0000	-SN	9999	2890	0	0	0
2019/05/25 23:29:00	BASE	6.86	239	19.50	298	-6.7	81	-9.5	0	0	982.1	NA	0.0000	-SN	9999	2820	0	0	0
2019/05/25 23:30:00	BASE	4.25	238	19.50	298	-6.8	81	-9.5	0	0	982.1	NA	0.0000	-SN	9999	2850	0	0	0
2019/05/25 23:31:00	BASE	3.55	241	19.50	298	-6.8	81	-9.6	0	0	982.1	NA	0.0000	-SN	9999	2790	0	0	0
2019/05/25 23:32:00	BASE	3.58	245	13.94	263	-6.9	80	-9.7	0	0	982.1	NA	0.0000	-SN	9999	2760	0	0	0
2019/05/25 23:33:00	BASE	3.46	237	12.71	257	-6.9	80	-9.8	0	0	982.1	NA	0.0000	-SN	9999	2790	0	0	0
2019/05/25 23:34:00	BASE	4.16	218	12.71	257	-6.9	79	-10.0	0	0	982.1	NA	0.0000	-SN	9999	2530	0	0	0
2019/05/25 23:35:00	BASE	5.25	208	12.71	257	-6.9	78	-10.1	0	0	982.1	NA	0.0000	-SN	9999	2590	0	0	0
2019/05/25 23:36:00	BASE	7.04	207	11.37	241	-6.9	77	-10.2	0	0	982.0	NA	0.0000	-SN	8000	660	0	0	0
2019/05/25 23:37:00	BASE	9.10	216	14.40	235	-6.8	76	-10.3	0	0	981.9	NA	0.0000	-SN	4900	330	2260	0	0
2019/05/25 23:38:00	BASE	10.92	232	14.40	235	-6.7	76	-10.3	0	0	982.0	NA	0.0000	-SN	4300	230	1670	0	0
2019/05/25 23:39:00	BASE	12.48	247	16.51	257	-6.7	75	-10.3	0	0	981.9	NA	0.0000	-SN	5000	390	0	0	0
2019/05/25 23:40:00	BASE	14.30	252	16.87	249	-6.6	76	-10.2	0	0	981.9	NA	0.0000	-SN	7000	430	0	0	0
2019/05/25 23:41:00	BASE	15.45	249	16.87	249	-6.6	76	-10.1	0	0	981.9	NA	0.0000	-SN	9999	690	0	0	0
2019/05/25 23:42:00	BASE	14.70	250	16.87	249	-6.6	77	-10.0	0	0	981.9	NA	0.0000	-SN	9999	920	0	0	0
2019/05/25 23:43:00	BASE	13.30	254	16.87	249	-6.7	78	-9.9	0	0	981.9	NA	0.0000	-SN	9999	660	0	0	0
2019/05/25 23:44:00	BASE	13.22	256	16.87	249	-6.7	79	-9.7	0	0	982.0	NA	0.0000	-SN	9999	1380	0	0	0
2019/05/25 23:45:00	BASE	15.18	256	18.01	249	-6.7	80	-9.5	0	0	981.9	NA	0.0000	-SN	9999	1350	0	0	0
2019/05/25 23:46:00	BASE	16.87	255	18.21	253	-6.7	81	-9.4	0	0	981.9	NA	0.0000	-SN	9999	390	0	0	0
2019/05/25 23:47:00	BASE	16.55	254	18.21	253	-6.7	82	-9.3	0	0	981.9	NA	0.0000	-SN	9999	430	0	0	0
2019/05/25 23:48:00	BASE	15.42	255	18.67	251	-6.7	82	-9.2	0	0	981.9	NA	0.0000	-SN	9999	820	0	0	0
2019/05/25 23:49:00	BASE	16.18	254	18.83	253	-6.7	83	-9.2	0	0	981.9	NA	0.0000	-SN	9999	1380	0	0	0
2019/05/25 23:50:00	BASE	16.82	254	18.83	253	-6.8	83	-9.2	0	0	981.9	NA	0.0000	-SN	9999	300	1870	0	0
2019/05/25 23:51:00	BASE	16.81	256	18.98	256	-6.9	84	-9.2	0	0	982.0	NA	0.0000	-SN	7000	230	1280	0	0
2019/05/25 23:52:00	BASE	17.00	257	18.98	256	-6.9	84	-9.2	0	0	982.0	NA	0.0000	-SN	8000	0	0	0	4170
2019/05/25 23:53:00	BASE	16.02	259	18.98	256	-7.0	85	-9.1	0	0	981.9	NA	0.0000	-SN	9999	390	0	0	0
2019/05/25 23:54:00	BASE	15.03	261	18.98	256	-7.0	85	-9.1	0	0	981.9	NA	0.0000	-SN	9999	330	0	0	0
2019/05/25 23:55:00	BASE	13.84	262	18.98	256	-7.0	85	-9.1	0	0	982.0	NA	0.0000	-SN	8000	0	0	0	4760
2019/05/25 23:56:00	BASE	12.50	264	18.98	256	-7.0	86	-9.0	0	0	982.0	NA	0.0000	-SN BR	5000	0	0	0	4720
2019/05/25 23:57:00	BASE	11.62	266	18.98	256	-7.0	86	-8.9	0	0	982.0	NA	0.0000	-SN BR	4000	0	0	0	4630
2019/05/25 23:58:00	BASE	12.45	263	18.98	256	-6.9	87	-8.8	0	0	982.0	NA	0.0000	-SN BR	3900	0	0	0	3740
2019/05/25 23:59:00	BASE	14.12	259	18.98	256	-6.9	87	-8.7	0	0	982.0	NA	0.0000	-SN BR	3500	0	0	0	1570